GFSCGP_sfc_rhum_000.txt.gz
RH
26 30 33 29 31 29 30 32 37 32 27 33 35 35 28 24 27 27 29 28 30 32 40 37 35 36 35 34 32 35 35 36 43 47 49 49 48 51 55 58 67 69 64 59
29 35 27 22 26 29 28 39 39 34 29 37 35 35 26 22 26 26 29 30 28 31 33 34 34 38 32 33 32 33 33 36 41 44 47 45 47 48 48 51 56 67 66 59
33 28 23 24 28 28 32 40 41 39 38 40 36 35 25 23 28 27 28 28 27 27 29 33 36 38 39 35 36 33 33 35 41 44 46 49 55 55 54 51 54 58 63 58
30 24 21 29 30 32 36 30 36 40 46 52 39 55 33 26 28 29 29 30 29 28 31 30 32 42 44 39 42 39 37 38 40 47 48 46 36 38 38 38 49 55 57 57
29 26 26 30 29 32 33 34 41 45 52 54 43 47 33 26 27 27 36 34 36 38 34 35 37 34 35 40 46 47 45 44 42 47 54 53 48 44 41 56 52 54 61 62
27 24 27 30 31 37 34 42 50 53 53 69 49 44 43 35 28 35 38 36 36 38 40 38 39 40 44 50 50 52 53 49 50 52 53 59 57 49 53 54 59 66 69 70
42 33 30 34 40 39 44 60 83 74 81 77 48 51 42 35 30 30 32 37 39 35 38 39 47 50 54 54 56 54 55 51 51 58 59 61 61 59 56 50 58 64 60 60
68 65 43 32 43 47 49 58 86 83 88 79 52 57 42 30 31 29 30 31 34 45 41 44 52 55 55 55 55 51 48 49 48 54 54 63 67 74 72 66 72 73 64 65
76 59 44 37 38 42 49 66 53 70 94 89 71 53 33 35 37 37 40 41 45 47 52 52 53 57 60 60 60 61 61 51 53 58 61 62 65 68 66 65 66 63 61 57
61 73 55 48 45 44 47 45 69 85 89 96 73 64 53 42 45 43 47 49 49 48 47 48 54 59 60 62 65 66 63 57 60 53 58 55 57 60 61 60 60 64 68 74
60 67 65 54 56 60 54 71 62 62 83 96 98 84 52 48 48 47 46 51 52 49 52 57 56 54 52 54 58 64 68 67 52 48 60 61 55 57 56 58 63 62 65 69
62 74 87 62 51 49 54 62 66 91 83 90 93 72 41 49 39 49 50 49 51 52 56 62 61 61 63 65 69 68 73 58 52 54 61 60 57 54 57 62 62 61 58 54
59 77 87 63 53 58 64 57 63 73 86 88 95 82 37 39 48 48 52 53 54 63 70 69 68 63 68 69 68 69 74 57 56 54 58 54 53 53 63 61 60 56 53 52
62 72 74 83 67 73 76 62 58 71 94 84 76 66 50 44 50 54 61 63 65 70 66 69 71 70 72 69 73 76 60 64 65 60 55 54 56 60 66 64 61 56 56 57
65 80 77 72 67 70 68 68 68 75 70 88 72 65 55 66 65 62 62 62 63 67 69 71 72 75 76 75 77 67 69 71 70 62 64 76 74 71 68 64 66 66 62 62
74 89 87 84 75 79 84 74 72 70 67 68 65 60 75 72 71 72 70 67 73 75 69 63 70 73 72 73 78 72 75 78 79 81 84 80 77 76 80 81 81 73 68 63
81 92 97 80 92 95 91 80 69 60 58 62 81 70 78 86 79 76 74 72 76 79 68 69 76 77 76 81 75 82 84 89 80 84 85 90 91 90 86 82 76 64 62 61
90 97 98 98 97 99 64 56 54 61 60 60 77 79 78 79 73 72 68 70 80 74 68 71 79 78 80 79 83 87 90 90 89 89 84 84 87 85 73 63 60 60 58 57
81 98 98 98 98 80 68 59 67 74 70 77 84 82 82 82 86 82 66 72 71 69 73 79 81 82 83 86 88 89 85 87 75 60 60 60 60 57 57 55 58 59 60 63
92 94 90 96 99 93 67 55 59 65 85 76 79 85 90 91 98 80 76 74 61 68 77 77 76 81 86 84 71 56 54 56 58 58 53 51 54 54 55 59 61 60 61 63
98 98 97 100 99 88 64 55 63 81 70 77 78 77 84 95 86 79 80 65 71 77 77 77 78 83 84 63 54 46 51 53 49 52 54 54 57 57 59 58 59 63 71 85
74 89 97 98 99 95 63 61 80 74 80 68 67 82 90 87 87 76 67 71 71 80 79 76 84 84 67 41 40 43 51 48 54 59 60 63 65 62 53 60 64 70 85 95
84 78 84 82 83 67 64 62 65 71 63 74 86 82 85 86 78 77 71 77 81 85 87 84 88 69 63 42 47 53 58 59 64 68 72 73 73 66 61 66 75 78 87 97
75 66 86 82 66 60 60 54 53 63 80 85 88 91 87 85 84 72 72 74 80 86 88 86 78 68 71 54 53 62 63 63 70 74 77 80 81 76 74 76 72 78 96 96
84 86 89 87 74 66 61 62 69 73 81 76 75 78 82 72 62 73 74 75 82 85 86 89 91 93 69 59 62 60 65 69 70 77 79 86 88 81 81 78 78 89 92 94
82 75 93 89 64 72 68 76 69 73 80 82 81 72 55 57 72 69 72 75 78 85 92 87 83 60 56 61 61 65 71 72 77 79 85 96 97 95 84 86 86 73 80 71

GFSCGP_sfc_rhum_003.txt.gz
RH
30 31 32 33 34 31 32 36 44 36 30 37 42 41 35 32 30 30 31 31 36 36 43 39 40 41 40 43 40 32 33 36 48 51 52 52 51 52 57 58 58 74 74 71
33 35 30 27 28 29 36 41 39 38 33 43 41 39 26 25 28 32 34 37 35 38 37 36 38 39 34 35 36 37 36 37 41 45 47 48 49 50 50 54 57 68 73 68
35 30 23 27 31 30 34 41 42 41 41 45 42 38 27 27 30 29 30 32 34 37 38 38 36 36 38 36 36 34 34 35 41 45 48 50 55 56 57 52 55 53 64 66
33 24 28 30 32 36 40 32 41 43 50 53 45 48 37 29 33 32 33 35 36 33 33 34 38 39 41 39 43 42 41 42 41 46 49 52 44 42 39 44 45 46 61 57
35 26 31 32 33 37 38 41 46 52 56 63 45 49 41 35 31 37 42 38 39 37 36 35 37 37 42 44 47 55 54 50 50 53 56 60 61 56 51 54 62 58 58 68
41 29 30 35 36 39 38 50 53 58 58 68 55 52 46 40 38 43 40 41 44 39 42 40 44 50 53 59 59 57 55 53 51 53 58 66 68 63 67 65 69 64 72 73
50 45 40 37 42 42 48 64 78 69 80 77 55 54 45 38 36 38 40 38 39 40 42 49 56 56 57 60 61 58 59 58 58 59 60 57 62 72 74 72 73 72 74 73
72 61 49 41 47 50 54 62 85 75 89 83 58 64 45 38 34 34 32 40 43 47 50 56 56 60 62 66 64 66 63 61 59 64 56 57 64 72 76 80 76 81 76 78
82 63 50 48 50 48 55 70 59 80 96 92 76 58 41 43 46 40 45 49 55 57 57 61 65 61 62 62 63 68 65 64 65 64 58 61 62 64 68 68 76 78 75 75
66 78 59 51 49 48 49 50 73 87 88 92 81 76 60 51 55 51 55 58 53 55 57 59 62 60 59 62 68 72 68 70 70 52 54 55 62 64 67 72 72 74 80 86
62 69 61 55 57 65 63 74 68 67 85 93 97 85 59 59 52 57 58 57 56 56 59 61 61 62 62 65 67 71 71 76 65 56 60 65 65 64 65 68 72 75 77 72
67 75 87 64 54 56 57 68 69 88 82 91 95 76 50 51 53 56 61 57 59 57 60 64 66 67 69 70 72 71 78 78 61 64 65 60 69 63 62 67 66 66 58 56
63 78 84 59 52 55 68 68 70 79 88 89 95 81 49 46 59 58 65 65 64 61 63 65 67 64 66 73 75 75 81 67 68 68 62 58 64 60 65 62 59 56 52 50
63 74 71 83 62 72 80 73 71 75 95 87 82 65 54 58 69 67 69 69 66 65 63 68 68 72 73 75 75 79 76 74 75 72 62 59 58 63 66 63 66 73 66 60
68 80 81 75 70 75 74 78 74 84 80 88 78 75 62 64 80 75 70 69 69 65 69 72 70 71 78 81 81 82 78 80 83 86 73 81 74 72 75 91 89 79 72 64
81 88 89 89 81 83 88 80 83 81 81 81 76 72 56 77 79 79 78 76 77 76 76 70 66 70 80 80 83 78 80 88 93 90 91 86 89 90 92 92 90 89 89 80
82 93 98 86 93 95 84 80 82 74 62 64 80 68 80 82 81 86 81 80 81 78 83 70 72 80 85 84 82 84 89 92 89 91 88 89 91 95 94 90 89 90 73 64
94 97 98 96 97 98 60 58 54 63 61 62 67 80 80 82 77 83 78 88 83 80 64 62 74 86 78 80 82 90 92 92 91 80 69 66 70 70 72 66 63 63 62 60
87 97 98 99 98 82 67 58 69 70 65 69 79 82 80 66 91 91 80 86 73 63 60 67 79 76 79 87 86 70 66 64 63 62 61 58 64 64 62 61 63 63 63 65
95 94 94 98 99 96 70 54 59 72 92 73 84 84 70 82 97 78 88 78 79 68 65 73 73 76 85 84 64 63 60 57 58 64 61 60 61 63 64 65 62 62 67 74
98 98 99 99 98 90 67 60 64 92 77 70 74 70 75 88 84 90 80 75 66 69 71 73 79 86 84 70 55 51 54 59 56 59 62 62 64 68 65 62 65 72 82 86
77 88 96 98 99 95 65 69 84 78 76 75 78 81 88 91 87 87 78 78 66 77 78 77 84 88 80 53 52 51 55 58 62 64 66 71 75 66 58 68 74 76 84 92
87 76 85 76 83 68 62 64 63 69 79 84 90 91 92 89 88 77 75 71 73 80 85 82 89 88 68 52 50 55 58 60 66 71 74 78 76 70 68 76 77 78 85 95
88 76 92 82 68 61 64 60 55 67 82 90 79 82 90 95 75 64 65 76 74 77 86 87 91 94 96 77 53 54 61 62 68 72 75 80 84 79 79 77 74 80 95 97
84 89 89 83 75 73 67 68 84 82 85 84 82 86 86 74 62 57 64 74 74 78 86 92 94 92 88 80 63 59 62 67 68 72 75 83 87 87 82 77 83 89 94 95
86 78 94 96 70 75 71 88 89 87 84 81 79 77 68 58 57 62 78 79 78 76 87 93 82 88 73 66 66 63 68 73 76 77 83 94 97 97 87 82 85 74 79 72

GFSCGP_sfc_rhum_006.txt.gz
RH
33 31 34 35 36 34 34 38 47 54 36 42 48 47 34 30 32 31 31 35 40 40 44 46 46 48 49 49 41 39 43 46 53 56 55 56 55 54 59 61 63 70 77 80
33 34 31 30 32 31 35 42 38 38 38 49 46 42 28 31 34 39 41 42 40 40 40 37 39 42 40 42 41 38 37 39 44 49 50 54 53 53 55 57 58 61 65 72
37 33 30 29 34 37 40 40 42 42 43 53 46 39 36 29 33 33 35 40 41 39 36 40 38 39 38 38 40 38 39 40 44 47 51 51 55 55 54 48 53 51 59 60
34 28 30 37 36 40 48 36 43 46 56 54 49 48 44 39 35 37 37 36 39 40 41 39 41 43 51 42 47 48 48 49 48 54 55 59 58 59 56 58 54 51 58 64
35 32 37 40 39 41 42 49 55 55 62 65 51 50 40 40 36 40 42 38 42 38 39 41 42 45 64 58 64 64 58 57 58 59 63 67 64 70 70 69 72 68 68 70
49 36 37 40 39 47 43 56 50 61 61 69 61 57 49 46 42 43 43 42 40 48 39 45 56 58 63 64 64 64 61 59 59 63 65 69 72 69 70 65 74 77 80 80
53 50 48 42 48 46 52 60 70 68 79 77 59 60 46 40 41 40 40 40 42 46 52 51 63 64 62 64 65 64 66 62 63 68 61 60 62 65 67 63 67 78 83 80
74 57 52 45 52 56 59 64 82 67 91 85 64 64 49 40 42 38 39 50 57 61 64 64 63 65 64 63 65 70 69 67 70 69 56 59 61 66 62 64 70 83 81 85
85 64 53 54 57 52 59 73 64 82 97 92 79 64 48 51 50 46 54 56 56 55 56 57 60 59 61 59 62 70 73 70 73 72 63 68 69 66 62 61 77 83 83 87
70 78 61 54 53 50 53 54 71 87 92 91 80 77 67 62 56 59 61 57 57 55 57 58 60 60 61 65 71 73 75 73 77 67 66 63 69 65 64 70 79 79 84 90
65 70 56 56 60 70 66 76 72 72 87 95 98 82 64 64 63 64 63 64 66 63 57 60 64 66 69 71 72 76 75 77 84 66 72 74 67 68 68 76 78 81 85 83
70 76 84 61 57 64 68 70 70 86 77 93 95 86 57 57 64 61 70 66 67 65 63 62 69 72 73 73 75 79 79 84 73 72 74 72 72 65 72 73 72 73 61 59
67 79 81 51 55 58 72 74 73 82 88 88 97 77 54 57 63 67 71 72 71 69 69 67 66 72 74 74 77 81 81 80 76 76 81 72 65 66 72 71 75 72 70 64
66 76 67 75 58 67 81 80 77 80 94 88 84 68 55 54 63 74 77 77 76 74 72 73 76 75 77 74 82 84 86 80 82 88 84 87 84 77 87 95 93 85 79 69
71 82 82 76 71 75 76 81 82 90 84 90 71 80 67 65 66 79 77 78 77 72 75 78 80 69 68 74 82 86 80 83 92 93 92 90 89 92 95 95 93 90 89 86
82 86 92 91 89 90 94 85 87 87 87 89 84 88 64 65 85 84 79 79 82 84 82 83 73 72 75 82 84 80 81 87 92 92 94 93 90 88 88 90 91 91 90 88
82 94 98 90 92 93 77 68 83 80 74 73 75 58 69 84 82 76 74 88 90 90 74 68 59 60 73 79 84 82 86 92 94 83 66 72 73 79 82 87 93 90 81 72
98 97 98 98 92 96 61 61 55 67 62 59 67 69 79 82 79 77 86 90 90 79 74 66 59 65 79 78 81 88 84 80 71 73 74 74 70 71 69 65 64 66 64 64
90 98 98 98 94 83 68 59 70 72 67 63 77 80 81 73 84 83 90 89 86 82 74 66 74 75 80 84 74 65 66 66 70 81 83 79 68 68 68 68 67 66 67 69
93 94 95 99 98 97 69 60 63 78 89 81 77 68 67 80 95 82 86 83 76 63 64 74 76 79 83 85 77 63 76 69 65 71 66 66 70 74 75 69 68 66 74 77
98 98 98 94 99 91 70 64 65 90 81 72 74 72 82 91 97 92 85 69 54 62 72 74 80 84 85 85 65 62 59 62 62 64 67 70 76 77 69 71 73 77 82 83
75 86 96 98 99 95 67 72 82 74 80 73 75 84 96 93 90 83 73 64 58 72 76 73 81 86 86 80 58 59 71 57 61 67 70 74 80 72 65 77 77 74 83 93
88 78 84 86 87 69 58 70 62 67 79 85 94 91 92 89 84 74 74 64 60 76 74 79 87 90 89 79 58 92 84 65 65 71 73 76 80 74 69 77 79 81 88 97
88 84 93 86 78 80 72 64 74 88 93 90 91 92 87 83 85 79 75 65 62 79 82 84 89 93 92 89 89 73 63 66 69 72 74 79 82 83 78 76 74 83 97 98
91 86 92 93 78 78 77 94 93 90 90 89 83 81 76 78 83 79 73 78 84 86 82 85 92 94 91 87 85 73 65 70 72 72 75 82 85 88 86 79 80 92 95 95
92 92 96 84 71 91 88 90 90 86 83 79 79 81 80 80 73 78 80 85 87 87 84 87 93 91 89 78 68 71 70 76 78 77 86 96 97 97 92 82 84 74 76 74

GFSCGP_sfc_rhum_012.txt.gz
RH
17 13 18 20 19 17 16 16 17 15 19 23 23 18 16 16 16 17 16 16 19 22 20 20 25 27 27 34 35 32 36 37 30 26 27 25 27 26 26 26 34 37 35 38
14 21 19 19 19 18 19 18 18 20 22 25 21 18 16 18 20 19 18 18 19 19 19 22 26 30 33 33 31 28 26 29 27 24 28 32 35 30 32 30 33 31 36 35
17 19 20 21 22 23 24 22 28 27 23 23 23 21 18 19 19 19 19 18 17 18 20 22 24 29 32 34 34 29 31 33 36 34 27 27 27 29 27 30 28 30 34 33
20 22 24 23 27 27 25 26 30 30 27 20 25 20 23 19 20 19 20 21 21 21 21 24 27 31 36 40 38 34 33 31 33 37 32 39 33 34 34 34 31 33 35 35
25 25 26 27 29 29 31 34 32 33 29 28 26 21 26 20 20 20 21 23 24 26 28 31 33 33 34 37 40 38 34 34 35 35 39 37 40 37 35 36 39 36 32 32
26 24 26 28 28 29 31 33 34 33 32 40 33 28 28 24 28 24 23 26 29 30 28 32 33 32 32 36 40 40 35 34 38 40 40 45 47 45 40 38 36 32 32 31
26 29 28 30 27 30 26 30 38 51 50 44 33 30 36 30 27 28 29 30 33 34 34 32 31 30 33 37 39 38 36 34 35 39 39 39 41 44 44 41 38 41 36 36
31 38 34 33 36 36 35 36 51 50 50 39 34 31 32 30 29 30 30 32 32 32 34 33 32 32 34 39 40 41 37 34 32 36 37 38 44 43 42 42 42 42 41 43
39 36 32 34 32 34 36 43 39 56 80 65 30 33 32 30 30 29 32 33 34 33 32 32 32 33 36 39 42 45 42 38 37 42 45 48 49 48 47 46 45 43 48 44
44 43 36 33 33 33 34 35 44 45 76 45 23 27 23 36 34 33 33 33 34 32 32 33 32 35 36 38 44 45 42 40 43 45 47 46 48 46 45 46 48 51 52 55
35 40 37 37 39 38 38 41 42 38 50 55 52 27 31 32 34 34 35 34 36 37 36 35 36 36 39 41 39 40 43 43 42 44 45 48 48 46 46 48 49 50 51 45
45 47 42 33 40 39 37 40 38 51 45 54 67 42 29 30 32 36 34 37 37 38 34 35 37 39 41 39 37 37 41 41 42 42 44 46 47 45 48 51 52 54 54 50
42 48 38 36 42 39 42 40 43 50 60 61 84 42 27 30 32 29 34 36 37 36 34 36 40 42 40 39 40 39 42 45 44 41 40 43 48 50 54 54 57 56 59 61
58 47 43 32 30 34 39 35 37 45 71 52 49 39 30 26 28 29 33 40 37 38 39 44 46 43 41 37 36 44 46 45 41 42 43 46 57 60 60 53 50 50 51 54
49 50 49 40 38 37 41 40 36 40 46 62 49 38 33 31 33 36 40 41 41 43 50 49 48 41 32 34 44 44 42 42 46 48 46 50 50 46 43 44 43 43 44 38
51 58 66 59 46 40 49 39 35 40 43 44 42 44 33 33 38 44 45 47 52 56 54 57 52 32 32 40 47 41 37 39 48 46 48 45 45 43 43 44 42 39 36 36
62 71 76 84 60 62 85 51 38 38 41 43 53 39 39 44 49 51 50 53 63 68 67 54 35 30 38 43 42 37 38 42 45 46 43 43 46 45 42 37 32 34 39 41
92 83 91 98 92 93 44 33 34 42 38 33 33 42 48 48 48 43 56 66 80 69 43 35 32 34 40 42 35 38 35 38 43 45 43 45 43 42 36 33 34 39 40 42
63 87 100 100 74 53 44 42 44 48 48 43 51 51 48 46 46 50 75 85 77 56 41 36 32 35 41 41 36 40 41 39 40 44 45 43 42 40 33 35 39 41 42 43
69 80 94 94 99 91 53 42 41 46 58 52 65 74 68 63 92 92 81 64 50 42 35 32 32 35 40 39 38 43 42 38 38 41 44 40 40 38 35 39 43 43 40 42
97 96 98 88 98 69 44 44 46 87 84 65 76 81 82 93 90 78 74 47 36 34 32 31 30 34 38 37 39 45 40 38 33 38 41 40 38 36 37 41 42 42 43 54
66 97 97 96 99 96 43 45 83 61 63 80 82 85 86 85 74 58 43 37 31 30 29 29 33 34 35 36 40 42 38 32 35 44 45 42 39 36 36 42 43 44 48 62
68 57 60 62 66 42 42 49 47 62 71 90 82 63 76 60 49 39 35 31 30 32 31 31 34 40 36 34 37 45 40 42 48 58 48 43 41 41 41 44 47 49 50 70
52 49 72 73 52 45 49 44 57 73 88 72 63 55 48 49 42 35 33 32 34 32 32 36 39 37 39 40 48 53 62 72 65 52 45 44 44 47 44 45 47 46 63 76
54 55 60 66 58 55 46 66 74 82 81 76 45 46 45 34 33 32 32 33 32 34 37 39 38 41 39 40 47 50 45 45 43 44 44 47 52 53 51 47 45 54 63 70
51 52 81 96 64 76 70 72 78 86 58 48 46 35 30 30 32 32 32 32 34 38 43 39 40 43 41 44 52 46 50 52 57 54 51 56 62 61 57 47 49 72 72 71

GFSCGP_sfc_rhum_015.txt.gz
RH
12 12 14 15 14 11 10 11 11 10 13 15 13 12 12 13 12 15 14 13 13 14 20 20 23 24 26 32 31 31 35 34 27 24 26 24 26 25 25 25 30 34 32 35
11 16 15 14 14 14 14 14 14 14 15 16 14 13 13 14 16 14 15 16 18 20 19 22 26 30 31 30 28 27 26 28 26 23 27 31 34 29 29 29 31 30 33 34
16 16 15 16 15 17 17 18 22 21 16 15 16 15 15 15 15 15 14 15 15 18 19 21 25 29 32 32 30 27 28 30 32 32 25 27 27 27 26 26 29 29 35 33
16 18 18 17 20 20 21 20 23 22 21 18 15 18 18 16 17 17 18 19 19 18 20 22 25 30 35 36 34 30 30 28 30 35 31 38 33 34 33 34 31 32 34 31
20 19 20 22 23 22 24 25 24 23 22 20 17 15 22 15 18 19 20 21 22 23 25 26 28 29 30 34 37 34 30 30 32 34 38 39 40 38 35 34 37 37 32 33
19 18 21 23 22 22 23 26 24 25 23 33 22 20 22 19 21 20 20 23 25 24 26 26 27 27 30 34 37 36 33 30 32 36 38 41 43 40 38 38 38 34 36 34
21 23 22 23 24 24 21 24 38 45 42 41 24 20 30 24 22 21 24 25 28 29 29 27 26 26 30 33 34 35 32 32 30 33 36 38 38 42 41 40 40 42 38 39
24 37 25 24 28 29 26 28 49 45 43 32 23 21 26 23 23 24 24 26 26 28 29 29 29 30 30 32 33 37 36 33 32 36 38 40 41 40 40 43 43 42 42 44
29 31 25 27 25 25 29 34 29 46 58 56 21 22 25 24 26 24 26 26 27 26 26 27 28 29 32 32 34 39 39 34 33 38 41 44 42 45 45 46 45 44 46 41
30 37 26 26 26 27 28 26 41 39 64 40 19 17 25 31 28 27 26 26 26 26 26 28 29 31 32 33 37 38 36 34 37 39 39 39 43 44 43 44 46 46 46 45
24 28 31 26 29 28 29 32 33 27 39 49 41 26 22 23 25 27 27 25 27 29 30 29 30 32 32 34 34 34 33 34 35 35 37 40 40 42 42 42 44 53 52 52
33 34 40 23 28 30 29 31 29 48 39 42 52 42 22 24 24 25 26 25 30 30 29 30 33 36 36 35 34 33 33 32 34 35 35 35 36 38 40 46 54 54 58 52
33 40 37 28 35 31 31 29 28 35 50 49 73 43 21 23 24 22 23 26 30 34 36 37 40 37 38 37 33 29 32 36 34 32 31 33 35 40 50 55 52 45 46 45
50 33 35 38 27 22 29 24 22 30 55 50 43 32 24 23 26 25 27 28 35 38 40 43 39 38 36 32 26 31 34 37 34 30 33 35 39 42 47 44 42 40 37 35
38 43 37 31 25 23 25 27 26 26 28 46 41 33 29 28 30 31 32 34 36 37 41 43 43 37 30 25 29 32 36 33 32 33 34 37 38 40 42 43 40 37 35 31
37 53 56 52 31 26 34 27 25 24 28 30 30 34 27 28 28 34 38 40 42 48 49 49 35 28 25 27 29 33 33 33 33 34 35 34 38 45 46 42 39 32 32 31
49 60 58 70 52 57 82 46 27 27 27 34 50 36 29 34 42 49 48 49 51 63 64 46 32 28 28 27 30 32 30 30 31 32 31 34 43 46 43 37 29 30 34 36
73 64 85 94 89 91 36 26 27 30 30 26 27 30 36 48 47 50 48 53 64 60 49 39 32 28 25 24 26 30 28 30 30 31 34 40 42 43 38 34 30 34 35 38
46 72 94 98 64 46 37 37 40 44 44 30 41 44 42 44 49 52 59 59 59 53 41 31 26 24 24 24 24 26 30 28 28 29 28 34 42 45 38 34 34 36 37 39
57 70 82 93 98 89 49 34 34 37 57 47 48 54 58 62 84 71 55 52 46 34 26 24 24 24 23 23 24 27 27 27 30 32 28 32 36 38 39 35 37 38 36 36
94 95 97 86 98 63 34 37 38 69 70 52 61 61 77 74 77 66 58 44 30 25 22 23 23 24 24 25 26 27 26 27 27 31 32 40 53 48 38 36 37 36 37 48
74 93 97 88 98 88 36 38 76 57 56 57 73 77 75 61 57 48 36 29 25 23 22 21 23 24 26 24 26 26 26 29 39 46 53 67 63 44 35 39 38 39 41 55
55 52 60 57 58 34 37 46 48 49 60 73 82 75 65 50 42 35 31 26 24 22 19 19 21 27 25 25 24 27 31 38 50 62 72 66 47 45 36 39 39 41 45 60
40 32 62 64 41 38 40 46 54 60 69 70 72 62 40 41 35 29 27 26 23 18 19 20 25 27 28 27 27 31 42 47 47 55 52 49 45 44 41 36 35 40 54 69
49 42 55 64 44 43 42 58 62 62 69 74 48 39 40 33 29 28 25 22 21 22 22 26 29 29 30 30 35 39 47 49 50 50 46 48 46 45 46 42 42 49 57 67
43 48 69 79 50 68 72 73 63 67 68 43 42 36 31 29 27 23 24 24 24 27 28 27 28 31 33 40 45 48 50 54 62 62 53 56 58 59 59 46 47 69 73 67

GFSCGP_sfc_rhum_018.txt.gz
RH
12 14 17 16 14 11 10 10 10 11 13 14 12 11 11 12 12 15 15 17 15 26 25 27 31 36 39 42 42 44 51 50 45 42 46 50 53 51 49 46 51 50 50 52
11 16 15 12 11 12 12 13 13 13 13 14 12 13 13 14 16 15 15 16 23 25 26 31 35 39 43 41 40 38 38 43 41 41 45 49 52 49 47 50 49 48 54 52
20 16 12 13 13 16 14 16 23 20 16 14 15 16 16 15 15 15 17 19 21 24 26 29 34 43 48 47 46 37 39 42 47 50 41 46 47 48 48 50 48 48 54 50
17 15 14 14 17 19 20 21 22 20 21 22 15 21 18 18 18 18 20 23 23 22 23 27 34 42 47 50 48 41 40 39 42 50 51 60 54 52 54 57 53 50 53 55
19 17 18 20 23 20 22 23 22 22 23 22 17 20 21 18 21 22 24 24 27 28 29 31 34 36 39 49 52 49 43 38 44 48 54 58 60 60 54 54 59 57 56 54
18 16 20 22 20 19 20 24 23 24 26 49 20 21 34 22 21 22 23 25 26 28 30 30 31 33 39 48 51 51 44 39 41 44 48 55 60 61 60 60 58 56 53 53
20 21 21 20 24 22 22 26 52 68 60 60 26 20 34 24 21 21 25 28 31 33 34 32 31 32 37 42 46 45 44 41 43 51 51 57 61 62 61 60 58 59 56 58
25 39 24 21 26 27 25 27 67 59 66 48 20 22 31 24 24 24 25 27 29 31 34 33 33 36 37 42 44 46 44 42 41 51 53 57 56 59 59 60 59 63 62 63
27 32 23 23 22 22 30 37 24 48 68 69 26 29 27 25 26 25 26 25 28 28 30 31 33 38 41 42 48 51 48 41 44 52 56 58 60 62 63 62 63 65 65 52
26 38 23 22 22 25 25 22 44 55 72 52 25 23 38 32 30 28 25 27 26 26 28 32 32 39 40 42 48 52 48 43 44 46 52 50 54 54 58 61 63 66 65 61
24 27 32 23 27 26 28 31 30 27 45 62 57 32 22 24 26 28 28 25 30 33 32 33 35 38 42 47 46 46 42 38 42 44 49 53 53 53 56 62 65 66 67 61
28 32 60 24 24 23 24 28 28 70 50 66 66 44 21 24 24 28 30 29 32 34 36 38 40 42 42 44 43 39 39 41 43 44 44 44 48 48 56 60 63 64 62 61
34 44 57 35 35 28 25 24 25 34 64 62 76 51 21 25 37 32 31 30 37 38 36 38 42 41 41 41 41 35 40 41 41 37 36 41 46 51 56 58 62 60 56 54
54 30 35 52 28 23 26 22 20 26 70 62 56 38 27 26 31 32 32 35 36 38 40 42 42 43 40 35 34 33 37 45 40 36 37 42 52 52 54 57 57 56 54 49
38 46 37 33 25 23 24 24 23 26 30 48 40 29 27 33 31 36 38 38 39 40 42 46 48 44 34 33 32 34 36 42 40 40 39 46 48 49 54 59 58 56 55 45
36 66 67 60 27 28 34 30 29 26 26 25 30 33 25 36 42 47 48 46 44 48 50 52 45 36 32 32 32 31 34 41 40 40 40 40 46 49 56 60 61 57 50 48
50 75 74 79 57 62 88 55 30 29 28 32 51 38 40 44 44 45 48 47 54 54 53 48 40 37 32 29 29 30 30 34 42 42 39 42 49 51 58 55 49 47 51 54
74 75 93 94 92 85 35 25 27 32 30 27 28 36 41 45 45 42 52 56 56 53 50 45 39 31 29 27 27 30 26 29 31 34 35 42 53 53 51 52 51 51 52 56
44 80 96 100 70 50 37 36 42 46 46 33 42 46 47 46 48 49 53 52 53 50 43 33 26 26 27 27 27 29 29 28 28 30 44 52 56 46 55 54 55 53 55 58
53 75 91 95 94 81 53 32 34 36 64 48 53 59 61 58 84 63 53 50 42 31 26 24 24 23 25 27 28 29 28 29 30 45 54 53 59 70 79 85 63 56 54 54
94 95 98 91 95 73 36 34 36 64 75 62 60 62 68 74 73 60 50 39 27 24 23 24 23 24 26 27 27 29 29 30 34 47 53 56 63 78 81 74 54 55 58 71
83 93 96 90 95 88 35 36 72 64 63 64 66 68 73 73 57 43 34 29 25 23 21 18 22 24 27 25 28 29 30 36 43 47 52 63 82 80 55 59 59 58 60 79
63 68 74 68 72 46 40 46 52 60 64 76 66 68 66 57 40 35 31 28 25 21 19 20 22 27 27 26 27 32 40 43 49 54 58 62 62 54 54 57 58 59 66 85
36 29 74 69 45 37 41 46 58 60 65 61 65 61 56 42 40 32 30 27 24 21 22 23 27 28 31 30 33 42 46 49 53 57 56 54 55 55 54 50 53 62 85 90
55 43 51 59 43 44 43 56 61 61 66 67 58 44 38 35 33 31 27 26 26 25 27 29 31 32 34 35 44 46 46 56 56 61 61 68 72 70 65 55 67 79 86 84
47 51 74 80 53 62 65 67 64 79 74 59 40 37 33 31 27 26 29 30 28 31 31 30 33 38 39 45 49 50 50 57 70 76 73 76 77 79 72 66 66 73 77 67

GFSCGP_sfc_rhum_021.txt.gz
RH
21 26 30 25 21 16 16 18 23 23 17 20 21 16 22 22 21 22 28 38 39 43 42 41 44 50 56 46 45 51 56 56 54 52 55 58 58 56 55 54 50 58 56 58
25 31 20 18 18 20 17 22 30 22 19 21 23 22 25 22 24 24 34 37 41 43 42 44 51 59 60 51 49 48 48 49 51 55 57 60 62 59 60 60 58 60 58 59
29 23 18 17 25 24 28 32 31 30 23 25 26 28 26 23 24 26 30 33 35 42 47 47 49 58 56 56 50 47 49 50 55 55 59 59 60 62 61 59 58 57 58 54
26 20 19 21 26 25 36 31 30 28 32 39 26 38 34 27 29 29 31 37 38 40 44 47 53 58 58 62 57 50 48 49 54 55 59 62 68 66 68 67 67 60 57 55
30 26 30 31 28 25 35 34 33 34 38 42 34 37 35 28 34 34 38 38 42 44 46 50 54 54 57 57 57 53 50 50 54 56 60 66 67 69 68 71 66 64 61 61
26 24 28 29 25 27 25 35 36 39 41 68 49 42 48 35 32 36 37 37 39 43 44 44 48 50 56 58 57 57 54 51 56 54 61 70 69 67 71 69 71 69 69 69
28 30 30 27 34 33 34 45 78 77 87 79 48 43 59 39 31 33 40 47 48 47 47 46 46 46 51 55 58 54 55 51 57 61 67 66 68 70 71 70 71 69 74 72
45 52 32 28 33 38 40 42 80 76 87 72 42 49 49 36 35 35 37 42 41 42 42 43 42 44 51 55 57 57 52 49 56 60 63 66 65 73 70 66 68 70 78 78
51 43 30 28 28 31 39 48 36 67 79 85 52 44 36 36 32 32 35 38 44 42 40 40 48 53 53 56 58 59 54 51 53 61 62 61 63 66 65 64 72 80 76 61
36 48 31 29 30 32 34 30 60 70 72 68 47 54 64 46 46 42 36 36 36 42 45 50 53 56 57 57 60 56 52 50 51 54 56 58 57 58 63 75 73 73 72 71
41 49 44 33 36 39 42 47 44 43 68 80 84 56 36 47 52 49 40 42 48 52 54 56 56 55 53 54 54 55 48 49 52 53 54 53 54 57 70 72 72 69 71 70
42 52 66 43 34 31 35 42 44 79 63 84 86 64 36 50 42 43 41 47 51 50 51 55 55 54 54 54 51 48 50 50 52 48 48 48 52 55 66 68 68 67 68 65
52 53 77 58 50 39 36 33 34 64 78 66 80 63 32 35 47 44 46 50 48 50 55 55 55 57 54 49 45 46 47 53 48 44 47 47 50 57 63 64 68 63 64 62
61 43 57 73 46 36 42 32 30 53 89 80 76 56 40 53 56 51 55 53 53 53 57 60 62 60 52 46 44 42 44 50 48 45 47 48 54 57 61 62 62 61 60 57
53 63 58 49 39 35 36 37 36 38 43 61 54 49 57 60 61 60 56 54 55 58 58 59 60 61 50 44 45 43 44 47 52 50 51 54 57 58 61 65 71 65 59 56
56 83 75 70 50 48 51 46 46 39 41 44 44 53 54 56 55 55 58 59 63 62 60 59 55 47 45 39 38 37 42 48 52 51 52 55 67 64 69 76 68 76 58 51
74 81 87 88 74 81 81 64 42 41 42 45 62 57 58 62 59 66 72 66 65 66 64 58 54 50 43 39 37 43 41 42 44 40 53 58 67 72 76 79 81 71 53 56
78 87 98 92 84 59 56 40 43 47 44 43 51 60 60 65 65 71 67 71 70 64 59 58 57 53 37 39 41 41 38 40 42 47 60 65 69 74 81 83 81 68 59 56
68 91 95 96 95 64 50 48 54 60 60 62 70 66 67 67 62 76 63 67 69 64 59 50 37 36 38 39 38 38 38 39 38 65 70 75 84 89 91 93 98 88 69 70
78 85 88 98 91 83 65 49 44 51 85 72 70 79 79 73 95 87 67 61 62 39 33 34 33 32 36 37 36 39 39 42 57 62 61 67 73 86 88 92 86 80 68 78
96 93 95 98 95 85 62 46 46 76 74 82 77 81 84 88 88 77 67 60 37 33 31 31 30 34 36 35 37 40 44 56 55 58 63 69 87 92 92 92 89 71 74 88
87 96 97 91 90 94 52 49 64 70 80 81 80 84 82 84 81 71 45 37 34 32 27 28 34 37 37 34 40 46 56 54 58 63 66 69 76 78 73 73 71 72 86 86
79 83 92 81 83 62 54 58 69 71 84 83 83 78 79 78 68 48 42 40 35 30 32 32 38 40 38 42 50 57 59 60 67 70 72 71 68 62 63 69 74 81 85 94
57 58 85 78 63 56 68 76 76 78 79 77 73 74 70 72 51 45 42 38 37 36 36 39 39 42 48 48 54 61 60 66 70 75 77 75 80 80 76 71 75 87 96 96
68 61 62 76 64 61 74 75 74 80 77 73 67 64 50 46 45 38 41 41 41 40 40 41 46 50 52 59 62 61 60 69 73 78 79 87 87 87 83 77 79 93 88 88
69 66 84 87 70 75 89 82 78 82 77 70 65 46 42 37 40 40 42 44 45 47 49 49 52 58 68 68 69 64 67 72 78 82 85 93 93 95 90 89 89 79 80 74

GFSCGP_sfc_rhum_024.txt.gz
RH
26 26 29 22 22 19 18 26 26 28 22 20 22 26 27 27 28 45 51 54 53 53 51 53 59 58 53 52 56 69 70 67 66 72 70 64 68 63 63 60 62 56 53 55
28 31 22 19 23 28 26 29 30 25 22 21 26 27 28 31 44 48 51 53 54 55 53 54 64 71 72 62 64 60 63 57 57 62 66 64 67 67 68 64 58 56 54 57
32 23 20 26 29 29 39 36 38 33 30 29 26 31 38 39 40 42 46 49 51 54 57 55 55 73 78 68 66 54 55 56 59 60 61 64 66 68 70 70 65 58 59 61
27 21 25 31 30 33 47 35 33 33 37 34 29 44 34 41 42 42 44 54 57 52 55 54 59 62 61 63 60 57 55 58 57 59 62 63 68 70 75 75 70 66 67 66
34 34 34 34 34 31 37 36 38 39 42 47 41 43 39 40 48 48 51 52 55 59 57 60 57 59 60 58 59 60 57 57 61 66 70 74 75 75 76 73 67 65 68 66
29 30 31 34 31 31 31 40 47 46 50 67 51 48 48 47 44 45 45 50 53 58 61 59 60 60 63 67 66 64 60 63 64 68 70 71 71 74 71 69 71 72 76 77
34 37 32 31 38 34 33 54 75 76 83 75 54 60 61 47 40 41 52 55 54 54 57 61 60 62 64 67 66 62 58 64 66 70 70 71 72 69 66 67 68 70 78 80
50 55 37 30 38 41 44 49 78 73 77 68 43 61 56 48 43 46 46 48 45 48 52 57 58 63 62 62 65 62 58 61 66 69 67 69 71 74 70 68 72 82 80 78
53 47 36 33 33 38 44 48 42 67 81 82 62 53 42 41 43 42 42 40 49 53 57 61 60 62 63 65 63 57 53 60 60 59 64 64 70 70 71 72 80 80 77 69
44 51 38 32 33 34 32 35 58 71 66 67 54 62 66 55 51 45 44 51 56 54 55 60 60 60 60 58 63 62 58 55 58 60 60 56 58 65 72 80 78 77 75 73
48 49 46 42 40 44 43 50 50 50 72 77 84 59 43 52 56 52 56 57 58 59 61 61 59 55 56 58 53 56 54 54 56 54 55 56 56 59 76 76 76 75 73 74
49 56 68 50 36 34 38 47 51 75 55 86 85 62 46 50 50 49 54 54 55 53 57 61 59 59 56 52 50 53 51 53 55 54 52 53 55 56 74 76 77 77 72 69
49 55 76 61 53 44 41 41 54 64 78 65 77 63 43 52 57 54 59 57 60 64 64 62 64 63 59 53 50 46 48 51 57 54 53 51 52 56 66 72 74 76 76 70
62 55 58 71 57 45 41 38 50 60 85 76 73 55 52 62 64 65 63 63 69 69 66 65 64 63 60 51 48 47 46 52 57 58 55 58 63 62 67 70 69 75 83 83
56 65 63 53 47 44 43 44 45 43 52 65 55 59 68 71 71 67 63 67 67 66 63 61 61 62 55 49 44 44 49 53 54 51 59 67 69 68 66 69 75 86 86 78
67 79 71 58 62 61 52 47 53 52 46 47 60 75 65 66 64 68 69 68 65 63 64 64 61 56 54 51 45 45 45 46 49 51 62 67 71 74 81 85 88 90 89 85
76 80 77 69 80 73 75 59 50 47 50 50 61 63 68 70 71 80 77 70 69 72 69 63 61 61 60 44 43 43 42 44 47 62 69 76 80 79 82 86 90 87 93 94
81 94 94 81 75 48 47 48 43 50 55 66 67 70 67 70 79 79 74 74 74 69 62 60 56 48 44 42 41 42 40 43 60 73 75 80 85 86 90 95 92 97 98 97
72 90 99 76 89 54 52 52 54 53 61 69 71 73 73 76 76 82 67 68 76 71 62 47 40 40 41 39 40 41 44 53 64 67 68 75 80 88 95 93 90 98 92 79
81 81 80 99 69 61 51 56 49 50 82 74 76 82 80 76 90 83 73 66 65 50 38 33 33 37 38 38 39 44 52 61 65 66 67 72 83 89 95 95 94 91 81 82
97 96 96 100 94 81 58 54 50 76 66 82 80 84 85 84 82 77 78 66 45 36 31 35 38 39 40 41 48 56 62 64 62 64 68 69 75 86 87 92 92 86 91 88
88 95 98 98 98 81 58 58 64 67 84 83 87 84 85 84 84 81 49 42 36 31 33 35 42 43 46 50 56 62 64 60 65 70 72 73 76 73 68 81 82 84 87 86
67 71 84 78 80 60 60 60 64 78 85 84 84 82 78 80 78 48 48 41 38 38 40 40 45 48 50 55 60 63 63 65 72 76 80 82 81 77 76 76 83 87 87 95
63 68 90 79 62 65 62 86 83 84 85 80 76 76 76 75 55 48 44 45 45 43 45 46 50 53 58 62 62 67 68 69 76 80 81 85 81 83 83 76 80 85 97 97
66 68 70 82 70 82 82 85 82 82 80 75 68 66 63 51 46 45 45 48 48 49 51 53 60 65 67 72 75 75 73 75 78 79 80 83 89 89 89 78 84 92 88 91
75 64 84 86 63 66 83 85 82 84 78 70 68 49 44 44 44 44 52 55 56 61 61 65 70 72 75 77 79 80 80 77 80 81 84 91 96 96 92 91 88 78 82 82

GFSCGP_sfc_rhum_027.txt.gz
RH
29 28 31 27 29 24 24 31 30 30 24 22 26 29 39 38 54 70 70 66 65 65 66 66 62 61 68 76 74 78 76 74 81 83 82 72 83 74 71 60 63 63 58 59
28 34 29 25 34 28 29 30 33 31 27 24 30 40 53 55 64 66 64 63 63 66 62 61 69 76 76 76 77 63 61 58 61 64 71 67 73 75 71 68 66 62 63 63
32 28 26 27 33 35 42 39 40 34 31 29 33 40 53 52 56 55 60 62 58 59 62 67 71 82 81 68 61 56 57 57 60 64 66 68 69 74 73 71 68 68 67 68
28 32 30 33 31 39 47 39 35 34 34 35 32 54 51 50 54 57 62 70 66 61 67 66 72 74 69 66 63 61 61 61 61 63 64 63 66 75 80 75 72 70 69 73
38 38 36 34 36 34 38 40 39 40 46 50 50 52 54 51 61 61 64 66 66 64 60 66 63 60 61 64 68 66 65 66 68 68 70 77 75 75 75 72 67 67 71 73
35 35 33 37 35 35 34 43 50 58 54 68 58 50 56 56 56 58 59 60 58 61 61 63 64 63 66 68 71 68 70 71 71 70 70 72 74 74 71 71 70 73 78 79
39 39 36 36 42 39 40 54 75 78 82 77 52 60 59 49 48 52 60 61 62 65 68 69 62 62 62 69 72 66 68 70 71 72 73 73 73 70 67 66 71 72 80 82
53 54 40 33 40 42 48 50 78 66 76 69 51 68 60 58 50 50 52 55 58 59 58 63 68 68 66 66 68 66 66 68 71 70 71 72 70 72 70 69 75 78 83 80
54 49 38 35 36 40 49 52 47 74 84 84 69 60 47 55 54 52 52 51 56 62 68 67 67 68 66 63 61 62 64 70 70 68 70 71 76 76 77 75 78 84 84 74
47 54 41 34 38 38 35 40 61 72 65 67 60 69 70 57 58 53 58 64 66 67 66 67 66 65 62 60 62 63 64 61 60 60 62 60 64 70 76 79 81 83 82 79
50 47 45 46 43 48 45 50 55 57 75 76 82 63 46 56 58 58 67 66 66 66 68 67 61 56 55 53 55 60 59 57 59 61 61 64 64 64 70 81 83 82 82 79
54 58 71 52 40 42 44 51 50 67 54 87 83 62 46 59 57 59 60 62 68 69 65 63 58 55 51 54 52 58 55 56 58 62 63 61 62 61 65 78 81 84 83 75
49 58 74 58 51 43 48 47 63 66 76 68 78 61 53 59 61 64 67 68 71 70 69 64 64 63 60 55 50 49 52 54 60 62 60 62 67 70 72 72 75 79 81 83
58 62 57 64 55 52 44 42 59 59 82 73 71 55 59 70 69 68 68 72 75 73 67 67 65 62 55 49 52 49 52 59 56 55 62 67 71 72 73 73 74 77 82 91
55 62 65 58 57 48 44 43 50 52 56 61 56 62 54 72 74 72 70 74 73 70 64 63 63 57 59 61 50 48 49 50 52 58 65 74 76 77 80 83 84 87 93 90
71 77 64 64 68 65 55 45 47 49 51 58 57 70 70 72 71 73 74 74 71 62 62 60 62 62 65 48 46 43 43 47 50 61 72 75 77 79 82 86 92 94 90 80
74 79 66 56 80 60 57 49 53 50 50 51 75 65 76 73 71 81 82 75 72 70 69 68 67 63 48 45 43 42 44 48 52 71 73 77 84 86 89 94 95 90 90 94
82 93 87 74 74 50 42 51 49 48 56 66 74 77 69 72 80 80 78 78 77 73 66 62 48 46 46 44 42 45 45 48 71 73 74 78 82 86 91 96 87 91 92 97
76 91 97 80 78 49 41 56 57 56 56 70 73 76 75 84 82 84 74 72 72 70 65 46 42 43 43 39 40 45 48 63 66 68 70 74 80 88 91 95 95 96 97 88
78 77 76 97 65 54 44 59 53 52 74 75 74 81 82 88 96 83 76 71 67 46 39 35 39 40 41 42 46 50 61 65 67 68 70 75 77 85 91 91 95 92 86 82
97 96 90 100 85 72 52 56 54 63 56 84 77 79 87 90 83 73 74 70 47 35 34 40 42 44 47 49 54 61 65 66 64 68 72 73 76 82 82 89 92 90 92 86
94 97 98 98 97 73 55 60 65 64 80 83 84 85 83 76 77 78 65 44 35 36 39 43 48 50 52 54 60 64 68 63 67 73 75 78 83 78 70 82 87 85 85 85
76 70 83 77 77 58 60 68 66 75 83 87 86 85 80 84 79 63 47 42 42 43 45 46 52 56 57 60 65 70 70 71 74 79 80 83 77 81 80 78 87 86 85 95
72 67 86 75 57 65 62 71 83 82 83 85 81 80 79 78 58 50 47 49 47 48 52 54 59 66 69 67 72 78 79 79 82 79 78 82 81 81 86 77 78 84 97 97
73 75 74 84 71 81 78 81 83 86 83 81 78 79 78 64 52 49 50 52 52 57 59 63 71 76 76 79 82 82 84 79 76 75 76 81 83 84 90 78 85 91 89 92
76 72 85 81 65 72 67 82 84 87 83 78 70 51 46 47 48 49 56 59 61 64 68 76 78 81 86 85 86 86 85 87 86 90 86 90 90 96 94 90 87 78 84 84

GFSCGP_sfc_rhum_030.txt.gz
RH
29 29 29 25 25 22 24 28 28 32 27 26 54 66 66 57 65 78 80 80 80 78 74 75 77 79 79 90 90 92 86 86 88 83 80 80 84 76 72 67 65 59 60 68
30 33 28 34 33 31 30 32 36 34 30 31 56 58 68 69 77 80 79 80 78 73 73 74 76 81 83 89 87 84 82 86 72 74 75 73 77 76 72 70 70 67 71 72
32 32 30 33 37 36 44 38 42 36 34 33 40 48 65 59 68 68 71 71 68 70 75 76 82 84 84 83 65 60 61 61 66 72 71 79 79 80 72 71 71 71 72 74
35 36 32 33 34 41 43 42 38 37 35 43 38 46 63 65 71 73 72 74 72 70 77 79 76 69 66 69 67 65 65 66 65 68 69 72 73 80 81 75 74 71 72 75
42 40 36 35 39 36 42 40 41 44 48 52 54 55 63 65 76 74 76 73 74 76 77 71 72 69 69 68 68 73 70 68 68 68 70 78 79 80 79 76 71 74 75 76
41 38 37 39 39 36 38 47 52 60 57 69 66 52 59 69 65 68 68 72 71 77 75 68 67 67 71 71 64 67 66 71 73 73 74 73 74 75 75 74 75 75 79 80
42 42 39 39 43 42 46 55 76 79 81 77 58 59 54 52 56 60 66 71 70 72 73 73 70 68 69 68 65 70 73 74 73 74 74 75 74 71 68 68 74 74 78 84
54 53 42 35 43 46 51 52 78 64 83 74 57 70 58 61 50 55 60 64 68 73 72 72 69 72 75 71 71 69 69 74 74 74 73 73 72 76 75 71 75 78 79 80
55 51 42 38 39 42 52 56 51 76 85 85 74 64 58 61 64 61 61 62 68 68 68 71 73 74 74 70 67 70 68 74 72 68 69 73 77 80 81 79 83 85 83 77
49 55 44 38 40 40 41 45 60 72 64 64 64 71 73 69 67 62 64 65 65 72 74 74 72 71 69 65 62 68 70 68 68 70 73 68 70 70 73 80 82 83 87 86
51 48 48 47 47 50 49 53 59 62 74 73 81 72 56 61 61 63 65 67 73 75 75 71 66 62 59 52 54 63 63 59 61 65 68 69 69 68 70 74 80 85 87 84
57 58 69 54 45 50 48 50 49 64 51 88 83 63 54 61 59 61 67 70 75 77 72 69 64 58 56 53 56 58 53 53 60 69 65 61 66 69 70 73 76 82 87 86
48 60 74 53 44 45 50 56 62 64 75 71 79 57 59 65 66 68 74 78 77 75 71 68 67 62 54 53 56 48 53 60 59 56 59 66 69 73 77 78 79 79 82 87
58 62 58 60 50 54 49 56 60 55 79 70 72 52 60 71 67 73 76 80 79 76 69 69 66 57 60 52 48 51 54 56 52 56 64 72 78 79 81 80 80 87 91 94
52 60 65 67 65 54 45 45 61 54 55 56 53 61 49 62 72 75 77 80 78 74 69 66 66 64 56 61 50 47 48 50 53 54 68 77 78 79 81 84 90 94 95 92
69 74 59 76 72 67 58 49 50 54 54 61 62 57 54 80 77 79 78 80 77 72 67 63 61 61 63 48 47 45 44 48 54 56 75 77 80 82 86 91 96 93 92 88
71 77 69 67 78 59 57 53 51 54 58 53 63 55 82 82 79 83 85 81 78 74 68 62 61 55 49 45 44 43 45 51 55 74 74 75 81 87 88 93 95 88 95 96
78 79 80 73 72 55 41 52 53 52 52 54 66 71 78 79 82 81 83 82 82 77 66 62 52 48 47 46 44 48 48 51 72 72 71 71 80 84 89 92 87 91 93 87
72 83 95 75 76 46 33 50 61 58 53 64 64 80 80 86 81 82 80 79 78 73 70 56 44 48 46 42 43 48 52 67 66 67 70 74 82 84 88 90 91 95 97 96
75 74 74 95 64 53 42 50 56 52 72 62 69 81 86 83 93 78 79 74 70 69 44 37 43 42 43 44 50 51 57 65 68 70 72 77 78 81 86 88 91 95 95 86
98 98 86 100 81 67 49 56 56 63 59 82 74 81 91 86 82 74 79 74 62 41 36 40 42 45 48 51 55 60 66 70 68 71 76 77 79 85 81 84 91 92 92 86
92 97 98 96 96 73 54 60 64 64 74 81 81 83 80 83 80 84 77 48 38 37 41 44 48 52 54 59 64 67 74 70 73 77 81 80 82 83 76 80 86 85 88 86
77 73 85 76 77 57 56 70 68 68 68 83 84 83 78 81 85 64 50 44 42 41 45 49 53 59 64 65 70 76 78 80 84 86 84 76 76 76 78 86 85 88 87 95
76 68 83 74 56 66 66 63 74 74 78 83 84 84 81 82 71 52 55 63 49 47 52 55 62 69 74 76 79 85 86 87 87 83 83 76 80 81 84 79 78 85 98 98
76 74 73 81 71 74 68 77 69 82 84 86 83 82 80 66 62 71 67 52 49 54 59 64 74 79 79 87 87 86 87 90 87 84 81 81 88 88 84 85 84 87 90 92
77 72 84 78 57 63 62 73 85 86 87 84 80 76 66 72 68 52 54 56 59 62 67 75 76 82 89 92 90 90 90 93 94 95 90 90 96 98 87 96 92 79 85 83

GFSCGP_sfc_rhum_033.txt.gz
RH
26 21 21 20 21 16 18 20 20 20 20 37 49 53 51 46 52 57 57 57 59 61 65 70 77 85 86 87 81 80 94 98 94 88 71 55 58 51 50 45 49 51 51 51
25 29 23 30 23 26 25 26 27 26 26 32 44 50 56 55 60 58 57 61 61 66 69 72 72 78 80 89 94 90 82 79 63 50 51 49 49 49 48 48 51 50 53 50
31 24 27 31 30 30 33 31 31 27 26 29 32 35 51 55 60 62 63 61 63 68 68 69 74 78 83 84 79 68 63 59 54 53 54 53 53 52 48 48 45 49 53 49
32 30 28 29 32 30 36 30 30 28 25 27 29 25 43 55 64 66 64 64 65 63 63 62 63 63 61 60 59 56 54 51 53 57 53 55 48 50 51 50 48 46 54 52
34 34 31 33 32 30 36 36 34 34 36 36 38 28 36 59 64 67 64 61 58 59 58 56 50 49 48 54 54 54 52 52 53 51 54 53 57 55 52 52 54 55 55 58
35 29 30 29 35 32 40 39 43 46 43 46 49 36 33 53 55 63 60 58 56 60 56 51 49 50 50 54 58 60 53 56 57 57 59 59 59 56 51 52 52 51 52 53
37 36 32 34 34 34 37 40 52 59 64 57 47 48 38 40 46 54 58 54 55 57 54 51 52 52 53 53 56 57 52 54 57 58 57 57 56 56 53 51 50 53 50 50
42 41 32 31 32 36 40 41 63 55 64 56 45 51 37 46 40 48 49 49 53 55 55 54 54 54 53 54 54 54 52 55 55 56 53 53 54 53 54 58 56 56 56 56
48 41 31 33 32 32 41 41 42 62 70 63 46 45 40 50 47 49 49 53 52 53 55 55 56 58 58 56 56 58 54 56 58 54 54 59 58 58 58 58 60 58 60 54
45 47 36 32 32 36 34 39 47 53 60 47 41 48 40 53 53 50 52 53 51 53 55 58 57 60 54 52 54 56 56 63 55 52 56 52 52 52 53 55 56 55 55 56
41 44 43 38 37 39 41 44 51 47 53 46 51 32 45 46 49 52 49 49 53 54 57 59 55 53 47 44 46 52 56 47 47 50 53 52 49 51 52 51 53 54 57 53
43 53 58 42 35 38 36 40 43 51 44 65 60 39 36 47 47 50 49 54 56 57 57 52 48 45 42 41 50 54 44 44 48 47 44 46 48 48 50 52 52 54 54 58
47 56 60 44 35 36 39 44 45 52 60 59 81 37 41 52 52 49 50 58 62 60 55 52 49 45 42 46 47 39 45 43 38 36 37 45 50 51 53 52 54 58 62 66
57 53 53 53 40 42 44 51 45 45 60 51 52 35 33 49 53 56 59 62 60 58 56 50 50 46 44 42 40 42 43 40 36 36 40 50 56 55 55 56 60 67 72 71
49 52 50 53 53 46 36 42 50 41 44 50 39 43 33 36 48 53 60 64 63 60 56 53 50 48 46 47 43 39 37 38 38 38 46 57 58 57 59 61 66 73 71 66
58 64 52 60 59 56 50 41 42 49 46 45 45 44 35 44 53 59 63 64 63 60 56 53 51 48 52 46 37 37 35 37 41 42 51 58 58 59 62 63 70 76 72 73
60 68 63 63 60 50 62 48 42 43 43 42 47 36 58 60 61 58 63 64 62 60 57 51 52 53 47 37 38 34 34 39 42 49 58 56 58 58 61 61 66 66 72 73
67 64 68 72 70 56 36 43 40 43 40 41 42 48 53 54 60 61 58 61 64 61 57 56 54 46 38 35 33 37 35 39 47 56 54 53 56 60 59 60 60 64 76 76
59 70 81 77 57 40 26 37 48 54 36 41 42 52 62 66 60 59 63 61 61 60 59 52 39 38 36 32 34 37 39 45 52 51 51 52 59 61 59 60 64 64 70 80
64 66 73 79 64 59 39 33 46 42 58 43 50 66 71 62 74 51 63 65 63 59 52 37 37 34 32 35 39 40 40 49 51 54 53 55 60 60 61 62 61 66 74 80
95 94 86 82 78 60 42 38 46 56 53 60 61 64 72 68 64 60 66 66 56 43 32 36 34 34 37 41 43 45 50 52 53 57 58 58 59 61 62 62 59 62 64 70
78 90 94 90 83 71 46 50 62 56 55 58 65 68 73 68 68 70 66 52 37 32 34 35 39 42 45 46 48 49 53 54 59 60 60 61 62 60 60 61 58 59 65 71
71 68 74 66 67 52 47 58 54 57 57 57 68 65 66 72 70 62 49 37 35 39 47 39 41 48 52 52 54 56 57 63 63 66 62 63 63 62 62 59 59 60 61 68
68 62 72 68 50 55 54 52 55 56 61 58 65 65 69 68 68 48 43 56 61 47 40 45 49 52 56 60 65 66 65 64 68 68 65 63 64 63 69 60 58 60 68 71
66 66 67 68 60 59 54 61 59 58 67 68 69 71 70 68 50 48 67 63 49 48 50 49 56 61 60 67 69 65 66 71 70 70 68 70 69 73 74 65 61 65 68 74
70 66 78 76 54 55 54 55 66 72 71 71 74 71 60 52 63 64 61 54 54 53 54 58 62 62 65 69 70 69 72 75 78 80 75 77 78 79 77 70 65 80 83 84

GFSCGP_sfc_rhum_036.txt.gz
RH
19 17 14 12 12 11 10 14 12 12 15 13 15 18 22 29 32 31 31 33 34 36 41 47 55 55 52 64 69 68 77 97 97 91 79 64 53 49 43 38 42 42 41 38
19 17 18 18 15 15 14 15 18 18 16 17 21 23 27 27 31 31 32 33 35 40 42 53 56 61 66 62 64 74 72 84 72 60 48 40 40 38 37 37 43 41 39 35
17 20 21 17 17 18 20 18 21 18 19 19 21 24 30 35 37 40 40 35 36 39 46 54 60 62 69 70 68 63 61 58 49 42 40 41 42 42 38 38 38 38 39 34
21 21 21 19 20 21 22 21 19 19 19 18 19 17 25 32 33 39 42 44 42 45 49 53 54 60 61 60 57 48 46 42 41 43 38 41 33 36 36 39 38 32 40 37
25 22 21 20 23 22 26 22 20 20 20 22 21 18 20 32 34 35 40 44 48 49 49 45 40 42 43 50 50 44 42 39 41 41 41 42 42 42 40 40 40 38 37 40
23 21 21 22 25 22 27 27 27 26 24 30 21 24 13 16 24 35 40 47 49 46 43 36 32 34 36 39 44 45 40 39 41 42 45 46 47 42 37 34 33 30 32 34
24 25 23 24 26 27 25 24 29 37 40 34 33 29 16 25 28 33 43 46 45 43 39 34 34 35 39 44 46 43 39 42 44 45 44 44 40 37 35 36 35 41 36 37
23 32 23 24 25 22 25 23 31 28 35 30 33 32 23 30 28 32 35 39 40 39 36 33 35 36 38 41 42 40 38 40 41 43 42 40 39 34 34 39 41 41 40 39
27 28 24 26 25 24 30 28 30 42 57 50 24 27 25 32 31 34 37 38 38 34 34 34 37 39 40 41 45 45 40 39 45 51 47 46 41 41 40 42 40 36 37 30
30 33 26 27 24 27 28 26 35 36 47 31 20 23 16 34 34 35 39 39 34 32 34 36 38 44 43 41 46 47 42 42 53 50 44 38 39 38 36 36 36 36 35 35
26 27 34 30 27 25 33 32 31 27 36 29 27 15 25 26 29 33 36 35 33 33 36 38 40 43 42 39 38 40 44 46 46 41 42 40 34 34 34 34 35 36 39 38
32 32 43 31 28 28 27 28 27 32 32 45 45 21 21 28 31 31 31 32 31 35 37 40 42 42 38 35 34 41 43 39 40 38 34 32 30 30 33 34 35 40 42 42
32 37 44 38 31 30 30 29 26 32 39 38 63 21 21 27 30 30 32 32 36 40 41 41 41 38 35 35 38 41 42 40 30 26 25 27 31 32 34 36 40 42 43 45
44 36 34 36 28 27 35 33 28 27 39 27 30 15 18 23 27 28 32 34 38 42 42 39 38 36 34 36 39 37 37 32 27 24 23 28 35 37 38 41 43 44 46 49
36 38 37 33 33 31 27 27 30 27 24 36 20 19 12 15 18 22 30 35 39 42 42 40 38 36 33 34 33 31 32 30 27 25 26 31 39 41 41 46 45 47 52 50
40 44 43 45 40 37 36 28 25 27 24 26 23 24 16 18 22 28 37 40 42 42 41 40 38 36 34 34 34 32 29 28 27 28 30 35 44 42 45 46 48 50 51 49
44 52 47 40 41 39 73 38 27 24 28 29 32 24 21 27 29 28 34 39 40 41 41 40 38 36 35 36 31 30 25 28 30 29 34 41 43 44 44 43 43 44 48 52
51 48 60 65 68 81 19 23 25 27 24 20 22 19 22 23 29 34 31 35 41 41 42 41 37 36 35 29 26 26 24 27 30 34 38 40 42 42 42 43 45 49 52 54
37 48 76 92 42 27 16 22 25 30 20 20 20 20 26 39 42 38 37 37 41 42 41 39 36 34 29 27 25 24 27 28 34 35 36 37 40 42 43 45 51 51 48 50
43 47 58 72 89 90 30 31 35 33 35 25 30 32 42 42 51 22 39 43 42 40 39 39 33 29 28 25 27 28 28 32 33 38 37 38 40 43 45 49 52 50 48 50
84 86 90 75 91 48 26 25 36 43 35 33 38 37 43 46 32 42 39 45 41 42 38 31 31 29 26 30 31 31 31 34 35 40 41 39 38 44 48 51 49 48 48 54
61 80 93 80 98 80 31 39 48 40 37 36 40 40 48 42 50 48 47 47 43 35 30 26 30 37 37 33 34 29 34 35 40 43 42 41 43 47 46 50 49 49 50 56
55 48 52 47 45 34 34 38 36 41 43 41 43 38 47 50 49 49 49 44 34 28 26 35 41 45 39 36 35 35 32 44 47 46 45 46 48 48 46 47 51 51 48 55
46 45 54 52 31 33 33 32 32 32 39 38 36 39 43 47 48 47 41 36 34 44 43 41 45 37 42 44 45 42 46 46 48 49 48 49 51 49 46 46 50 51 56 63
46 48 46 50 36 32 31 34 41 43 44 45 44 51 51 50 52 42 40 50 48 49 62 49 39 37 35 42 47 45 45 49 50 52 51 55 55 54 50 47 51 57 56 63
44 48 60 58 46 49 43 44 48 53 51 52 54 57 54 52 44 46 57 52 64 74 54 38 40 47 45 51 46 46 47 53 60 62 58 59 60 60 57 54 53 74 79 81

GFSCGP_sfc_rhum_039.txt.gz
RH
19 19 18 14 13 11 10 9 8 8 7 10 9 12 15 18 18 21 23 24 24 25 24 32 34 32 30 44 58 62 71 71 76 72 70 77 66 52 47 42 42 43 40 36
17 19 13 10 10 10 9 13 13 11 9 11 9 11 13 16 17 17 20 23 25 25 32 36 41 40 40 51 62 69 66 67 59 47 52 52 47 42 38 38 42 39 38 34
24 18 15 12 11 12 12 15 20 14 13 10 12 14 17 17 18 19 19 20 22 27 34 38 43 50 54 59 60 57 58 54 50 50 40 38 37 39 38 38 40 38 36 32
29 21 15 13 12 13 18 15 14 14 16 17 13 16 16 19 23 27 28 28 25 28 30 37 44 55 55 55 54 48 45 44 42 39 36 40 34 34 35 35 35 36 38 35
18 16 15 14 16 16 24 17 15 13 13 17 16 13 22 18 21 24 25 30 31 31 36 40 43 50 50 50 48 43 41 36 36 36 35 37 38 38 38 37 41 41 36 34
31 16 15 17 18 16 19 19 18 16 16 28 16 16 14 17 17 19 24 29 32 36 38 36 39 37 37 41 43 40 36 34 37 38 40 42 43 38 40 38 35 31 28 28
18 17 18 17 19 19 17 20 33 36 31 33 20 19 15 15 20 18 27 30 36 38 37 33 33 32 37 42 43 40 35 36 38 41 42 41 41 41 36 34 32 33 31 32
20 29 18 18 18 20 20 18 31 32 30 24 21 18 18 20 21 22 25 30 35 37 36 31 29 30 34 40 41 38 36 38 40 41 38 38 36 34 32 31 34 34 34 33
28 24 18 19 18 16 21 22 21 28 49 42 16 14 21 22 23 25 28 32 36 35 33 29 28 31 34 37 41 40 38 37 38 38 39 41 48 36 32 35 36 32 34 28
18 28 19 21 20 21 22 19 28 26 39 32 14 14 16 23 23 26 30 34 33 32 30 28 29 34 34 36 41 42 38 38 38 38 41 40 41 34 32 33 33 33 34 33
16 20 29 24 23 17 25 25 23 22 28 35 26 16 14 16 19 24 27 30 32 31 28 29 30 33 35 37 42 42 37 35 38 37 41 48 34 32 31 32 32 32 35 34
20 22 29 23 21 20 20 21 22 38 28 32 42 24 13 16 17 20 23 26 28 28 26 28 31 35 38 39 38 38 36 35 34 36 46 37 31 27 30 31 30 33 36 35
25 24 32 29 26 23 24 20 19 21 30 33 53 25 13 16 16 17 19 22 26 27 26 29 32 36 38 37 36 36 35 34 33 40 30 27 28 30 30 28 32 35 36 37
42 22 25 34 23 21 31 24 21 23 40 32 24 17 14 15 16 14 18 19 22 26 28 30 34 36 35 34 34 34 35 36 38 28 23 23 28 30 30 31 36 38 38 41
31 34 26 22 23 24 22 20 20 22 23 33 22 16 10 9 10 13 14 18 22 28 32 34 35 35 33 34 34 31 36 35 30 25 22 25 28 31 33 38 40 39 42 43
30 37 35 40 27 28 28 22 19 17 19 18 16 15 11 13 11 14 15 18 21 27 32 33 33 32 33 33 33 33 34 31 28 25 27 26 28 33 36 39 42 41 41 40
38 40 45 40 32 30 62 33 22 18 17 19 26 18 13 16 18 18 17 20 23 26 31 33 33 33 33 31 32 34 29 26 28 27 26 27 33 36 36 34 36 37 42 44
44 45 53 54 68 81 18 15 15 21 17 14 14 14 13 13 19 21 19 21 25 27 30 32 32 33 32 31 31 31 28 29 28 27 26 28 33 34 33 34 37 42 45 48
30 42 62 88 41 27 18 13 20 21 18 16 17 15 14 20 27 25 23 24 25 28 30 32 32 32 32 30 27 28 26 24 26 28 26 28 30 32 34 36 40 45 45 46
32 37 50 57 85 89 32 23 23 23 33 19 20 20 20 26 39 27 27 28 30 30 31 33 32 32 29 26 27 26 31 29 26 26 30 28 31 33 34 38 42 45 44 42
73 79 80 65 84 50 23 22 26 40 43 29 26 24 27 30 36 36 28 30 29 30 32 34 33 30 27 25 29 37 31 29 26 31 32 33 32 34 38 42 44 45 44 48
60 76 90 73 97 80 22 26 38 40 28 29 30 28 38 36 37 39 36 34 34 35 34 30 30 27 30 40 38 34 26 25 32 35 37 36 36 36 38 44 46 44 46 53
48 40 50 42 44 29 24 25 25 28 32 31 33 32 33 37 36 36 38 39 36 32 27 25 29 44 48 43 34 30 30 37 37 41 42 40 39 39 40 45 44 44 47 54
34 35 43 39 25 24 24 25 26 29 35 33 34 34 35 38 37 37 40 38 32 26 30 44 62 66 62 44 36 35 44 44 46 46 44 42 44 44 44 42 39 43 58 66
39 37 35 39 29 30 25 33 41 43 41 39 38 41 47 45 42 43 37 34 36 46 69 74 67 52 34 34 42 41 42 45 45 44 45 50 53 53 48 42 42 50 54 64
33 40 56 56 44 53 45 48 50 49 49 48 49 46 41 41 41 39 46 57 82 94 75 55 40 39 38 41 44 42 43 42 49 55 56 61 62 58 53 49 54 65 74 76

GFSCGP_sfc_rhum_042.txt.gz
RH
22 23 26 22 19 16 15 14 14 10 9 11 11 12 11 15 19 24 23 23 22 22 22 29 34 36 44 63 74 74 82 81 84 83 80 76 78 71 67 58 61 63 58 52
33 24 18 19 16 16 12 19 17 9 8 10 11 10 13 13 17 22 24 26 27 26 24 35 38 42 53 65 67 78 78 78 75 62 61 66 65 63 57 57 61 59 55 48
31 24 25 14 14 12 14 28 26 22 11 8 11 10 14 14 15 16 20 23 24 27 33 39 41 47 54 68 75 71 74 74 70 56 60 62 59 60 59 57 61 57 52 46
33 31 25 20 13 12 23 24 20 19 18 18 24 26 17 16 17 17 18 22 24 25 33 36 43 49 56 67 70 68 66 63 60 61 55 58 52 53 53 56 56 53 52 49
45 44 26 22 17 15 28 25 24 15 15 32 30 34 33 19 21 19 23 24 24 26 31 36 43 53 53 67 67 70 60 52 52 52 53 59 57 59 56 59 61 55 62 55
35 26 21 16 15 14 24 25 20 17 22 43 38 42 32 28 33 33 23 26 28 30 31 36 53 55 55 63 65 60 53 48 47 50 54 57 59 56 59 59 62 57 52 50
20 18 15 16 17 17 16 20 42 84 81 48 14 18 19 33 23 21 24 27 30 33 39 41 46 50 52 54 57 55 46 43 49 54 55 56 57 54 54 52 51 50 52 55
22 31 17 15 17 39 30 21 62 63 80 41 20 22 20 20 18 18 22 25 32 39 42 41 43 43 46 52 52 50 44 43 47 55 54 55 52 53 54 54 49 54 54 56
34 34 28 17 14 23 29 24 22 28 59 66 22 12 22 19 21 22 26 30 38 39 39 37 39 42 46 49 54 54 45 43 51 56 56 57 52 50 52 50 47 53 51 39
38 61 39 21 17 17 18 16 32 31 50 46 19 16 33 25 23 23 29 35 38 37 37 36 34 40 41 46 52 57 51 48 50 51 57 52 53 52 49 46 48 46 48 48
34 57 49 23 22 16 24 26 20 18 33 56 55 25 16 17 20 24 29 32 38 38 37 35 32 36 39 43 47 52 48 45 48 48 54 56 52 50 46 46 45 45 47 48
20 25 42 27 17 17 18 22 22 62 40 45 62 37 15 18 17 20 23 27 33 34 34 32 32 37 39 44 47 51 51 47 47 49 51 54 51 46 46 45 44 45 48 50
23 30 45 28 22 20 22 18 17 22 39 45 77 38 14 14 14 16 20 22 28 33 31 31 33 36 40 45 49 49 50 47 43 40 44 48 47 40 42 42 42 44 49 50
44 26 27 40 23 21 28 23 18 23 66 49 43 23 14 15 16 15 19 21 22 30 29 29 33 37 42 45 46 46 47 46 41 41 41 44 45 42 43 40 44 49 51 52
30 31 24 18 17 19 24 22 20 21 24 41 34 22 15 14 16 14 18 19 19 20 26 28 34 40 41 44 44 42 44 45 47 42 37 40 41 42 42 46 50 53 55 52
30 40 38 39 27 24 27 22 19 18 19 17 18 20 14 12 16 17 17 15 16 20 24 31 35 36 40 40 40 42 42 46 42 41 40 37 38 39 46 49 54 56 55 53
36 51 57 64 35 35 59 35 25 20 18 20 28 22 16 16 15 20 21 19 21 23 25 31 34 37 39 39 42 43 41 42 39 39 36 36 38 43 48 45 44 48 54 60
43 52 72 79 72 77 25 15 14 18 15 13 14 16 14 22 21 20 20 22 26 28 27 31 35 38 39 39 38 43 35 35 42 39 34 33 40 43 44 44 46 53 58 62
33 56 81 97 60 34 24 17 20 22 22 18 19 18 16 19 23 29 22 27 29 29 30 32 35 38 40 38 38 34 36 37 36 36 35 32 38 40 43 45 53 57 59 63
30 45 78 75 91 87 37 22 19 20 47 24 24 27 26 22 56 43 30 30 28 27 29 33 36 38 38 36 33 36 33 39 37 36 38 39 40 42 44 49 55 59 59 57
80 88 90 79 95 65 26 22 23 52 57 33 31 31 34 40 47 44 37 32 29 30 32 38 38 37 33 32 36 45 50 50 41 41 39 36 38 42 46 53 57 59 60 67
76 87 97 86 100 91 22 24 44 46 38 35 34 37 44 43 41 38 35 36 34 35 35 33 36 44 48 47 51 51 51 38 40 48 51 47 49 47 41 56 60 62 65 73
58 48 66 60 65 36 25 29 28 34 37 40 42 37 38 40 37 36 41 40 37 31 30 30 46 54 57 56 54 55 45 42 50 57 62 57 51 46 45 56 62 66 65 80
33 33 54 48 26 25 24 27 38 40 45 39 38 40 48 52 48 42 42 38 45 55 58 64 70 75 74 56 42 42 50 55 58 59 56 55 55 56 58 56 58 63 85 89
42 37 35 39 32 30 39 47 52 47 47 48 45 46 46 46 46 42 44 56 70 74 73 68 66 56 42 44 51 51 49 51 52 56 53 60 65 70 66 57 60 77 77 86
35 40 69 73 50 55 60 49 46 48 48 47 47 50 50 50 62 76 87 82 76 72 63 56 53 53 54 48 43 44 46 48 55 60 65 83 88 86 76 68 71 70 77 78

GFSCGP_sfc_rhum_045.txt.gz
RH
54 40 41 32 30 21 21 23 21 19 17 23 28 28 28 26 33 36 36 35 35 32 34 36 42 47 64 81 86 87 91 95 96 98 99 98 97 92 80 71 68 70 67 59
47 59 32 22 24 24 24 24 24 21 14 14 17 19 21 23 31 32 34 32 30 33 35 38 44 62 74 83 88 90 87 91 94 93 89 86 84 78 72 70 70 68 66 57
56 44 32 23 27 26 34 36 34 34 31 20 17 20 19 20 23 30 30 30 30 32 38 43 49 74 84 85 91 90 86 86 87 85 79 84 78 78 78 75 76 68 56 51
40 32 31 30 31 25 37 25 29 27 35 40 29 41 33 22 20 25 31 32 36 42 46 43 53 81 82 89 90 86 82 85 84 70 78 81 76 74 74 73 74 62 58 55
45 43 36 37 31 24 30 28 28 32 32 36 38 47 36 31 25 24 30 34 35 36 47 48 55 77 79 86 89 84 81 83 78 70 70 70 74 71 73 73 67 65 58 56
30 31 33 35 28 27 27 32 33 50 51 54 34 38 48 29 27 31 26 27 36 49 46 49 54 64 78 84 85 84 81 75 71 69 67 67 69 68 66 64 64 65 65 63
32 25 30 28 37 30 30 37 63 74 83 74 35 39 43 31 24 32 28 25 45 46 58 66 68 68 73 79 85 88 86 65 61 64 66 69 64 64 66 64 61 58 63 67
42 46 37 32 30 34 33 41 64 76 87 72 32 41 36 29 27 28 28 37 42 55 62 72 70 70 73 76 81 72 57 50 56 64 68 67 57 62 60 60 57 60 59 58
53 48 40 29 33 29 46 52 38 61 77 83 45 26 31 30 31 36 37 43 59 60 59 64 65 65 67 72 68 58 52 57 64 68 67 63 61 61 59 56 54 56 55 48
47 58 52 39 37 27 33 28 46 53 50 54 40 37 51 39 36 38 43 56 57 56 54 59 60 65 65 65 66 64 61 64 70 65 62 59 61 58 54 55 52 52 53 50
48 50 59 46 47 35 34 37 36 34 58 66 76 46 29 32 33 39 47 52 56 55 55 54 56 56 58 63 64 64 66 62 56 58 62 64 60 56 54 51 53 50 52 51
42 59 76 54 39 28 24 32 45 70 47 61 77 53 24 26 30 32 38 45 50 48 52 50 48 51 57 59 62 68 63 52 54 57 59 55 55 56 49 49 53 52 51 52
40 46 73 54 40 35 32 30 27 37 63 55 74 55 22 19 20 25 31 41 47 49 51 47 46 49 52 55 56 58 56 54 50 49 52 62 61 54 50 50 50 54 55 54
47 41 48 57 37 33 39 33 30 36 76 59 57 44 30 25 23 22 23 25 45 47 44 44 42 44 46 51 55 57 54 51 52 49 52 54 56 51 46 49 52 58 56 54
42 46 42 33 33 33 32 35 33 30 41 55 46 39 31 28 25 25 28 30 26 31 42 44 48 62 69 68 70 55 56 50 50 49 49 54 55 51 50 54 55 58 57 51
43 55 50 57 40 36 42 34 33 31 29 32 33 34 27 26 24 25 23 22 26 30 32 45 59 60 62 63 58 53 49 52 51 52 51 48 51 50 56 55 56 56 57 57
56 60 74 75 48 44 58 41 33 34 32 33 41 36 32 31 30 32 31 33 31 34 36 41 49 56 61 55 53 50 50 53 53 46 44 48 51 50 52 48 48 49 54 59
64 65 82 83 74 62 43 26 20 26 28 28 26 28 32 31 37 37 40 40 39 39 39 42 47 51 56 59 51 51 45 43 45 44 46 50 50 47 47 49 50 56 61 65
60 79 87 76 82 56 37 30 35 35 41 34 37 35 33 31 42 52 41 39 40 40 43 49 54 54 51 45 42 39 41 41 45 45 44 48 54 53 52 53 64 64 62 67
55 71 74 90 84 74 56 31 30 30 66 44 42 46 51 46 79 71 51 46 47 47 47 48 42 40 42 45 42 48 46 46 50 51 49 49 53 54 59 62 64 64 63 63
90 85 85 97 94 80 44 32 37 51 65 51 46 50 52 64 67 56 49 50 43 43 49 53 56 59 58 55 55 57 54 51 49 53 56 57 58 57 58 62 61 59 64 69
77 95 95 97 98 85 33 35 51 64 54 54 52 56 57 57 53 53 52 44 42 51 55 57 63 64 59 54 54 53 53 50 54 59 60 62 63 63 57 62 62 66 70 79
82 82 88 78 84 62 44 60 60 61 61 60 62 65 65 67 64 56 59 66 69 69 73 71 74 69 56 50 50 59 53 52 62 64 72 74 70 62 56 65 70 76 77 88
56 46 69 56 52 44 64 60 59 62 67 60 58 59 61 63 55 63 74 78 80 82 84 77 73 68 65 53 47 57 61 64 70 72 73 72 71 70 70 71 74 81 94 96
66 50 53 56 66 70 64 65 64 61 61 59 61 64 68 73 76 80 82 80 72 67 65 62 62 60 56 62 62 60 61 64 62 65 69 72 77 80 84 81 80 89 86 91
58 60 76 89 76 74 73 64 60 66 67 63 75 84 81 79 84 80 78 73 71 73 66 65 65 68 66 64 60 57 56 58 66 73 76 91 92 92 89 87 87 80 80 81

GFSCGP_sfc_rhum_048.txt.gz
RH
52 45 50 40 38 30 26 25 27 24 19 36 36 32 31 57 58 61 62 57 52 54 50 47 50 52 55 81 89 89 92 96 95 97 99 99 98 97 88 80 72 73 73 70
43 44 35 36 29 30 31 35 32 24 24 25 33 29 31 45 53 52 51 51 43 46 48 49 54 56 81 88 89 91 90 94 93 92 97 93 93 90 80 77 77 75 66 65
47 34 33 36 29 33 35 37 34 33 32 23 22 24 28 27 38 43 43 41 37 36 47 52 59 76 86 92 94 90 91 90 91 89 88 87 83 83 81 81 79 78 65 60
38 28 33 37 38 33 38 30 31 33 36 35 30 29 36 26 29 37 36 37 35 37 40 54 63 85 91 92 92 88 86 89 91 90 87 79 82 77 81 80 81 73 64 62
42 44 42 40 33 28 38 37 32 34 39 47 44 40 34 29 29 40 37 36 33 37 38 59 73 80 83 94 95 92 87 88 83 88 82 80 84 80 82 83 80 73 67 64
36 40 34 36 34 33 32 35 47 53 53 56 42 42 39 34 26 25 33 36 40 47 51 54 78 81 88 94 96 94 89 88 92 90 81 82 78 79 81 85 77 76 79 73
38 38 39 37 34 32 35 46 64 69 79 65 43 46 41 34 27 28 31 39 48 50 64 70 89 89 95 96 95 94 91 89 87 87 79 80 76 77 74 76 76 75 66 61
45 48 38 37 39 41 39 44 64 57 84 65 45 50 38 32 32 32 31 32 49 60 58 63 82 88 90 92 92 91 89 85 80 79 77 76 72 75 78 70 62 62 63 66
59 52 44 40 38 39 45 49 41 67 82 88 53 33 33 35 35 39 42 44 53 68 69 71 72 82 88 89 90 91 89 77 71 71 69 64 66 67 69 59 59 61 63 60
42 62 54 43 33 34 34 32 52 61 58 60 44 42 52 44 42 46 53 52 69 72 82 85 82 84 86 88 90 78 71 68 68 67 61 59 65 64 57 58 61 60 60 57
46 54 55 54 48 39 39 39 40 43 60 62 72 45 32 41 40 46 49 58 67 68 72 75 76 76 76 74 71 70 65 64 63 60 67 67 66 66 66 62 62 59 63 63
44 62 71 44 37 38 45 48 47 68 44 66 78 49 30 36 37 46 47 55 63 59 60 65 68 70 70 67 65 68 72 69 65 62 68 57 58 64 64 62 63 63 59 58
46 61 75 56 41 43 50 41 36 54 65 60 74 56 27 28 30 34 44 53 57 58 61 59 63 65 65 62 63 71 67 63 58 56 56 62 69 62 66 59 59 62 60 58
47 50 56 64 44 39 46 36 33 43 75 61 60 43 33 29 28 24 30 40 59 56 55 56 55 58 60 61 66 63 62 70 56 60 65 69 69 63 54 60 62 64 60 59
44 47 43 39 37 38 39 38 38 39 45 54 44 45 34 34 28 31 29 32 44 56 57 58 60 64 69 74 77 73 71 70 71 69 65 69 68 59 60 61 62 64 62 58
47 50 49 52 45 38 43 38 38 37 36 39 39 43 39 37 34 35 32 34 37 42 51 53 65 73 71 76 74 71 73 74 68 62 66 67 57 58 65 66 67 64 60 58
55 64 72 65 54 50 66 46 37 37 39 36 44 40 37 43 38 40 47 43 44 48 53 66 71 72 75 77 74 77 70 72 62 57 59 61 60 60 62 57 55 53 54 61
67 72 79 83 72 74 50 37 35 40 39 35 34 38 46 46 52 51 46 46 46 48 51 57 63 71 70 65 63 62 56 55 59 55 55 54 58 59 58 56 58 68 66 67
61 80 85 76 80 60 43 27 33 41 51 45 46 46 41 52 56 57 55 59 59 66 58 55 56 54 54 53 50 48 52 50 53 57 58 61 63 60 59 80 76 72 69 69
65 75 81 92 77 73 56 37 34 40 68 48 52 60 56 54 79 74 64 54 58 56 56 59 57 55 54 52 49 53 57 57 63 62 59 59 63 82 83 72 71 70 68 66
89 90 84 97 84 70 52 35 38 46 53 53 55 57 60 72 72 67 56 59 57 59 59 59 59 63 60 55 52 56 60 66 63 68 72 83 80 69 67 68 69 71 71 74
68 87 93 96 91 68 50 42 46 56 64 60 60 62 74 76 63 56 57 59 62 67 65 61 62 58 54 50 51 56 61 56 62 75 75 69 74 70 67 78 80 78 83 86
72 66 78 75 78 64 67 62 64 64 68 72 77 74 74 66 69 73 80 80 77 77 75 59 52 56 57 56 58 63 63 63 67 70 76 76 75 75 74 79 82 84 84 92
64 68 77 67 75 78 76 72 71 69 70 68 68 68 65 73 77 82 82 83 82 72 69 66 63 62 63 60 61 65 66 68 71 72 73 76 78 78 80 81 85 91 95 96
67 56 67 93 82 73 73 73 68 70 75 78 77 75 77 80 83 81 80 71 67 64 62 60 62 66 67 68 68 66 66 67 68 70 73 78 82 84 86 88 92 91 89 89
62 60 76 89 75 79 80 77 72 75 80 78 81 85 80 78 82 78 80 70 67 71 67 66 71 74 74 62 62 62 64 66 70 74 78 86 90 91 90 90 84 84 84 83

GFSCGP_sfc_rhum_051.txt.gz
RH
54 44 48 45 43 38 40 33 30 28 23 34 40 38 32 63 76 83 89 83 79 81 76 71 71 67 71 84 96 94 96 97 96 97 97 98 98 97 90 83 78 79 72 70
43 46 36 36 40 35 38 34 32 29 26 30 39 39 34 64 73 71 72 74 63 79 74 71 67 68 68 87 94 95 93 96 93 90 98 96 97 96 86 82 79 77 74 72
49 33 36 35 36 36 40 41 37 35 33 31 32 34 36 52 62 62 62 60 53 66 69 67 61 67 72 88 94 93 92 93 92 90 92 93 88 86 83 83 84 82 70 71
44 37 35 43 41 35 44 36 34 38 38 33 31 32 33 38 52 57 58 58 50 57 56 58 60 65 77 79 88 88 91 92 92 87 87 87 86 89 82 82 84 83 72 68
39 42 40 40 34 34 40 39 40 39 43 49 45 42 36 35 46 48 55 53 48 47 53 56 59 60 72 82 95 94 94 93 89 87 85 89 89 84 85 84 82 84 76 72
38 43 38 37 37 35 36 41 46 55 52 57 47 44 45 36 28 29 41 46 45 44 48 52 54 64 77 94 96 96 94 91 91 89 93 89 86 85 85 88 89 85 82 78
40 41 40 42 40 39 37 47 62 68 74 63 46 51 44 34 31 27 33 40 45 44 48 56 68 83 90 94 95 94 93 92 92 94 95 92 86 82 82 81 82 84 77 72
47 52 41 40 41 44 50 45 65 55 75 60 50 60 39 35 37 36 34 44 47 49 52 71 80 85 92 92 92 92 94 91 95 96 94 90 88 81 84 85 80 74 67 67
54 49 52 44 44 36 50 53 44 69 82 87 59 42 33 37 40 44 47 40 53 63 62 76 86 88 94 95 92 93 95 93 94 93 92 92 85 84 84 78 70 72 68 66
45 47 54 49 45 40 38 37 52 62 58 66 47 47 48 42 39 42 57 53 53 73 75 77 87 91 93 93 92 94 94 93 90 90 85 78 76 72 63 67 70 68 79 86
48 43 52 52 46 37 44 45 46 49 60 62 70 52 32 42 40 41 44 53 70 81 90 91 88 91 92 93 95 96 95 92 84 78 73 75 69 65 67 67 66 69 79 79
46 55 65 45 42 43 44 45 50 70 51 70 79 52 31 33 39 47 45 48 71 76 84 86 85 88 93 94 94 93 89 81 75 78 75 70 65 68 68 64 64 78 93 78
49 61 68 49 42 52 56 50 49 58 67 65 75 56 31 31 32 37 48 50 65 71 75 83 87 85 84 84 83 82 78 81 80 73 73 70 71 70 71 73 83 89 75 70
49 60 53 60 44 43 50 44 43 51 77 60 64 46 35 29 35 31 30 43 58 69 68 73 81 82 82 82 82 85 88 88 77 72 70 74 75 79 78 84 74 75 72 62
46 52 50 45 38 36 35 38 45 46 48 55 46 49 40 40 31 31 34 33 45 62 66 68 70 79 81 85 92 89 88 82 78 72 76 82 79 71 70 70 70 69 65 60
50 54 48 64 50 45 45 38 37 39 42 47 45 44 40 43 45 46 43 44 51 59 63 63 68 74 79 88 92 86 84 86 83 81 82 71 65 63 67 70 71 69 64 60
53 65 66 59 57 53 64 50 40 38 40 40 46 39 40 49 49 54 55 52 55 60 66 72 78 79 88 86 82 87 86 83 79 72 65 67 67 68 67 62 61 58 63 76
65 68 74 78 74 70 44 44 39 42 46 41 42 44 50 54 63 64 60 59 66 69 70 73 82 82 85 79 77 70 65 63 64 62 63 64 65 65 62 60 67 86 89 77
65 79 84 76 81 58 50 41 42 41 46 48 50 54 58 60 62 64 66 66 67 64 64 63 62 64 62 61 58 60 64 61 59 63 64 62 64 65 67 81 91 88 74 73
69 76 78 88 78 80 60 44 35 42 64 47 54 55 58 61 70 75 66 65 67 65 64 64 61 56 57 58 57 65 66 66 67 63 62 62 65 80 92 94 82 77 77 76
90 94 86 97 85 74 53 41 39 47 51 56 59 63 65 66 73 74 68 68 66 65 65 62 62 62 61 61 62 69 70 71 67 71 80 92 88 81 73 72 75 78 81 84
77 91 92 93 84 71 51 44 43 51 68 64 65 68 82 76 70 69 70 73 70 68 64 60 61 62 61 58 55 62 69 74 78 76 72 71 71 73 72 82 84 84 87 89
64 70 80 72 74 64 73 55 69 66 62 69 73 80 69 71 76 79 82 79 76 72 64 58 59 58 58 57 58 64 67 69 72 72 76 78 77 78 80 86 87 89 88 92
70 69 82 75 78 88 86 77 76 74 77 76 78 68 70 81 82 85 82 82 81 79 70 57 58 62 66 64 63 66 68 69 71 72 74 78 81 82 83 86 88 93 95 96
68 65 84 93 86 80 78 78 81 83 80 80 78 76 80 81 83 81 82 76 68 63 62 63 67 70 68 62 65 71 73 73 74 75 77 79 82 84 84 83 84 87 90 89
66 70 83 88 76 78 84 81 79 82 84 82 82 85 80 77 80 76 75 72 68 71 67 64 66 66 69 77 88 90 89 89 89 87 88 93 94 93 89 89 87 82 87 85

GFSCGP_sfc_rhum_054.txt.gz
RH
54 46 48 43 44 41 42 43 38 28 26 36 42 45 63 70 72 74 80 85 90 90 76 74 77 83 89 85 94 96 96 98 98 99 99 100 99 98 96 96 88 80 73 71
45 51 39 38 43 39 41 41 40 30 32 34 41 39 40 63 64 65 74 83 83 91 89 82 84 86 84 86 94 96 94 97 96 96 98 96 98 97 94 94 86 80 75 71
52 39 36 40 40 38 41 43 43 38 34 32 38 34 41 49 72 73 73 73 73 80 88 87 83 82 81 86 94 94 94 95 95 94 96 97 96 95 94 89 88 84 77 72
48 41 37 43 40 36 44 38 42 41 42 40 34 35 36 45 67 71 70 76 72 70 78 79 80 78 75 76 91 91 94 95 95 92 88 90 91 96 90 86 86 85 77 76
41 47 43 44 38 36 37 40 45 47 46 51 48 48 38 40 49 63 69 67 66 60 67 76 75 71 70 79 94 93 95 96 95 93 87 92 95 96 95 93 84 88 80 76
40 45 41 37 41 37 37 44 46 55 54 57 47 47 45 40 36 48 54 62 61 58 61 65 67 68 71 92 97 97 96 95 95 93 92 92 93 96 96 92 86 89 84 82
42 43 41 43 44 41 42 48 61 68 73 62 50 54 45 36 34 30 38 48 58 56 55 64 69 71 83 94 97 96 95 95 96 95 93 93 95 91 90 85 83 86 84 82
49 52 41 41 41 41 50 45 65 56 72 55 52 55 39 38 39 40 37 36 50 57 48 56 61 70 83 92 95 94 95 89 95 96 95 96 92 86 87 86 84 83 77 75
54 45 52 48 48 41 54 53 46 69 84 86 58 44 28 41 44 47 44 55 57 58 52 55 59 72 88 92 94 94 92 88 92 95 96 97 96 91 88 90 86 80 75 70
41 45 55 50 48 46 44 42 52 64 60 64 52 48 44 35 39 42 50 57 54 66 69 70 74 84 89 92 92 93 91 90 92 95 95 96 95 90 89 85 80 74 79 83
47 39 49 54 48 40 50 51 51 50 62 61 70 52 37 32 42 41 45 53 57 62 76 79 90 92 93 94 95 94 94 95 96 97 96 96 92 84 81 78 77 83 84 83
48 50 62 48 48 43 44 47 50 70 55 72 80 59 33 30 33 45 42 47 67 76 79 89 92 96 98 96 97 96 95 96 96 95 93 90 84 84 87 84 81 83 86 86
50 55 58 46 45 57 54 54 53 61 68 67 77 57 33 35 34 35 43 45 52 76 83 90 94 95 95 96 96 97 97 98 95 92 90 89 89 84 83 83 82 84 91 87
48 60 47 48 43 45 66 55 56 55 79 64 66 48 37 35 37 35 34 35 46 61 76 86 91 93 93 94 95 96 95 95 94 90 89 89 85 84 79 77 87 88 79 77
45 49 57 47 42 42 41 40 51 50 51 56 48 53 40 41 43 37 38 36 41 54 71 76 80 88 90 93 96 96 96 93 90 88 88 90 86 77 80 85 78 82 83 74
55 54 53 66 53 51 50 46 50 47 49 50 49 48 42 47 54 52 54 57 66 75 77 69 75 78 90 95 97 96 94 90 87 89 90 80 80 79 73 74 80 81 69 64
55 65 67 59 60 55 66 51 45 44 45 45 55 44 43 56 54 62 60 64 72 79 83 93 95 94 94 96 94 95 94 90 88 80 73 73 73 73 72 66 63 63 72 89
66 65 73 79 74 73 49 51 45 47 44 42 42 47 52 57 72 75 77 77 72 70 71 74 86 87 89 85 81 76 74 76 74 70 68 64 62 62 65 71 81 90 92 94
66 76 82 76 78 57 52 44 46 44 41 45 47 60 65 67 67 76 69 72 74 73 72 70 67 68 68 69 67 67 68 67 64 60 59 63 69 73 78 87 93 96 92 82
67 72 73 86 75 69 54 45 40 38 52 48 56 67 68 66 62 73 74 72 72 72 70 67 66 67 70 69 66 67 64 58 62 66 69 79 88 94 97 96 91 82 80 80
90 92 78 96 84 75 57 45 40 49 53 54 56 60 68 62 69 79 74 73 71 69 68 66 68 71 72 67 63 70 70 73 73 84 92 92 86 79 78 77 78 82 86 88
77 85 91 90 86 73 48 42 46 50 72 64 66 69 77 83 78 78 75 73 70 70 68 66 69 72 74 74 75 84 86 82 74 72 75 74 76 76 75 85 86 85 89 90
74 70 78 72 74 62 61 52 60 61 65 66 70 81 74 79 81 79 79 75 72 69 67 65 66 68 68 68 66 70 74 70 72 73 76 77 79 79 81 84 86 90 90 94
68 67 73 70 71 79 84 78 78 77 79 79 82 71 70 84 82 83 81 80 76 71 71 67 68 72 71 65 66 70 72 73 76 79 81 83 85 86 86 86 87 93 95 94
72 69 80 82 88 82 75 80 82 84 83 78 78 79 80 81 82 82 82 77 73 72 74 73 69 68 75 82 86 84 86 86 87 87 88 89 89 91 87 88 92 92 92 94
73 76 82 79 68 67 74 82 82 82 85 81 83 87 83 78 82 76 79 76 77 77 66 67 71 84 87 85 89 90 85 84 82 81 87 95 93 94 88 88 83 76 78 76

GFSCGP_sfc_rhum_057.txt.gz
RH
42 35 37 34 37 32 32 32 30 25 22 36 37 34 43 81 79 75 71 70 69 65 59 64 66 66 67 70 74 76 81 82 81 81 89 90 92 88 84 80 76 73 62 60
36 42 36 32 36 36 33 32 30 27 26 28 29 26 30 72 78 67 64 64 59 60 64 67 66 68 68 70 75 78 77 79 74 68 71 71 76 84 78 80 75 68 63 57
44 33 34 36 33 35 32 33 34 32 30 24 24 23 32 50 59 61 56 55 55 58 63 67 70 71 71 73 79 75 74 75 73 70 71 75 79 78 79 79 77 66 61 55
37 34 34 35 35 31 34 30 33 34 34 31 27 32 28 30 53 59 55 58 57 60 61 62 69 70 71 70 74 72 73 74 77 79 73 77 71 76 78 81 74 67 68 66
34 39 39 39 35 33 33 34 34 35 37 37 36 32 27 29 30 44 53 56 60 56 58 62 64 64 65 68 79 78 76 74 76 77 74 81 80 79 82 82 75 74 66 60
32 33 32 30 33 33 34 39 39 42 42 45 36 33 29 25 26 27 33 46 58 55 57 57 59 62 62 70 78 80 79 76 77 79 79 81 82 84 86 84 84 74 65 63
34 34 31 35 33 34 33 36 46 56 56 48 42 41 32 28 26 26 27 33 49 54 54 54 60 63 63 70 74 77 75 75 79 82 83 85 86 82 78 77 82 73 72 66
37 38 35 36 32 34 37 37 53 45 50 41 42 43 24 29 26 33 34 34 34 53 53 50 52 56 59 67 70 74 72 73 78 83 84 90 87 80 76 79 83 80 74 62
48 38 37 39 37 31 42 42 38 59 69 65 42 33 22 26 27 32 36 34 36 41 50 48 48 54 58 64 70 76 71 72 76 83 85 92 92 87 85 87 86 72 67 62
41 40 45 40 38 39 36 36 46 51 55 55 39 37 28 26 29 32 31 37 37 43 46 46 47 54 57 64 68 76 72 72 73 79 85 90 90 84 83 83 75 72 67 66
38 37 40 42 40 36 42 42 45 40 47 48 50 35 34 26 27 34 35 36 41 42 48 48 47 52 59 67 71 75 73 70 74 78 84 87 89 86 85 79 76 72 80 79
41 48 56 39 38 35 36 40 42 57 49 59 59 43 29 30 27 32 32 35 40 48 46 50 53 63 68 71 72 74 75 74 77 83 87 91 91 89 87 88 84 87 84 79
47 48 48 38 37 43 42 42 44 51 57 56 72 45 27 30 27 27 28 29 35 45 53 58 63 65 68 73 76 79 81 82 83 89 90 91 90 88 87 87 90 90 89 84
45 50 44 40 36 38 53 50 46 46 61 53 51 39 31 28 29 27 30 31 28 30 46 56 64 70 75 80 84 86 88 90 90 84 85 89 88 87 88 91 89 89 82 83
46 47 48 37 33 38 38 42 49 44 44 51 41 43 32 31 29 30 38 41 53 55 53 59 63 69 71 77 82 83 86 86 85 86 84 86 86 82 84 85 80 84 82 82
49 49 55 48 43 38 39 35 43 44 42 41 38 39 32 31 35 43 52 56 62 70 74 71 65 68 76 81 81 83 80 78 76 77 83 79 79 78 80 80 85 87 85 81
56 63 62 54 48 46 65 50 42 40 39 40 48 39 35 37 44 50 57 62 66 70 75 78 79 81 80 80 80 81 78 75 74 72 71 73 76 76 77 76 69 74 83 84
64 63 67 73 69 75 41 40 37 40 39 35 34 32 34 41 58 59 61 57 62 65 69 73 72 74 74 71 71 70 64 64 65 66 64 63 65 68 66 81 88 90 92 95
57 69 75 79 65 50 37 37 41 42 31 37 35 36 46 56 55 60 61 62 63 64 63 64 63 64 63 63 62 60 57 55 56 60 68 74 78 82 82 89 92 95 94 86
65 67 75 74 71 71 51 36 36 31 45 36 38 50 57 55 57 49 62 62 63 60 59 61 61 60 60 58 54 54 54 61 72 73 73 76 83 93 94 88 75 66 62 60
80 82 73 79 80 63 47 40 38 48 42 44 43 49 57 52 53 63 63 63 58 58 60 61 59 60 57 53 54 58 62 71 78 82 78 71 67 63 60 61 60 60 59 64
71 78 85 80 87 67 48 37 46 46 48 49 52 58 62 71 70 66 63 62 59 58 57 56 60 63 63 60 64 67 66 59 58 64 64 57 58 57 56 61 60 60 61 68
76 65 72 62 63 54 44 45 44 47 48 56 54 58 68 72 68 65 64 62 59 55 55 55 59 63 60 55 52 57 58 53 56 59 63 64 64 62 60 60 61 59 60 65
67 70 68 63 58 58 60 63 64 57 54 56 59 60 63 69 68 66 63 61 58 54 56 56 57 60 67 64 64 66 64 62 64 64 62 58 54 52 48 44 46 49 59 64
62 70 70 70 65 70 62 66 63 66 71 68 64 63 67 69 68 65 64 61 58 58 57 55 63 70 72 67 66 63 62 58 57 57 52 49 50 51 47 47 53 57 58 71
64 66 74 71 59 59 52 63 69 74 71 68 72 74 67 64 66 62 63 62 62 61 59 66 72 72 69 68 66 60 54 47 46 46 48 62 60 60 55 53 53 63 70 70

GFSCGP_sfc_rhum_060.txt.gz
RH
26 24 24 19 19 25 20 20 18 16 18 26 23 20 16 35 48 41 36 36 41 44 42 47 50 47 44 42 46 50 52 57 62 59 52 46 50 48 51 52 65 67 68 68
28 27 19 21 24 26 23 19 18 20 19 22 18 17 15 24 41 39 37 40 36 38 41 46 51 50 50 44 47 49 50 55 56 50 45 43 45 48 46 55 62 64 66 64
24 22 24 25 25 28 24 23 22 21 21 19 19 16 19 27 37 43 45 38 31 32 36 42 49 53 52 50 50 47 48 51 54 50 44 44 46 52 54 58 76 69 64 57
22 19 25 24 25 22 25 19 20 22 21 22 19 22 18 18 27 34 34 39 36 31 32 34 43 48 51 51 49 48 48 50 52 55 48 53 44 46 49 56 69 63 62 57
23 25 26 25 21 21 22 23 24 23 23 27 23 21 17 19 18 22 30 32 35 34 32 33 37 42 44 48 51 53 49 49 52 54 55 54 52 41 45 64 68 70 66 61
18 22 22 20 23 23 23 26 28 28 27 33 24 22 17 14 15 16 16 24 28 32 35 33 31 37 41 45 51 56 55 52 53 58 62 62 61 55 65 68 69 67 65 61
23 22 21 24 26 27 25 26 36 45 42 36 27 26 19 16 16 17 19 19 20 27 32 35 33 34 40 45 52 56 54 52 53 60 63 65 67 68 74 70 66 67 67 67
26 30 22 23 23 24 26 25 34 39 39 31 29 25 16 17 16 19 22 23 24 23 31 32 34 36 38 44 50 56 57 53 52 61 65 67 68 70 77 78 75 68 76 79
26 22 22 24 24 22 31 32 25 38 52 47 24 20 15 16 16 21 19 21 23 22 26 30 30 34 39 42 49 55 58 54 52 60 65 71 76 77 84 79 75 75 81 85
24 27 26 31 27 29 29 24 35 33 43 39 26 24 17 17 20 16 16 17 20 25 27 28 30 32 36 38 45 52 55 52 51 55 66 76 78 79 78 82 78 78 88 80
20 24 39 34 32 25 31 31 30 28 31 39 37 24 17 17 17 22 22 20 21 25 28 31 31 31 34 38 43 49 51 49 49 52 61 79 78 78 79 83 82 84 83 72
22 25 33 27 28 26 23 26 28 37 35 39 42 30 14 17 19 18 19 21 24 27 28 29 31 34 37 41 43 47 49 49 49 53 62 73 81 82 83 86 83 84 79 78
25 29 35 31 31 31 27 26 24 28 34 34 56 29 17 20 20 19 19 18 21 26 27 31 36 37 40 43 46 48 54 54 54 62 76 86 91 92 92 89 87 88 90 94
35 25 29 33 24 19 28 26 24 27 40 31 31 25 18 18 17 16 19 20 20 21 22 30 36 41 47 52 57 63 70 76 81 84 88 92 92 91 90 91 92 94 89 90
29 29 27 21 17 16 18 18 20 23 24 28 25 20 21 19 18 18 24 26 31 34 32 32 40 45 48 56 64 75 85 87 86 86 86 90 88 86 88 91 92 89 86 83
33 31 30 31 21 22 23 19 18 21 20 25 24 23 17 18 20 24 29 34 38 46 48 46 46 51 59 62 64 68 72 76 75 80 82 79 80 80 82 79 78 75 75 75
38 36 41 38 31 32 56 33 22 22 25 26 27 22 17 21 24 26 34 39 44 51 52 55 57 59 60 62 63 66 67 65 66 68 68 67 64 66 67 63 65 71 71 76
47 40 44 48 68 82 26 26 20 24 21 20 20 20 19 20 25 34 39 42 48 50 53 55 56 58 58 57 57 57 53 56 58 58 58 58 60 61 64 67 74 79 84 84
44 46 61 81 50 30 30 30 31 31 25 19 22 19 20 30 37 44 43 42 46 50 50 51 51 53 54 53 51 50 51 50 54 55 57 57 60 64 70 76 84 89 88 86
48 50 54 62 62 82 30 21 22 24 37 18 19 21 24 36 44 27 45 46 48 46 48 50 50 50 51 50 46 49 51 53 56 58 58 58 59 65 76 78 70 55 48 46
70 69 77 62 70 41 28 26 25 40 37 22 21 22 32 39 32 42 46 47 44 46 48 49 47 48 47 45 48 52 54 58 58 57 56 57 56 52 49 48 45 43 42 46
59 70 84 63 88 78 32 28 32 27 32 26 30 29 38 44 50 49 47 46 47 48 48 46 49 50 47 46 49 52 54 49 49 48 47 44 43 38 38 44 45 44 46 54
63 50 55 50 45 39 32 25 25 29 25 33 31 31 37 51 50 48 49 48 46 44 43 45 48 52 48 43 41 44 45 43 44 45 45 46 44 41 39 40 42 37 37 41
48 53 62 53 30 35 37 28 37 32 32 32 31 36 46 48 49 49 49 48 46 42 43 44 48 49 51 46 43 44 43 41 44 45 45 41 38 35 31 26 28 31 44 51
37 49 43 43 36 46 43 39 32 38 44 42 37 39 42 46 48 49 49 47 42 42 45 44 49 51 49 47 48 46 44 41 39 38 34 35 36 33 30 30 38 45 51 63
42 41 61 56 32 42 28 37 35 42 43 40 42 45 43 44 47 46 47 44 44 47 45 48 50 51 50 49 47 42 35 32 33 32 34 48 44 44 35 32 33 69 63 62

GFSCGP_sfc_rhum_063.txt.gz
RH
20 20 21 17 16 14 17 14 13 13 13 17 18 21 15 24 24 27 28 29 35 34 32 35 38 38 36 40 43 42 44 46 47 45 44 39 42 40 40 40 44 53 65 70
21 25 16 15 16 19 18 17 14 14 14 16 16 19 16 15 25 23 26 25 31 33 33 35 38 40 38 40 42 41 39 41 43 41 40 35 34 34 36 39 45 57 68 66
23 17 14 18 17 20 19 19 23 21 22 14 15 16 14 14 20 24 24 24 27 29 32 36 37 42 42 40 42 40 38 39 42 40 37 34 34 35 39 39 44 63 67 63
19 14 18 18 19 18 23 15 16 17 18 22 23 29 25 14 18 23 27 31 29 25 27 32 38 42 45 42 40 38 38 37 39 43 39 42 36 36 37 42 41 60 64 65
20 17 20 21 19 17 20 19 18 18 21 23 20 17 30 14 12 15 22 30 26 23 24 26 32 36 38 42 43 43 39 38 38 42 45 43 44 38 37 41 47 70 70 63
16 13 15 16 15 16 16 20 20 20 22 36 22 20 24 16 12 10 11 18 23 23 21 22 24 30 33 37 43 45 43 39 40 42 48 50 51 49 39 40 57 67 68 65
18 18 16 16 20 19 19 23 33 43 53 39 26 19 22 22 12 12 13 12 17 21 25 24 22 26 31 36 41 44 44 42 42 46 48 53 53 54 54 50 62 68 69 74
23 27 18 17 18 22 23 22 36 54 48 53 20 21 17 12 11 12 14 15 16 17 21 24 25 24 28 34 38 43 43 46 43 52 52 54 57 54 56 75 88 79 80 74
22 20 14 15 15 16 24 27 22 33 30 38 20 15 12 11 11 13 14 15 16 17 17 20 23 26 26 30 38 45 43 42 44 49 53 58 61 62 61 68 69 83 78 77
18 24 15 16 17 17 25 19 31 27 46 43 22 19 18 15 16 12 13 13 13 17 19 20 22 26 28 29 36 42 45 43 44 46 57 64 70 74 73 76 75 79 74 76
16 20 24 24 25 20 24 28 25 30 39 41 35 22 15 14 14 15 15 13 14 16 20 23 23 23 24 28 33 39 42 45 46 45 57 70 77 81 84 82 83 80 76 76
17 23 31 26 15 14 18 22 23 36 31 29 36 28 13 13 13 14 14 14 14 18 18 21 25 26 27 29 31 36 41 44 43 44 48 75 75 82 90 91 91 87 89 86
20 25 32 26 25 20 23 21 21 24 25 34 58 31 14 14 15 14 14 13 15 17 17 19 24 28 30 33 35 37 42 42 40 42 50 75 86 88 95 93 89 87 88 92
31 23 26 31 24 20 25 20 19 23 42 32 27 20 16 14 14 13 13 14 14 16 16 19 23 28 32 37 40 43 53 62 65 72 85 94 94 93 93 92 91 93 92 92
25 28 24 19 16 15 16 18 18 20 22 30 23 18 14 14 14 14 17 17 18 20 20 18 25 30 37 46 61 72 82 83 82 85 89 93 91 90 91 93 92 92 91 89
24 31 27 25 18 16 18 15 14 13 15 15 15 16 12 12 11 15 17 19 22 28 31 30 29 35 44 53 64 76 84 85 82 86 89 88 87 86 87 88 88 88 86 83
30 35 33 40 21 22 38 22 16 16 15 16 22 18 13 14 14 15 17 22 27 36 39 39 40 48 52 56 62 72 74 72 73 75 73 72 72 73 74 72 73 74 75 81
32 33 38 54 66 69 26 16 16 18 16 14 15 14 13 13 13 15 19 24 34 39 44 48 49 52 52 52 54 57 54 56 58 57 57 58 59 58 57 58 62 70 78 80
39 38 51 66 51 30 20 23 22 21 19 14 14 13 12 15 23 30 28 30 36 41 42 44 45 47 48 47 46 47 49 49 51 52 52 53 57 60 60 65 71 71 76 76
33 44 56 57 58 66 31 19 16 17 34 16 14 16 17 22 38 21 33 36 40 38 39 42 43 43 44 45 44 46 48 49 52 53 53 54 55 58 64 73 72 70 58 46
66 68 75 61 61 38 20 17 16 41 37 16 15 16 18 23 24 31 36 39 36 37 40 42 42 43 42 42 44 47 49 52 51 52 53 55 57 58 50 47 44 40 39 41
64 68 85 66 77 76 27 25 32 29 22 20 19 18 23 28 38 38 38 37 38 39 42 40 43 44 44 43 45 48 52 49 47 47 47 45 40 34 35 39 40 38 40 49
65 42 55 45 44 31 30 28 26 21 24 23 23 19 24 38 38 38 38 39 39 39 37 39 41 46 44 42 43 45 45 42 45 44 42 40 36 33 32 34 36 30 31 40
36 32 50 44 32 28 28 27 25 25 27 22 24 22 26 40 38 38 38 40 40 36 38 39 45 46 46 40 38 41 41 40 41 42 39 36 33 30 26 22 23 28 42 48
28 26 36 37 28 23 28 31 32 24 28 26 26 24 29 35 37 37 39 40 36 36 39 42 44 45 43 40 41 38 37 36 35 34 31 32 32 28 26 27 33 44 59 60
23 28 48 52 31 39 32 28 31 30 28 32 29 28 32 32 35 36 38 38 36 39 41 42 45 45 43 42 41 38 34 30 31 31 33 45 44 41 29 27 42 66 64 64

GFSCGP_sfc_rhum_066.txt.gz
RH
21 23 24 20 20 18 16 16 17 16 15 18 17 18 38 44 33 35 31 37 42 37 40 55 51 48 52 54 58 55 56 62 62 59 62 59 66 59 59 52 59 72 75 80
23 28 18 16 15 16 18 18 16 14 15 15 14 16 27 30 21 21 26 31 35 35 38 41 42 47 52 52 56 54 53 56 53 53 52 53 55 55 52 58 57 68 78 80
28 21 17 16 17 18 18 17 21 24 17 15 17 17 18 15 19 18 22 23 32 33 36 41 45 47 50 54 55 50 49 50 52 50 48 48 50 53 52 53 62 70 80 80
21 16 17 17 19 17 21 14 18 17 19 22 22 34 26 20 17 21 21 25 27 30 31 36 42 48 49 51 51 47 46 45 49 53 49 54 46 47 54 61 56 66 77 79
21 18 18 21 17 16 20 20 22 18 19 22 24 34 24 19 17 17 22 27 30 31 32 36 38 43 44 47 51 51 48 44 45 49 54 55 58 56 52 60 61 74 80 82
17 13 14 16 15 16 15 18 21 22 23 35 22 26 29 22 23 15 20 26 30 29 29 31 36 39 43 45 50 52 51 46 46 50 56 63 62 61 58 62 66 81 82 83
19 17 14 13 18 16 18 23 38 48 48 45 22 25 26 27 20 16 13 24 28 27 27 28 32 38 42 48 52 53 49 47 48 55 59 60 67 70 66 61 64 84 85 85
27 30 17 15 18 20 22 23 41 60 84 63 42 29 17 17 13 12 12 16 18 24 27 26 26 35 39 45 50 52 50 49 47 53 58 63 62 66 65 66 83 82 86 90
27 24 14 16 16 17 24 31 22 59 60 74 51 25 14 13 11 12 13 16 18 20 22 27 27 30 37 41 49 55 51 49 48 53 58 63 66 64 67 72 83 88 90 87
22 31 16 16 15 16 18 20 33 35 74 49 22 21 22 18 15 14 13 17 18 21 23 23 25 31 30 38 45 52 52 48 50 52 60 62 68 72 73 85 87 90 92 88
20 26 25 18 20 20 21 28 32 25 30 53 58 36 35 22 16 16 17 16 20 22 25 26 27 30 30 33 37 48 48 46 48 51 57 64 74 87 91 95 93 91 92 92
22 28 36 23 16 16 17 23 28 44 40 42 60 37 28 26 15 17 16 16 19 19 21 26 29 30 32 35 36 45 48 48 50 55 69 76 88 93 93 97 96 96 98 96
26 29 36 36 24 20 19 19 21 25 30 39 68 38 15 15 15 15 19 16 17 20 19 24 29 32 33 34 38 45 54 53 55 74 82 86 95 93 97 97 96 94 94 94
40 27 29 41 35 24 25 20 24 28 53 42 39 32 23 18 19 15 16 16 16 20 18 20 26 31 36 40 43 56 74 79 83 86 92 97 97 96 96 96 96 95 94 95
34 34 28 21 20 19 21 20 19 19 25 39 30 22 18 16 16 17 20 20 17 18 19 22 26 34 39 62 77 80 85 84 85 90 93 97 96 95 95 95 96 95 95 94
36 37 32 34 22 20 22 18 18 17 18 18 19 21 15 13 12 14 17 18 19 21 26 27 28 37 59 73 82 86 87 89 87 90 94 93 94 93 95 95 93 92 91 90
40 44 40 46 26 25 39 25 18 17 17 17 22 19 14 14 14 16 18 17 20 30 33 35 35 52 69 76 80 88 85 83 86 90 87 87 86 89 89 86 84 86 88 88
51 43 43 64 69 59 28 18 16 20 17 14 14 14 13 14 14 16 18 22 27 34 38 42 53 60 65 70 73 75 73 76 77 75 76 75 77 78 75 74 76 84 88 90
41 58 72 68 59 36 25 22 22 24 23 17 17 14 13 12 21 29 25 30 36 40 46 51 53 57 59 63 66 63 64 62 63 66 65 61 63 64 66 76 81 83 83 84
38 54 67 75 63 69 40 22 19 21 38 19 17 21 19 23 48 31 32 36 40 40 44 49 52 53 54 54 53 55 56 57 58 59 60 60 63 65 72 75 81 79 77 73
75 71 70 68 72 52 28 24 22 41 45 26 21 22 24 29 32 37 35 39 38 40 42 46 47 50 50 49 51 54 55 58 57 58 57 59 64 68 71 72 70 66 59 65
71 73 80 75 76 72 30 26 33 35 37 28 27 28 37 45 41 38 39 41 39 39 42 43 48 49 48 47 50 53 57 54 55 58 59 58 56 48 47 55 54 49 64 73
71 53 60 51 57 42 42 38 38 36 39 38 36 30 32 44 41 40 42 40 39 39 43 41 45 49 50 48 49 55 56 53 54 54 51 47 43 42 43 52 51 52 55 66
49 55 73 82 37 32 37 37 36 34 38 29 28 30 32 42 40 41 41 40 41 39 40 40 47 51 53 50 48 52 50 48 50 50 49 46 45 40 36 31 36 58 76 83
34 44 56 61 46 44 35 35 40 38 38 32 30 33 32 41 40 40 40 41 40 39 40 43 49 53 51 46 48 45 46 46 45 45 40 41 43 42 39 47 53 78 73 81
28 30 49 58 37 50 45 46 43 42 38 34 35 36 33 38 39 38 40 40 40 41 43 46 49 49 45 46 46 44 42 40 41 40 46 70 69 63 42 49 53 71 72 75

GFSCGP_sfc_rhum_069.txt.gz
RH
32 38 36 33 29 26 25 25 25 21 18 24 28 44 52 48 54 76 77 78 71 72 75 77 76 74 76 81 77 68 73 72 79 78 72 76 73 79 80 78 75 84 81 85
36 38 27 23 23 24 24 26 27 22 20 25 23 24 49 53 54 52 66 66 63 68 74 72 71 71 73 67 63 62 62 62 72 65 68 74 68 77 73 71 73 77 85 87
39 30 23 24 24 24 24 27 28 28 25 24 26 28 49 37 41 45 47 48 48 70 72 68 62 67 66 58 59 55 59 62 65 58 66 70 77 76 69 73 64 88 83 84
33 25 25 26 26 22 27 21 21 28 31 38 28 43 33 28 32 31 37 48 47 60 63 62 58 63 63 61 60 56 55 58 62 61 58 61 57 65 63 66 72 85 83 88
32 28 28 29 24 21 25 25 28 30 35 37 34 53 47 36 29 31 34 44 44 48 50 51 54 56 56 55 60 57 56 55 56 57 57 59 59 59 67 70 64 88 87 85
24 19 20 22 21 20 19 28 31 34 37 52 36 53 58 39 26 26 31 37 40 42 48 48 47 49 53 52 54 53 55 53 52 54 58 58 56 63 62 68 70 81 91 89
24 23 18 18 23 23 24 33 56 68 72 65 40 48 42 32 27 25 26 36 33 36 43 45 52 49 49 54 54 52 52 53 51 52 55 63 60 72 60 68 68 91 91 86
35 40 22 19 21 26 30 34 63 66 84 75 51 50 31 26 24 20 23 30 36 33 35 42 44 50 48 48 52 52 51 54 51 54 53 58 63 64 79 66 75 83 85 86
35 33 20 17 19 21 34 39 35 73 79 93 73 43 24 24 22 19 19 27 36 37 33 36 42 43 48 48 50 55 51 51 52 54 68 60 60 74 65 65 86 84 88 94
35 38 22 20 20 22 26 27 48 66 97 97 57 50 38 41 30 20 19 23 28 30 35 34 34 45 44 47 51 54 54 52 50 53 57 69 68 74 80 77 95 94 97 98
24 34 38 27 27 26 30 30 40 48 64 76 73 61 44 36 28 20 26 24 29 31 30 34 38 41 42 45 48 54 54 53 53 52 63 62 85 90 93 97 97 98 98 96
26 45 51 37 24 19 22 30 42 70 56 64 78 62 30 33 25 25 22 22 25 31 32 33 38 44 55 44 46 53 56 53 53 57 68 77 96 96 98 98 97 97 95 95
38 57 67 44 30 21 25 28 27 41 55 63 81 63 28 27 24 23 23 24 25 24 36 36 38 40 44 53 54 54 67 76 86 93 98 97 98 99 97 99 99 98 98 98
44 43 48 53 50 34 38 29 25 38 66 58 65 47 32 29 24 25 21 20 26 23 26 39 42 43 60 84 90 92 96 94 83 92 97 98 98 98 98 98 98 97 95 96
45 51 44 39 34 32 32 30 25 29 39 57 49 40 32 28 26 23 26 24 22 25 24 31 42 61 89 96 96 97 96 96 94 97 97 98 98 97 97 97 96 96 96 96
45 53 44 46 34 28 36 30 25 24 26 30 32 37 26 22 20 23 25 24 23 28 32 35 57 79 85 92 97 93 91 95 93 97 97 96 95 95 97 97 96 96 95 94
48 53 56 60 42 38 60 38 38 30 24 26 34 29 24 22 19 21 26 26 33 40 41 53 71 82 89 94 93 98 96 93 93 94 93 93 93 94 94 91 91 93 94 94
61 51 65 72 66 65 41 27 26 29 25 23 23 22 20 19 22 23 25 29 41 44 47 78 84 89 92 93 92 90 88 88 90 89 88 87 87 87 85 86 88 93 95 96
52 70 82 70 63 50 39 30 32 33 33 24 24 23 20 19 36 38 36 42 51 56 67 80 82 86 89 88 84 83 80 78 80 81 82 80 81 81 80 89 92 94 95 90
49 60 84 86 70 64 52 36 28 28 50 29 31 29 29 32 51 46 50 54 61 65 67 72 76 80 85 84 80 81 76 74 77 74 73 73 74 78 86 91 92 88 88 88
82 80 84 92 91 70 40 31 33 52 56 33 33 31 34 38 45 46 56 58 57 61 67 69 70 75 77 72 71 74 74 74 70 69 68 70 76 80 82 89 91 92 88 75
80 85 90 89 88 82 37 35 42 46 39 36 44 40 49 48 53 50 52 54 56 62 65 64 68 69 69 65 64 69 72 68 68 70 72 76 78 74 79 83 74 69 77 86
84 76 79 72 74 53 47 50 42 42 42 44 45 45 54 60 53 52 54 56 55 59 62 62 66 68 68 66 64 71 71 68 72 73 75 71 63 56 56 62 67 66 72 80
57 55 76 67 60 71 73 70 50 43 46 38 41 41 57 64 61 57 57 57 56 61 63 63 64 69 73 68 64 68 67 63 66 63 61 59 53 49 48 57 66 73 82 86
65 59 68 73 62 60 55 68 44 44 48 47 45 37 41 55 56 56 58 58 57 58 60 61 68 73 72 68 67 63 63 58 55 58 50 54 56 58 63 74 73 72 83 86
46 59 79 75 56 62 55 48 43 40 41 49 52 48 41 54 53 54 57 57 56 61 63 66 70 62 60 57 58 58 55 54 53 56 63 75 75 74 56 62 70 71 75 72

GFSCGP_sfc_rhum_072.txt.gz
RH
39 41 40 34 34 31 33 34 36 28 21 26 32 47 55 62 63 77 83 82 82 97 90 86 90 90 88 82 82 82 80 80 83 70 73 72 72 88 87 89 80 88 88 87
42 42 30 29 32 32 32 35 35 27 22 25 26 27 53 61 58 63 72 79 81 89 97 89 90 90 92 91 87 83 82 83 84 74 66 69 77 85 73 82 84 81 88 90
43 36 27 29 31 31 31 34 33 29 27 30 32 37 59 46 54 56 59 55 72 81 95 88 86 88 90 89 87 74 75 74 73 77 73 82 84 81 80 83 82 86 85 84
39 31 32 33 32 29 35 26 26 27 37 42 32 44 50 46 47 50 54 61 64 74 79 81 80 85 86 80 75 65 63 61 68 76 62 71 61 68 63 75 76 84 87 85
38 38 37 37 31 26 32 29 29 30 38 43 40 51 44 40 39 42 50 54 60 69 75 79 73 74 74 65 64 60 60 59 61 68 61 70 71 73 79 80 78 81 91 87
28 24 29 29 25 26 24 29 35 40 43 55 43 51 53 48 36 35 45 50 55 66 70 70 64 63 58 54 56 59 60 59 61 68 65 66 65 76 78 75 76 88 92 90
27 26 25 23 29 27 27 36 55 61 70 65 49 55 44 31 33 30 43 48 52 64 70 69 64 63 59 58 56 60 63 62 62 66 66 66 64 81 67 69 69 75 86 92
39 46 26 24 25 28 32 36 60 59 74 68 61 55 42 30 26 27 31 43 47 58 59 64 62 59 60 60 60 61 60 61 60 63 62 64 68 62 73 62 66 72 75 82
40 38 25 20 21 22 33 43 36 74 83 87 69 58 37 30 29 25 30 39 46 50 53 54 54 55 55 57 60 63 61 58 58 59 59 59 67 70 68 71 72 79 89 86
39 45 25 24 25 24 30 32 61 69 82 88 69 65 52 37 31 26 32 48 41 42 49 50 51 52 52 54 56 58 58 56 55 55 57 57 58 77 75 84 92 92 96 97
34 43 42 32 30 33 35 37 48 55 70 83 80 60 47 40 29 25 25 32 37 41 44 44 48 50 51 48 51 55 55 54 58 56 58 59 63 64 82 91 97 98 98 98
36 45 52 38 31 28 30 30 39 72 76 75 77 58 36 37 27 28 29 30 35 36 40 41 42 47 50 51 51 50 54 54 64 85 89 91 90 91 92 93 98 97 98 98
38 53 60 44 32 30 33 30 32 50 62 68 79 62 32 34 35 27 29 28 32 32 34 44 50 49 42 52 51 53 57 72 85 94 96 97 97 96 98 98 97 95 92 96
40 56 38 45 45 42 46 31 27 40 73 62 66 48 36 32 30 25 28 26 30 34 36 41 48 68 88 88 73 64 71 78 79 78 98 99 99 98 98 98 99 99 98 98
46 58 47 42 40 40 40 38 34 34 43 51 44 45 36 33 33 26 26 25 27 28 38 43 51 95 98 95 96 98 98 98 95 98 98 99 99 99 98 98 98 99 98 98
51 60 56 61 44 41 46 42 36 36 33 40 42 45 33 30 31 28 26 25 26 28 32 40 61 90 96 93 96 98 98 98 96 98 98 98 98 98 98 98 98 98 98 98
57 62 68 69 46 49 69 57 49 44 39 34 41 38 29 27 30 26 29 28 28 36 55 68 70 83 96 93 95 97 97 95 96 97 96 96 96 97 97 94 95 96 97 97
73 64 71 84 65 91 60 40 43 48 37 32 25 24 28 25 24 24 27 32 38 43 60 74 85 96 97 94 94 94 92 92 94 94 93 93 93 94 92 91 93 96 96 97
70 69 82 79 75 66 53 38 38 40 35 28 28 22 22 25 38 42 38 36 37 53 81 90 93 96 97 97 93 91 91 88 89 91 90 88 88 89 89 94 97 96 96 95
76 83 68 88 82 87 59 36 31 32 53 32 28 29 28 37 50 44 46 54 61 76 90 94 96 95 95 94 90 92 93 90 90 87 84 82 82 84 91 93 93 96 94 87
87 90 84 96 91 78 52 38 35 49 56 36 32 32 34 39 42 38 58 63 68 78 87 92 92 94 94 90 87 90 88 88 79 79 78 80 83 90 92 93 94 94 96 93
70 85 88 90 92 82 50 43 48 52 46 43 40 38 37 39 54 57 62 69 74 81 86 88 93 94 92 87 83 87 87 77 75 78 83 85 86 83 87 93 96 88 84 88
77 66 75 70 75 60 72 65 64 60 56 49 48 48 48 52 56 63 63 68 73 79 82 79 81 82 81 77 74 81 82 80 82 83 88 89 88 86 83 87 88 87 85 84
62 65 73 66 64 65 66 62 69 68 59 52 52 44 58 56 64 63 68 70 74 75 75 72 73 77 83 76 75 78 79 78 79 77 71 69 64 69 72 70 74 80 86 89
54 68 67 73 69 66 70 66 62 63 65 52 50 50 45 58 61 69 69 65 68 72 73 70 75 79 80 77 76 73 72 66 60 55 55 63 70 73 71 68 71 82 89 88
68 76 81 83 59 61 57 61 64 61 45 52 55 53 51 56 61 68 68 73 67 74 73 72 71 68 63 63 65 62 55 51 53 56 62 72 72 74 65 60 73 78 76 75

GFSCGP_sfc_rhum_075.txt.gz
RH
41 46 46 41 39 36 36 40 41 34 27 33 32 38 47 68 82 82 92 92 94 95 96 91 85 84 85 88 89 92 93 91 87 88 87 85 82 85 87 83 86 90 85 85
44 49 34 33 35 35 38 41 39 33 28 32 32 30 44 64 65 65 76 91 92 98 90 97 98 87 88 91 85 88 86 83 77 71 74 72 75 82 83 92 89 86 92 90
41 40 33 34 37 37 39 40 38 36 32 32 35 36 54 52 61 60 62 75 83 96 93 97 97 97 84 93 88 88 87 86 81 64 68 76 74 79 86 92 94 91 90 92
41 30 36 39 38 34 40 30 32 35 41 46 37 50 41 53 59 60 58 68 81 93 94 92 95 98 97 94 94 86 85 84 84 81 70 74 78 78 81 84 86 91 92 91
41 39 36 39 38 33 36 31 36 37 44 47 47 51 42 50 52 50 49 52 65 84 92 91 90 90 92 91 93 85 81 76 74 74 76 78 77 77 80 84 84 86 93 92
34 34 36 34 29 31 30 38 40 47 47 60 45 49 52 46 40 37 36 44 57 77 87 82 79 81 88 92 88 80 76 71 68 72 83 76 84 88 89 87 84 88 87 93
36 32 31 31 40 36 36 42 60 62 68 66 46 60 50 36 36 33 36 46 51 65 82 85 81 81 83 84 80 74 70 67 65 70 74 78 78 86 81 79 77 82 86 92
45 53 30 28 31 36 41 42 66 60 69 61 63 67 47 36 34 34 32 39 46 63 74 78 78 73 72 68 68 66 64 63 60 66 70 73 70 73 77 71 71 80 81 81
52 46 28 25 26 25 38 48 34 73 88 88 66 53 40 34 30 35 37 50 61 62 72 73 72 69 65 59 60 62 60 58 58 63 67 70 74 71 69 76 80 81 88 81
47 48 30 29 25 26 30 37 53 70 84 82 66 70 55 41 33 28 39 51 55 56 65 68 68 67 63 57 56 57 60 60 60 61 65 68 71 78 76 85 88 85 89 95
38 50 44 31 35 38 41 45 56 58 68 71 82 64 52 45 36 28 35 48 54 56 60 60 63 62 60 61 62 62 59 63 66 63 66 73 77 78 86 88 93 95 98 98
38 52 54 45 34 32 32 39 54 72 78 79 80 69 40 40 38 32 26 38 50 49 51 54 55 56 60 58 59 61 61 62 73 77 80 77 74 72 79 90 95 96 95 96
48 58 65 52 38 37 40 38 37 55 71 82 85 72 34 37 39 35 31 33 41 46 47 48 52 54 56 59 57 58 62 67 72 77 73 74 79 79 82 93 95 96 95 95
68 57 48 53 49 40 49 45 38 44 72 72 67 49 38 35 37 33 33 30 32 41 42 44 45 48 52 54 58 59 63 70 75 76 78 80 80 91 92 92 94 94 95 95
56 56 55 40 33 43 45 45 44 47 41 48 46 50 40 37 36 32 29 30 29 34 42 50 50 66 79 75 77 70 76 77 80 81 82 91 99 99 99 98 96 98 98 98
69 61 60 50 41 38 44 43 49 49 46 45 44 49 39 33 35 37 32 28 27 29 32 48 60 91 94 93 96 99 99 98 93 97 98 99 99 99 99 99 99 99 99 99
87 78 72 72 54 60 76 59 42 50 52 51 51 45 37 37 34 34 32 31 29 28 30 50 59 84 93 96 94 95 98 98 97 98 98 98 98 98 98 98 98 99 99 98
92 84 79 82 74 93 63 47 41 47 46 43 39 32 29 31 28 30 31 30 33 31 34 39 57 93 96 97 90 94 95 97 98 97 98 98 98 97 96 96 97 98 98 98
78 89 98 94 82 64 60 51 49 58 55 44 42 36 29 25 34 32 37 34 34 38 44 71 87 94 90 89 93 92 94 94 95 96 96 94 93 95 94 98 98 98 98 98
82 84 91 99 86 89 62 39 36 45 73 43 36 40 43 39 50 38 34 43 45 54 89 96 98 94 91 90 91 93 93 93 94 93 91 89 90 92 96 97 98 96 93 92
94 96 96 99 99 78 55 47 43 75 70 46 39 34 41 44 43 35 51 62 69 85 91 96 97 97 94 92 90 94 93 93 88 86 86 88 89 92 92 93 94 92 90 92
80 90 95 95 95 88 55 58 55 58 54 52 53 43 48 50 45 44 50 67 78 94 98 96 98 98 96 95 95 96 94 85 83 83 87 89 90 88 90 93 94 90 90 93
83 72 77 71 79 56 66 62 65 62 58 55 63 58 59 57 54 62 64 77 89 94 97 96 97 98 96 91 88 93 89 81 84 86 90 92 92 92 96 93 91 90 89 94
58 70 78 77 60 67 64 68 71 68 60 56 55 57 55 55 55 68 75 85 89 89 90 89 91 94 93 86 84 85 85 84 88 91 83 76 78 76 75 76 81 83 88 91
57 66 71 71 66 65 63 65 56 65 64 55 52 55 59 58 61 74 75 79 82 82 85 84 87 88 88 85 86 83 81 75 70 69 69 74 74 70 70 73 75 81 86 85
78 79 82 60 52 63 54 52 59 64 62 50 59 56 51 55 62 76 78 82 81 87 84 81 76 76 76 75 72 71 65 62 66 69 72 77 71 67 62 65 74 77 78 79

GFSCGP_sfc_rhum_081.txt.gz
RH
45 43 49 40 37 30 31 30 28 26 26 26 24 24 20 22 54 56 64 71 80 86 70 70 78 79 81 87 89 94 96 93 94 97 98 98 98 97 96 86 76 72 64 62
45 50 39 35 38 37 31 32 30 28 26 28 24 25 22 24 30 46 53 64 69 71 84 79 82 86 85 87 88 92 91 90 89 92 96 92 96 97 92 94 86 72 69 66
38 39 36 35 40 43 41 40 37 33 30 25 28 28 26 24 39 47 54 51 61 67 79 87 86 92 86 88 87 92 88 86 87 92 96 95 97 97 95 92 84 72 71 63
38 28 35 38 36 36 40 33 36 36 37 33 29 34 29 23 24 37 45 58 60 66 69 73 82 88 87 80 86 84 86 87 85 92 92 92 81 88 81 81 69 60 71 67
42 41 35 38 37 36 34 31 35 35 36 37 26 33 32 32 28 24 24 46 53 60 67 71 79 74 76 75 83 86 83 82 80 81 84 86 85 77 68 70 70 75 75 70
34 32 33 27 29 34 32 33 35 41 40 48 34 36 34 28 27 25 24 28 48 58 65 67 70 74 75 72 77 81 82 78 75 73 75 81 78 74 76 74 69 73 72 75
32 30 30 31 34 36 34 40 48 58 61 44 38 43 33 29 26 25 23 22 38 56 64 70 77 85 82 79 80 84 82 81 78 76 75 74 72 73 71 70 68 71 74 76
37 36 33 32 32 37 40 40 45 44 52 39 44 45 30 28 27 29 28 27 31 53 63 66 69 74 80 84 83 83 82 79 78 78 75 72 70 68 66 68 66 70 68 68
40 33 26 30 32 29 45 48 34 52 71 65 45 41 31 27 28 26 25 27 31 47 60 63 65 69 72 78 86 85 77 73 74 76 76 74 72 69 68 70 70 72 72 67
44 46 34 29 26 27 34 35 51 48 53 54 46 48 30 29 26 29 33 30 31 42 59 63 63 68 67 67 73 79 75 71 70 71 72 71 71 71 68 72 74 75 74 73
43 46 47 37 36 34 34 40 46 40 48 46 49 43 39 31 28 36 38 31 31 45 58 63 62 62 64 64 66 72 71 68 70 68 69 71 70 70 73 75 73 73 72 70
71 66 51 38 33 29 28 34 36 54 60 57 50 38 29 34 33 38 32 30 27 37 52 59 63 63 64 64 63 63 64 64 71 71 72 74 74 72 73 74 71 71 69 69
61 79 64 45 31 27 35 35 32 35 51 50 65 42 31 35 32 31 31 30 29 33 51 59 63 65 63 62 61 59 62 68 68 70 75 76 76 75 75 72 71 68 70 70
64 80 93 71 58 48 42 38 38 40 56 45 48 39 33 32 31 29 33 32 30 30 44 52 59 62 62 61 59 58 62 65 65 62 66 73 74 69 70 69 73 70 68 71
68 62 64 77 66 64 58 37 33 42 42 48 41 38 33 34 30 29 33 32 29 27 33 45 49 56 60 63 62 59 60 63 63 64 65 67 69 68 64 66 75 76 79 75
63 92 93 86 63 63 64 44 33 38 37 40 43 41 32 29 28 31 31 34 28 27 28 33 41 48 58 61 63 65 64 65 63 64 67 65 64 65 69 72 82 89 87 84
68 96 100 77 75 86 72 50 38 34 37 37 45 37 32 34 36 33 33 37 34 32 29 30 34 41 47 52 64 66 65 66 68 66 65 67 68 67 71 80 96 97 97 99
70 82 99 92 98 97 50 44 37 39 35 38 39 36 32 32 32 35 31 33 34 33 33 31 31 37 48 58 58 68 67 68 70 69 70 74 80 87 98 98 98 99 99 99
66 71 100 98 97 91 62 56 52 47 42 37 38 34 33 31 35 32 31 30 34 35 35 33 30 41 69 73 78 76 81 78 78 86 94 96 96 97 97 98 99 98 98 98
65 64 95 99 93 88 72 54 44 43 60 46 46 48 44 36 50 43 40 44 40 39 38 36 41 67 73 81 81 83 92 93 96 96 96 95 95 97 98 98 97 96 95 95
89 92 94 89 89 75 57 52 53 61 58 51 51 46 48 51 43 46 57 54 53 69 73 82 77 78 77 81 80 88 90 96 93 92 92 94 93 94 94 96 94 92 93 94
84 91 94 89 92 84 57 57 66 60 65 59 52 51 57 60 59 57 62 74 82 90 90 85 86 91 86 82 84 89 94 90 89 90 92 93 93 92 92 93 92 91 92 94
62 74 79 76 74 63 63 61 62 63 68 55 60 54 57 63 64 58 68 86 95 94 92 87 89 92 91 86 84 94 95 90 91 92 95 95 93 91 89 92 94 94 91 93
49 57 72 68 54 66 57 54 59 56 60 60 62 54 55 65 62 64 78 92 93 94 94 88 93 95 97 91 90 90 90 87 88 92 91 90 90 89 88 89 90 90 92 92
52 55 62 71 60 66 53 57 64 65 69 58 52 53 56 58 66 73 83 89 87 89 90 88 92 96 96 93 93 87 83 79 84 86 85 84 83 84 89 90 87 91 92 87
68 69 75 69 82 87 78 67 73 78 76 66 60 58 70 68 81 81 81 78 78 80 79 79 80 79 76 74 76 77 75 73 77 80 80 81 81 83 80 81 88 97 97 97

GFSCGP_sfc_rhum_084.txt.gz
RH
22 27 27 21 24 20 18 21 20 15 15 19 16 15 11 9 15 20 25 30 35 39 40 44 60 67 65 68 87 91 92 85 84 97 97 96 94 93 94 76 70 67 45 46
25 30 18 19 21 27 25 24 21 16 16 20 17 15 11 10 13 15 18 26 31 38 44 49 62 66 69 68 81 92 90 91 90 85 92 91 94 90 88 80 72 66 66 52
32 21 18 23 30 31 28 26 23 20 17 18 20 19 15 9 13 18 21 21 25 32 42 51 60 66 68 67 76 89 86 86 86 88 95 96 91 95 94 84 76 67 62 50
34 26 24 25 30 25 29 19 21 23 24 24 20 21 12 14 15 16 18 26 26 30 35 47 55 65 67 66 69 80 84 81 80 84 91 94 86 86 81 74 74 71 62 56
30 33 30 33 28 23 26 20 19 22 26 26 24 24 15 12 16 14 13 19 25 28 34 43 51 57 58 63 66 75 82 81 80 84 88 92 91 77 74 72 72 70 70 60
29 25 28 28 21 22 24 27 28 28 28 37 28 21 17 14 17 15 14 14 20 26 32 37 46 55 55 62 67 73 81 82 83 81 85 86 84 83 83 76 72 55 50 50
14 21 20 24 24 22 26 28 36 43 44 38 19 22 20 16 16 16 14 14 18 24 31 38 46 53 56 65 68 72 74 79 82 83 80 76 76 79 82 66 64 58 46 43
21 18 16 16 22 22 30 28 34 40 38 32 22 28 19 16 14 14 15 16 19 24 31 37 42 48 55 61 62 70 72 74 76 78 74 72 67 72 70 69 66 52 50 50
25 22 15 16 15 14 25 33 24 34 31 48 26 24 21 18 17 17 16 15 17 20 28 33 39 48 54 58 60 72 71 69 66 71 69 67 68 63 62 60 62 54 55 49
31 35 20 19 21 18 18 18 36 34 46 43 25 27 23 22 18 15 18 19 20 18 24 31 36 46 50 54 59 68 65 62 56 63 65 62 62 61 58 58 61 58 57 57
40 36 32 30 29 27 28 32 30 27 31 37 35 24 19 20 18 18 20 19 20 23 26 32 34 39 44 50 55 61 58 52 53 55 59 62 62 60 60 62 61 61 62 59
53 55 43 30 24 23 23 26 29 40 31 34 37 29 20 22 21 22 20 21 20 26 30 32 36 38 42 47 50 54 52 49 54 56 58 62 62 61 63 64 64 65 63 60
43 72 56 38 28 23 27 26 26 28 31 40 55 32 17 16 17 18 21 19 18 22 28 32 37 39 41 44 46 48 51 53 53 55 61 63 65 64 68 68 65 61 60 56
48 42 67 66 60 52 53 41 28 29 45 39 33 27 22 20 20 17 19 18 17 20 26 32 36 39 39 41 44 45 49 51 52 52 56 63 64 64 64 62 63 60 56 54
45 48 36 35 36 36 39 43 40 35 29 38 31 26 20 18 18 18 18 20 20 18 20 28 36 38 39 41 43 44 46 49 51 53 54 58 61 59 58 59 61 60 58 54
46 75 62 66 43 38 46 39 37 34 32 24 24 26 19 19 17 19 19 19 21 20 21 21 26 33 40 42 42 45 46 50 51 52 53 50 52 53 54 54 55 58 61 58
62 66 83 64 44 50 55 46 43 31 29 28 34 26 20 22 20 20 19 19 21 22 24 25 23 26 34 40 45 45 45 46 50 52 50 50 50 50 51 50 50 54 67 71
61 59 77 71 71 82 46 59 52 38 27 23 22 22 19 19 18 19 23 25 26 27 24 26 24 25 26 32 40 42 42 45 49 49 48 49 51 52 49 49 51 65 77 89
49 56 76 78 68 54 70 62 73 59 36 23 22 21 20 20 23 25 26 33 36 35 33 28 28 26 27 28 30 40 42 44 48 49 49 48 52 54 60 75 88 91 96 97
41 53 63 68 79 64 50 48 57 45 61 38 35 36 35 30 40 30 39 39 40 42 44 55 55 36 36 47 43 41 43 46 50 52 52 63 73 81 86 95 96 96 95 96
67 71 78 68 90 53 45 46 48 97 94 58 50 39 38 40 42 41 45 46 50 54 58 64 63 56 45 52 52 52 53 59 66 75 78 84 87 92 94 95 94 93 93 94
86 72 76 71 89 74 44 40 64 82 62 52 59 45 49 42 36 36 48 56 60 69 76 67 73 76 71 61 60 69 84 87 86 88 91 92 93 93 90 93 93 92 92 95
47 77 93 62 51 43 44 50 50 50 55 54 53 47 46 42 36 38 56 66 79 88 88 79 86 90 84 78 76 90 93 89 91 93 94 93 91 90 88 91 92 92 90 93
34 39 52 46 45 44 48 48 59 54 58 52 50 42 43 45 39 47 64 72 77 87 90 86 88 94 95 91 89 90 89 87 89 92 91 89 89 89 86 86 87 90 92 92
32 39 37 38 34 44 30 49 60 60 56 54 50 44 46 44 46 55 69 76 81 86 86 87 91 92 93 90 91 88 87 84 86 85 84 86 87 88 91 92 89 93 93 87
35 51 52 51 76 75 56 55 59 62 60 54 55 54 58 56 62 64 72 73 78 81 81 87 88 87 83 80 79 79 77 76 78 81 84 87 85 84 81 82 89 96 97 97

GFSCGP_sfc_rhum_087.txt.gz
RH
15 10 17 16 16 14 17 16 15 14 12 15 16 15 12 9 8 9 13 14 17 22 23 28 38 43 44 50 70 80 86 91 92 97 97 94 94 90 87 81 82 79 64 56
14 16 13 15 15 17 20 19 19 16 14 15 16 16 13 11 10 8 9 12 16 21 25 32 40 49 53 55 64 79 81 83 88 91 91 90 90 85 82 77 62 50 56 52
22 17 14 16 20 28 22 24 23 20 15 13 17 18 15 12 11 10 8 10 11 17 27 33 42 53 62 59 64 71 79 74 81 91 93 90 87 91 89 86 68 56 52 47
19 15 19 19 20 22 29 20 20 20 20 22 15 22 17 12 10 9 9 13 13 14 23 31 40 49 58 57 59 65 71 77 76 88 92 89 85 84 75 71 56 65 63 58
21 22 22 26 22 18 25 19 21 20 19 21 19 19 17 14 13 11 12 13 14 15 21 29 39 43 47 52 60 68 74 76 75 81 90 92 84 74 71 68 64 62 69 65
23 17 21 19 21 24 23 22 22 22 22 34 24 22 20 15 12 13 12 11 12 14 19 24 33 39 44 50 57 70 76 79 78 82 89 90 89 79 81 74 73 70 71 75
22 17 19 20 27 24 26 29 37 42 41 39 19 20 20 13 12 12 12 11 12 14 18 24 33 39 44 52 56 73 74 80 79 83 81 86 86 80 78 73 74 71 72 72
19 18 10 16 20 23 27 29 40 45 40 32 18 24 17 12 11 10 11 11 13 16 18 23 30 38 42 50 56 66 69 72 76 81 79 76 80 71 70 75 69 66 65 65
22 18 10 8 11 16 21 31 24 30 29 40 28 21 16 14 13 13 13 12 13 13 17 22 26 37 42 48 55 62 67 70 75 77 78 78 76 72 67 74 70 64 58 50
29 34 17 13 13 12 15 10 26 26 41 44 25 21 17 18 17 15 14 15 14 12 14 21 25 35 38 45 51 56 61 62 69 70 75 72 67 71 67 66 69 62 59 52
34 34 28 20 21 21 19 19 20 24 28 34 35 20 16 16 16 16 17 17 17 16 14 19 24 30 37 43 46 52 53 53 58 68 70 72 71 68 67 67 66 63 62 54
42 49 42 28 18 16 17 21 20 32 33 25 28 25 14 16 16 17 16 18 18 20 17 18 24 29 37 42 43 49 50 49 52 58 64 69 72 70 68 66 64 65 62 58
35 52 51 36 26 22 24 24 22 24 26 34 47 28 14 13 18 17 16 16 17 18 23 22 25 28 34 40 43 45 50 48 47 48 57 64 67 65 66 65 64 61 60 58
43 34 40 50 54 36 35 25 24 27 37 33 30 24 18 18 16 16 16 16 15 16 19 22 26 28 31 36 41 43 48 47 45 45 49 58 61 62 62 61 64 65 63 60
35 45 33 27 23 25 30 30 29 30 31 37 28 23 18 16 15 18 15 15 16 15 15 18 25 28 29 33 38 41 44 46 45 45 48 54 58 56 56 60 61 64 67 62
46 54 43 42 29 28 30 26 25 25 27 27 26 25 15 15 15 17 14 14 16 16 15 17 18 24 30 31 36 39 42 46 46 47 50 49 53 52 57 59 60 62 62 58
54 59 66 60 30 41 51 29 26 31 33 31 31 23 18 17 18 19 18 17 16 17 18 19 20 18 22 30 33 36 39 42 46 48 46 47 49 52 54 53 53 56 62 63
61 56 64 68 52 65 28 35 43 51 48 40 31 20 16 16 16 16 15 17 22 22 22 23 20 21 20 21 28 35 34 38 44 45 45 45 47 48 48 49 50 55 59 66
46 54 87 77 58 38 28 29 39 48 54 44 37 17 15 14 15 17 16 24 28 30 31 32 33 31 24 22 21 30 34 36 40 44 44 43 46 46 47 49 52 55 72 93
37 47 63 61 60 63 52 36 45 47 69 67 59 40 29 29 43 42 33 35 35 34 37 42 42 41 34 27 28 26 36 36 40 43 40 40 44 47 50 54 84 88 90 94
56 64 74 65 60 50 45 39 45 74 95 70 72 55 70 39 36 37 33 34 36 42 45 46 48 49 50 36 39 35 34 37 38 41 42 46 49 58 85 90 91 92 94 96
63 72 79 64 58 69 38 42 72 76 74 73 86 79 71 78 32 30 37 41 47 48 52 56 65 73 64 56 52 50 64 78 76 82 86 90 90 88 88 91 92 93 96 97
67 58 66 44 46 64 39 57 51 54 58 52 55 50 52 51 35 32 40 48 56 64 65 69 76 85 85 74 73 90 92 88 89 91 92 92 90 90 90 94 96 95 92 94
31 49 92 78 65 67 45 53 48 45 54 48 44 43 42 42 35 33 46 54 66 77 81 82 87 94 95 90 88 89 88 86 88 91 91 90 91 92 91 89 89 91 93 92
35 42 34 34 59 49 62 51 53 49 48 49 46 46 50 49 50 50 56 64 70 78 81 81 84 89 89 90 92 88 86 84 88 90 90 92 92 93 94 94 93 94 95 89
49 63 55 77 62 62 51 51 53 52 51 51 51 49 48 50 53 58 69 74 77 83 79 81 88 93 94 92 90 86 84 84 88 90 90 91 90 89 86 86 92 96 95 96

GFSCGP_sfc_rhum_090.txt.gz
RH
13 16 16 13 16 18 20 20 22 20 16 15 16 16 13 12 12 12 14 14 14 17 21 28 36 45 46 66 78 84 82 91 96 96 97 96 97 96 97 94 87 87 87 79
21 19 12 9 12 16 17 20 22 21 18 16 16 17 14 13 13 12 11 11 14 15 20 30 42 48 53 67 80 86 85 88 92 90 90 88 88 86 88 92 91 83 85 80
28 20 12 12 10 14 20 25 24 30 25 18 19 19 17 14 13 12 12 11 9 15 21 32 45 53 59 70 81 85 77 79 90 90 91 91 88 88 88 86 87 84 84 83
25 16 14 17 18 13 22 19 26 33 39 46 20 28 20 15 14 13 13 14 12 12 19 30 42 55 60 64 76 78 79 79 88 88 88 86 83 82 78 77 68 62 67 65
25 20 18 20 18 18 21 20 28 41 44 34 26 26 21 16 16 14 13 13 13 17 17 30 39 52 56 61 70 78 80 78 87 85 84 83 79 75 83 78 72 62 62 60
20 16 18 16 17 17 19 22 28 32 38 55 34 26 23 20 17 14 11 12 15 16 18 27 37 46 53 58 66 76 81 79 86 86 82 81 82 80 85 76 71 69 64 68
18 20 18 19 26 22 22 31 44 61 66 60 26 25 25 18 15 13 13 13 16 17 20 25 40 44 49 62 68 73 78 80 83 87 87 78 78 79 79 73 64 64 66 78
23 27 19 18 23 26 26 34 41 56 72 73 40 38 21 14 13 12 11 14 16 16 23 25 37 43 48 60 66 67 73 77 81 85 85 81 74 79 77 66 64 66 65 67
27 21 11 11 13 20 27 36 26 39 40 57 42 37 24 16 13 14 13 13 17 18 20 22 33 43 48 57 63 72 71 77 80 83 82 84 82 77 71 69 66 71 69 66
30 39 20 12 9 12 20 23 39 37 51 45 30 28 29 23 17 15 16 17 18 16 16 22 27 44 45 54 62 72 69 73 76 81 79 79 82 78 71 73 68 70 67 66
38 35 31 18 16 18 16 18 23 21 25 37 47 38 30 36 28 19 19 20 22 22 20 22 26 42 44 51 59 68 69 68 73 75 78 79 78 79 74 73 77 70 68 64
47 51 53 29 17 15 16 20 20 34 33 33 38 37 18 22 20 20 19 20 22 22 22 21 25 40 43 51 56 61 65 65 70 73 77 79 78 77 79 75 74 74 72 64
38 43 56 38 26 22 25 22 20 22 26 35 52 38 17 22 22 21 22 21 21 23 25 22 26 34 42 49 51 56 60 62 63 71 74 76 79 77 79 78 75 73 69 67
43 39 42 53 62 43 48 37 21 25 39 35 33 27 21 21 26 28 30 22 20 20 23 26 28 30 39 45 49 52 58 58 59 67 71 77 77 77 75 75 75 74 71 68
37 46 37 29 23 23 24 25 31 31 27 36 32 27 21 20 19 19 20 20 19 17 17 23 28 32 34 42 48 48 55 57 56 57 66 73 74 73 73 71 72 73 73 69
41 65 44 44 31 28 29 24 23 26 26 25 24 26 19 18 16 17 18 18 15 17 17 18 20 25 31 34 43 48 52 58 56 55 58 60 68 69 71 71 72 72 74 72
54 60 63 64 39 35 51 35 25 22 23 25 40 39 32 29 21 18 18 20 19 19 21 23 24 24 28 35 40 46 49 54 55 55 54 56 60 64 68 67 69 72 75 75
57 56 63 75 60 67 32 20 33 31 32 32 32 31 30 50 25 17 21 22 21 27 30 31 33 36 34 30 36 41 41 48 54 54 53 54 57 62 62 64 66 71 73 78
44 53 84 78 65 44 34 26 31 39 41 62 70 65 66 54 25 22 29 31 35 37 39 43 42 44 44 42 31 37 38 42 49 52 54 52 55 58 62 65 69 73 76 80
40 47 67 71 69 65 46 59 44 39 60 63 75 81 74 64 56 58 39 38 39 42 44 47 48 47 49 46 36 36 40 42 44 50 50 53 54 58 62 66 73 91 94 95
59 71 80 77 73 51 39 64 73 72 81 68 69 82 87 88 72 79 79 38 40 43 49 54 58 64 66 60 55 50 55 55 46 51 59 70 74 79 90 92 92 94 96 97
73 77 83 72 67 72 55 48 82 74 59 59 60 76 83 76 61 58 65 52 54 59 64 67 74 80 77 70 70 81 88 83 82 84 89 90 89 88 90 95 96 96 97 97
74 54 71 56 54 66 84 68 49 49 56 56 61 57 72 71 58 61 90 77 72 74 79 80 84 89 87 82 81 91 93 86 89 90 94 94 93 92 93 97 97 97 94 94
52 40 72 68 54 63 76 59 50 49 54 52 51 52 54 63 70 69 67 70 75 79 82 80 82 87 90 88 87 87 85 83 86 92 92 91 94 94 93 91 92 93 94 93
64 71 59 66 63 68 72 58 56 52 51 52 49 52 54 57 62 68 72 75 79 80 81 83 88 92 92 88 89 88 87 84 88 89 90 92 92 92 94 95 95 94 96 91
80 77 84 99 66 65 74 60 56 57 56 53 53 56 54 60 67 72 82 82 81 84 85 88 89 90 96 93 93 92 92 89 88 91 92 93 91 90 90 89 94 96 96 95

GFSCGP_sfc_rhum_093.txt.gz
RH
21 26 29 27 27 28 29 30 32 26 18 20 24 26 23 15 16 17 22 19 19 20 34 39 48 60 87 92 92 94 94 98 97 98 98 98 98 98 98 97 94 95 94 93
22 25 18 17 17 19 20 25 26 20 18 20 23 32 31 24 17 17 19 21 21 22 36 47 52 78 86 94 93 94 91 96 95 94 94 94 94 94 96 96 96 94 93 88
32 30 19 17 17 15 14 20 26 28 28 34 43 42 37 23 18 16 16 17 18 19 39 54 54 75 92 96 95 93 89 92 92 92 91 93 92 94 96 95 96 96 92 87
38 29 28 23 18 16 17 13 15 22 48 62 42 76 47 36 23 16 15 15 16 17 40 53 57 77 92 96 93 90 84 92 91 89 89 90 89 92 89 88 90 94 93 92
34 33 32 31 24 21 23 19 19 41 54 61 54 73 57 30 24 18 17 16 16 18 43 56 59 66 87 92 93 87 81 91 89 86 85 86 86 82 84 86 89 90 92 90
26 21 24 25 23 23 26 30 37 46 52 82 62 61 61 36 26 18 16 15 20 20 43 56 58 64 84 88 89 88 84 90 87 84 81 85 84 80 81 80 81 79 74 74
26 23 19 21 28 29 32 36 62 76 73 74 37 53 54 32 21 16 16 16 18 19 42 56 66 69 76 88 90 88 84 92 88 84 81 75 81 82 79 73 73 70 71 72
36 38 22 18 24 34 33 34 67 71 84 85 47 70 54 35 34 16 15 18 20 27 40 55 63 67 71 81 88 86 82 90 88 84 80 72 76 79 75 70 72 67 65 66
40 34 28 16 16 26 37 41 32 50 48 73 52 40 35 33 25 18 16 17 21 30 39 52 58 63 69 76 83 85 83 82 88 86 79 74 74 75 76 71 70 68 66 64
41 53 34 24 18 23 26 28 46 51 64 60 40 31 52 37 34 31 21 23 25 27 35 49 53 58 68 72 77 77 76 77 81 85 83 78 75 72 73 69 71 66 67 63
63 66 49 31 24 20 25 30 37 32 50 64 58 46 34 37 35 40 38 29 28 28 29 41 50 53 63 70 75 76 74 74 80 80 82 82 79 74 73 72 67 72 76 73
50 65 69 49 34 34 19 20 22 36 38 38 43 37 30 27 39 42 52 52 26 25 27 36 48 53 64 69 77 78 74 77 79 79 80 83 85 81 77 74 72 70 74 74
44 60 70 50 41 48 51 25 22 27 30 36 58 46 20 21 36 44 46 58 36 34 31 39 50 54 63 68 75 78 76 75 71 74 81 82 85 86 83 81 77 70 72 72
48 51 56 67 59 55 48 37 30 49 57 41 34 25 21 23 36 48 47 40 32 33 27 38 52 52 58 65 69 75 78 76 75 78 80 82 82 82 83 81 79 81 77 73
52 57 53 43 37 32 34 31 30 28 55 68 52 39 27 27 31 28 26 20 26 29 23 30 44 51 57 61 65 68 73 73 73 78 80 80 73 73 77 81 81 79 80 77
58 77 66 63 45 40 41 34 30 28 28 30 33 34 38 36 35 45 46 28 20 22 20 27 30 44 53 56 59 62 68 69 68 76 80 77 79 78 83 85 84 84 82 80
68 79 84 82 55 58 67 46 33 31 27 30 44 60 73 70 66 65 62 50 32 34 42 45 46 49 54 62 63 61 64 64 66 67 76 77 78 80 80 81 81 86 88 84
69 73 82 94 76 89 49 30 30 47 67 73 74 77 73 73 66 59 67 44 48 54 54 54 56 55 55 56 60 60 62 64 64 65 63 68 77 80 78 79 80 79 80 85
55 72 95 96 92 64 43 62 79 87 88 75 76 74 71 72 66 67 66 80 60 62 62 66 68 72 72 72 69 60 62 64 64 64 63 63 69 74 78 81 81 82 85 86
51 66 83 91 90 83 70 68 66 61 95 73 76 84 84 75 89 86 75 81 71 75 74 80 81 82 84 83 77 77 86 82 78 65 61 70 77 72 76 80 90 98 98 98
74 81 84 88 94 74 78 74 68 95 96 70 71 78 85 91 90 81 77 79 80 80 80 78 81 86 84 82 82 92 91 93 92 88 82 85 82 79 84 97 95 96 98 97
80 95 95 91 92 86 84 71 93 92 72 73 76 71 85 86 91 84 82 79 79 83 80 78 85 88 84 80 81 90 91 87 90 93 95 96 97 96 95 97 98 98 97 97
91 74 87 76 83 93 86 79 62 66 71 70 71 64 69 78 85 88 85 79 78 80 82 78 84 86 86 84 84 91 87 85 90 93 95 95 97 98 98 97 98 97 95 96
73 73 84 80 79 89 84 72 58 58 64 61 60 61 65 78 75 78 80 80 80 81 83 81 84 89 92 86 86 88 85 83 86 90 92 92 93 93 92 93 94 95 97 95
92 92 90 88 86 76 67 66 66 64 61 60 58 64 67 70 79 80 83 82 82 84 86 86 90 92 93 90 90 85 83 82 85 86 87 92 90 90 93 94 92 93 98 97
84 99 99 100 99 84 73 64 60 64 65 62 65 68 69 72 78 78 83 82 83 86 86 88 90 92 93 92 96 94 84 80 85 89 89 91 88 91 90 90 93 94 95 96

GFSCGP_sfc_rhum_096.txt.gz
RH
24 27 35 33 37 39 42 42 44 40 27 26 26 23 22 29 31 29 26 19 19 19 35 53 70 86 92 94 95 94 96 97 98 98 99 99 99 99 99 99 98 96 92 92
29 29 22 23 25 27 28 30 33 27 23 22 24 30 32 33 30 29 29 22 22 26 52 59 75 93 94 95 94 95 96 95 95 94 96 96 97 97 98 98 98 97 97 96
29 24 18 21 22 23 22 24 24 25 23 31 43 34 28 25 33 30 26 23 19 22 48 62 85 95 97 96 96 95 96 95 93 94 95 97 96 98 98 99 98 98 96 94
45 29 20 27 21 20 25 18 17 17 23 32 45 44 32 29 30 30 29 24 20 22 42 59 79 97 96 96 93 95 95 91 90 93 93 95 95 96 92 93 96 98 95 94
37 46 44 43 39 23 23 20 20 18 46 62 63 72 40 49 42 35 29 22 18 20 40 59 77 89 92 95 96 95 95 85 89 92 91 91 91 86 90 91 96 97 98 94
32 25 28 31 26 27 28 31 35 50 60 79 65 60 36 53 41 34 26 21 19 22 42 54 67 86 94 95 95 96 94 85 91 88 87 89 89 90 91 90 93 95 97 97
34 29 24 22 29 27 33 41 59 76 80 74 48 62 44 39 35 34 32 25 24 21 40 58 78 95 96 96 96 95 93 86 91 90 86 90 87 90 88 88 88 90 94 96
43 45 26 23 25 32 39 44 66 66 76 65 56 71 64 41 35 31 32 28 26 24 50 61 75 90 94 94 94 93 95 85 88 91 84 82 87 83 81 80 81 80 83 88
44 37 25 20 19 24 35 45 40 55 64 72 63 51 37 36 47 46 41 36 25 24 50 64 70 84 89 92 93 91 94 83 84 88 82 78 85 80 77 78 74 74 76 73
47 56 39 34 21 26 33 33 52 56 68 69 52 44 42 47 59 52 51 47 44 42 58 64 68 76 82 86 88 88 88 87 80 85 81 74 81 79 75 72 80 74 73 69
62 68 53 42 32 29 34 37 45 48 64 68 71 51 58 72 66 67 48 43 44 42 56 63 66 69 75 84 87 87 86 91 81 83 80 75 75 78 77 74 72 75 73 73
61 74 73 54 44 44 41 34 46 72 62 62 66 50 46 59 69 58 53 47 47 44 38 56 61 69 79 84 86 86 84 86 88 85 83 79 76 75 78 76 70 74 72 75
54 63 72 55 58 62 72 57 40 49 41 44 63 47 26 32 43 51 61 57 50 43 33 44 58 68 79 81 83 81 81 82 82 84 85 85 83 79 78 77 74 69 78 78
52 54 61 67 62 61 70 74 41 53 84 70 58 38 34 44 42 57 68 56 48 35 27 57 61 64 75 78 80 80 81 82 80 82 82 85 87 83 79 76 74 74 75 77
57 61 65 60 48 43 40 55 45 42 49 72 65 59 47 56 53 59 56 52 42 35 31 54 69 66 73 78 80 79 80 82 83 85 78 76 80 84 84 81 78 78 78 78
64 77 72 68 52 51 54 46 42 37 34 36 40 48 74 65 62 64 73 66 41 45 55 54 56 70 72 73 79 80 82 83 80 79 78 76 76 80 85 85 84 83 86 82
72 82 86 85 68 62 68 53 42 39 80 68 64 88 73 76 70 81 85 72 62 66 71 72 76 72 76 83 84 83 86 86 84 84 84 83 79 78 79 82 85 85 84 85
72 77 88 93 75 86 51 49 64 82 82 79 79 81 77 76 70 74 80 82 84 84 86 85 85 82 84 84 83 79 73 79 83 82 83 83 83 83 78 78 80 85 85 86
64 80 92 94 96 67 55 73 79 76 88 76 83 83 79 68 69 76 78 83 87 87 86 86 83 83 84 85 84 82 86 82 80 77 79 84 86 85 85 86 87 86 89 92
66 74 82 95 88 88 86 68 60 64 98 73 80 81 84 78 93 90 81 84 85 83 83 83 84 81 81 82 81 85 88 90 91 89 88 90 85 87 88 88 89 90 89 92
89 91 91 91 95 80 85 80 73 83 98 77 76 78 89 95 94 91 82 79 78 79 80 77 79 83 83 79 78 84 86 94 91 88 92 96 96 94 91 91 97 99 99 98
89 94 97 92 94 90 79 78 85 89 84 74 77 79 89 88 89 89 84 83 78 80 79 78 84 87 82 80 81 87 92 87 87 89 90 92 96 97 98 98 99 99 98 98
96 77 90 77 82 89 89 79 70 70 72 75 80 79 83 82 82 86 89 86 82 83 81 80 86 87 86 84 83 91 88 84 86 88 90 92 91 91 94 97 98 98 98 98
90 80 91 89 93 88 77 69 66 67 72 72 74 74 75 84 81 81 81 83 89 84 86 82 84 88 92 90 87 85 83 79 82 88 89 88 91 93 94 93 95 96 99 98
90 87 98 98 96 78 78 70 70 69 69 72 72 73 77 78 80 79 82 83 85 85 84 86 91 94 95 93 94 88 80 80 82 83 84 88 89 89 92 94 95 94 98 97
89 98 98 99 100 98 80 68 65 71 73 72 74 77 74 75 78 78 84 82 83 86 84 89 93 96 96 94 93 90 85 84 87 89 88 88 86 88 88 89 94 96 96 97

GFSCGP_sfc_rhum_099.txt.gz
RH
29 31 34 38 41 35 42 48 52 46 32 31 34 31 27 23 28 35 33 33 30 27 26 50 72 83 92 96 96 96 98 95 96 96 97 98 99 99 99 99 98 95 97 93
31 34 27 30 34 36 37 42 45 36 30 31 30 27 21 29 33 32 32 35 35 31 50 74 93 94 95 96 95 96 95 92 91 91 91 98 98 98 99 99 99 96 96 94
42 33 24 25 28 29 30 32 32 32 27 26 36 28 33 30 30 30 29 31 28 30 42 78 94 95 96 94 96 95 88 88 89 95 99 98 98 98 99 99 99 99 96 96
45 27 24 27 25 25 28 22 21 23 27 32 40 32 22 31 28 32 32 29 24 30 39 65 86 94 92 94 94 93 87 87 88 94 97 96 93 98 95 96 98 98 98 97
47 48 44 30 29 24 29 26 26 26 27 34 41 73 40 41 41 29 26 30 30 29 33 63 79 85 90 89 96 91 87 88 95 92 97 98 94 90 94 96 98 98 98 98
36 32 32 42 36 39 33 34 37 43 43 72 44 66 38 35 41 38 33 31 37 30 31 54 64 81 86 86 93 89 87 89 87 92 97 96 93 93 95 96 98 98 98 98
34 28 31 27 34 32 36 44 64 76 88 67 55 66 40 38 34 39 46 52 44 37 33 58 77 92 88 90 91 88 88 88 88 93 97 95 93 91 90 92 93 97 98 98
50 43 32 28 28 34 39 43 65 63 71 53 55 71 50 48 48 50 51 50 43 42 39 50 71 88 85 87 89 88 88 90 88 90 95 88 92 86 85 86 87 90 92 94
47 43 28 24 24 24 36 47 38 51 68 76 71 58 40 49 66 64 62 57 54 47 44 51 70 87 86 86 92 93 86 85 86 87 96 94 91 88 87 88 84 85 90 94
42 55 40 38 25 27 28 30 52 62 68 65 57 56 53 72 78 69 68 70 58 47 46 54 73 86 88 90 91 91 83 82 83 86 93 89 89 86 85 81 83 82 82 90
54 64 48 44 38 32 38 44 47 46 65 57 63 59 75 74 69 75 79 75 61 52 45 69 72 82 86 87 90 91 86 83 81 83 91 89 89 87 86 84 81 81 79 81
67 82 71 46 60 60 36 45 52 65 62 70 70 58 48 54 64 68 72 78 60 53 46 50 69 82 85 91 90 92 88 84 78 78 89 87 90 86 86 83 81 78 79 81
86 87 80 66 70 58 73 64 49 60 57 63 70 64 42 40 50 61 80 82 67 58 48 48 70 76 87 90 90 90 90 84 79 76 86 87 87 88 86 84 79 78 76 77
87 89 89 71 67 59 70 66 67 62 81 77 68 56 49 61 59 66 70 74 77 53 60 70 65 74 83 86 88 88 89 89 84 79 81 89 87 84 84 80 77 76 75 79
86 94 83 65 53 49 53 52 62 50 53 66 62 54 63 76 73 66 63 65 68 60 76 82 81 82 84 88 89 88 91 90 91 86 84 82 88 83 82 81 79 76 76 76
78 94 77 72 61 57 60 51 48 48 44 46 55 52 74 70 69 82 84 70 68 83 80 80 84 88 87 90 92 92 93 92 88 89 92 86 89 88 87 85 81 81 79 77
72 82 85 79 74 64 69 60 52 84 84 83 78 86 76 78 81 92 91 91 88 86 87 85 87 89 90 90 89 95 92 91 93 91 89 86 85 89 87 85 83 83 83 82
73 79 89 92 79 80 62 70 65 79 79 80 80 77 80 76 83 86 88 93 94 86 88 87 86 87 87 86 88 87 89 90 90 89 88 87 85 86 86 85 87 87 85 87
73 80 93 93 96 64 74 73 77 85 98 78 85 78 78 81 72 89 82 83 88 88 85 84 82 82 80 80 82 85 88 86 88 87 89 87 88 88 86 88 89 90 90 90
74 72 81 95 90 91 83 77 74 77 98 81 82 85 88 77 97 94 84 81 81 78 79 82 81 80 81 78 76 82 88 88 91 89 90 91 95 89 88 86 87 87 88 92
92 93 88 94 95 79 77 83 77 83 89 86 82 90 90 93 88 88 83 84 79 77 78 79 81 87 83 78 79 86 88 94 88 86 87 90 92 96 96 91 91 92 93 100
91 93 94 91 96 87 83 79 75 88 91 81 85 90 87 88 87 85 85 87 88 86 83 79 85 89 84 80 82 87 89 84 84 86 89 90 90 90 94 97 98 98 99 98
99 89 92 82 85 90 82 86 78 76 81 84 85 84 86 85 82 81 85 86 88 88 88 80 84 88 88 86 81 88 84 80 83 86 88 89 89 91 91 95 96 97 95 96
100 94 97 91 93 88 86 74 72 74 81 77 76 78 79 84 80 80 80 82 88 88 88 84 88 93 95 89 87 83 80 76 80 86 87 87 90 92 92 92 93 94 94 94
98 97 100 99 99 96 85 76 76 78 76 76 75 77 79 75 80 79 82 83 83 84 85 87 93 95 95 90 88 84 82 77 79 83 84 88 88 91 94 96 96 96 98 93
98 99 99 100 100 98 97 70 73 78 79 77 78 78 74 74 79 78 84 82 83 86 86 87 91 95 96 93 90 87 86 87 89 89 88 90 88 88 88 89 92 96 97 97

GFSCGP_sfc_rhum_102.txt.gz
RH
29 31 38 42 44 40 45 48 54 52 38 38 38 36 35 29 27 27 33 33 32 33 30 36 52 42 88 96 97 96 95 97 97 98 98 99 98 96 96 95 96 96 97 96
31 37 26 28 40 44 44 50 53 42 34 37 39 34 30 26 24 26 25 34 36 35 31 39 82 93 96 96 95 93 94 96 94 91 95 94 93 96 98 99 99 96 98 96
37 32 26 29 37 40 42 45 42 41 30 28 32 24 22 25 31 32 33 34 35 34 33 33 80 96 98 96 93 89 95 91 91 90 94 98 98 99 99 99 99 99 95 96
38 31 28 29 30 32 39 30 30 30 29 32 36 34 27 24 25 30 29 35 33 33 36 34 59 97 97 95 86 87 94 92 90 91 94 93 97 97 98 95 98 99 99 98
48 46 40 36 29 26 30 27 29 29 33 35 51 44 41 32 30 27 27 29 38 49 45 37 45 79 92 94 87 90 88 89 88 91 91 90 88 85 96 98 98 98 98 99
37 32 38 40 32 27 30 36 38 45 43 63 42 38 44 37 34 38 39 45 56 54 49 46 39 85 95 91 90 85 89 90 88 89 89 94 96 94 97 98 98 98 98 97
31 25 32 28 35 37 37 46 63 78 82 61 44 54 36 37 41 53 61 64 63 58 54 50 48 93 96 92 91 86 88 92 92 97 95 97 96 93 92 92 94 98 98 99
44 39 29 28 30 34 42 44 65 66 71 63 63 73 56 55 67 66 67 64 63 58 54 54 48 64 94 90 90 89 88 89 92 93 92 97 96 93 93 93 91 94 95 97
50 43 31 29 28 26 42 51 39 52 61 71 60 61 43 64 70 71 73 67 68 59 55 55 48 59 86 89 88 88 82 87 87 88 90 97 96 95 92 94 93 93 93 95
49 49 40 42 27 30 30 35 54 68 70 63 61 64 57 64 65 75 80 81 78 63 62 58 49 81 82 82 83 85 80 84 86 87 86 96 96 96 96 95 95 90 94 94
78 63 51 38 43 39 41 43 47 48 64 60 56 55 57 67 66 77 84 84 84 71 64 59 56 76 83 81 82 86 79 81 85 86 85 95 96 95 95 93 90 89 92 94
88 89 79 52 46 60 40 50 46 62 61 72 65 49 61 61 71 78 89 77 74 75 69 59 66 74 87 87 86 86 79 81 85 85 89 95 95 94 94 94 91 85 91 91
85 91 87 66 66 60 70 69 60 62 64 64 78 63 46 59 64 78 86 74 76 78 76 74 82 84 90 85 85 80 84 85 84 83 88 93 96 94 93 92 91 86 87 89
77 89 91 84 83 70 75 67 71 66 72 64 66 65 60 82 83 74 76 75 81 85 79 78 86 85 87 86 80 84 87 87 84 79 85 89 96 94 93 91 90 88 84 84
88 98 93 86 92 76 63 74 66 65 59 66 60 64 86 87 85 87 84 65 81 82 83 81 89 91 91 88 86 89 92 90 85 84 85 87 92 93 93 92 89 90 88 82
88 97 99 91 76 66 64 69 70 64 63 59 54 63 81 78 82 89 89 86 88 88 87 85 85 90 91 92 93 92 93 94 90 86 91 86 88 91 93 93 92 88 84 83
92 87 93 80 76 71 72 61 65 90 93 88 78 88 81 79 88 93 90 89 90 90 90 88 88 89 89 90 90 94 94 94 95 94 93 90 87 88 92 91 90 86 83 82
95 80 91 86 78 81 84 78 73 84 82 81 78 74 75 84 92 84 83 90 92 91 89 88 88 85 84 82 84 88 90 93 94 93 92 92 90 91 90 90 87 86 85 87
86 81 91 91 96 67 79 81 86 86 97 83 89 84 82 75 79 84 81 81 85 84 85 85 84 84 81 80 78 82 86 90 89 90 92 93 94 89 90 94 94 90 91 91
82 77 80 92 89 91 74 88 80 85 95 85 83 88 86 75 90 93 86 84 84 80 82 84 83 82 80 79 77 81 86 88 92 91 90 89 89 94 96 90 91 93 92 93
95 94 92 90 94 78 79 85 82 91 90 88 89 92 91 94 96 89 83 84 82 85 82 78 82 88 85 78 77 84 86 90 86 84 85 87 88 91 94 97 97 94 96 98
92 93 97 89 94 89 88 87 83 91 92 94 93 93 91 88 85 82 81 85 87 90 88 84 86 88 85 80 78 84 87 82 81 82 85 86 89 88 88 94 96 97 98 98
98 99 99 80 80 88 85 87 86 84 90 88 89 87 86 84 82 82 84 85 95 97 96 88 89 90 86 82 82 86 81 79 82 84 88 89 89 88 89 94 95 96 94 96
97 97 100 97 98 96 90 85 79 78 84 80 79 79 75 82 79 81 82 83 93 97 96 85 90 94 92 85 83 84 79 75 80 86 88 89 92 94 94 92 94 95 95 95
98 100 100 99 100 97 94 96 93 79 78 78 76 77 76 76 80 80 83 84 86 94 92 88 93 95 93 86 86 84 83 80 83 84 84 89 89 90 92 95 96 96 98 95
99 99 99 99 100 100 99 98 72 79 80 78 79 79 75 75 78 78 84 85 86 88 86 88 90 92 94 89 89 84 84 84 86 88 88 90 87 87 87 86 91 95 95 94

GFSCGP_sfc_rhum_105.txt.gz
RH
30 37 37 31 31 26 33 32 32 37 31 31 32 29 27 24 24 24 22 20 18 21 19 24 28 33 41 45 61 72 78 82 89 96 96 97 97 96 96 94 91 92 92 92
33 48 32 25 34 32 33 34 36 36 31 31 28 28 21 19 18 16 16 16 18 23 24 27 30 40 57 53 69 75 76 82 80 82 89 87 88 90 91 93 92 90 92 92
42 24 25 25 29 37 37 39 38 36 28 21 23 18 12 15 16 16 18 20 25 27 30 38 37 36 52 67 73 75 74 81 77 79 84 83 89 90 95 96 95 93 91 95
35 25 29 32 28 29 33 32 33 35 32 31 22 18 18 17 18 20 20 23 27 41 41 40 41 41 42 60 72 74 75 82 78 81 84 83 77 82 84 87 87 96 96 96
45 46 37 33 28 30 30 31 30 30 28 25 24 29 25 24 21 21 23 37 48 47 46 45 44 42 44 58 73 74 82 81 81 82 80 81 84 77 78 79 86 96 97 97
36 27 35 35 28 25 24 28 31 34 32 45 33 30 28 23 23 30 46 49 51 50 47 45 43 43 43 67 73 76 86 84 85 81 84 88 87 78 75 78 85 89 96 98
28 28 27 27 33 27 31 39 49 64 54 47 34 33 27 28 39 50 51 47 49 49 49 48 46 46 47 53 75 77 83 86 86 84 88 87 85 80 79 84 88 95 95 95
27 26 22 25 30 34 35 37 41 47 60 44 43 40 30 36 53 52 49 48 50 51 51 48 47 48 47 52 69 77 79 83 83 87 88 86 79 74 72 77 80 84 78 88
41 34 23 26 21 26 37 40 35 44 48 51 39 42 36 59 59 57 54 55 54 54 52 50 48 48 49 53 70 79 78 82 84 88 89 87 79 75 72 77 82 83 84 84
53 45 36 33 23 25 31 32 43 48 53 49 40 42 35 51 45 54 49 55 54 55 48 51 50 50 53 57 71 82 80 83 85 88 81 82 81 77 75 79 84 82 81 83
73 55 44 35 35 32 31 31 38 39 46 38 43 34 36 46 44 48 56 62 60 63 59 56 54 56 64 67 72 78 78 81 84 84 80 91 84 80 79 81 82 80 82 83
82 79 65 45 37 46 33 35 32 39 48 47 40 34 46 50 48 58 61 66 64 64 62 66 68 71 72 71 79 81 82 82 85 84 84 90 86 82 82 82 81 81 87 86
76 84 73 59 63 47 57 53 41 48 47 41 49 40 50 59 61 63 64 62 72 66 62 79 78 78 78 81 83 83 84 85 86 83 87 90 89 85 84 82 80 78 82 90
72 80 82 59 69 71 63 55 55 52 54 46 43 40 54 64 70 73 74 65 72 72 73 84 86 84 87 90 86 84 86 86 87 83 84 90 91 84 81 79 78 78 76 84
87 92 82 74 75 75 64 56 55 52 48 50 48 51 44 67 75 81 74 74 77 79 80 87 91 91 87 90 88 86 88 89 87 85 84 87 86 83 80 80 78 76 77 74
94 92 92 82 71 66 56 51 60 59 54 56 53 51 71 68 76 78 84 83 86 86 82 84 86 89 87 88 91 96 93 94 88 86 88 84 85 85 84 81 79 79 77 73
97 88 81 66 70 60 52 52 54 63 76 75 63 72 70 77 91 92 89 86 89 86 87 88 88 91 90 88 89 94 96 95 92 92 90 88 87 86 85 81 78 77 77 75
92 87 78 73 69 70 78 72 59 67 75 77 69 76 73 84 87 86 82 88 89 86 87 89 90 90 91 86 85 87 93 96 95 92 90 88 90 89 86 82 81 81 77 83
78 81 82 78 74 57 66 80 80 81 85 81 90 82 74 70 82 93 83 81 86 86 86 88 90 91 88 88 87 86 86 87 88 90 92 92 92 93 91 90 89 83 84 86
85 82 76 82 71 73 77 84 72 73 83 78 82 86 78 64 92 96 84 81 83 84 89 86 88 86 86 91 86 84 86 88 91 90 87 85 86 89 91 95 98 91 89 90
84 94 91 73 72 60 83 78 75 82 88 92 84 91 91 94 94 87 80 82 90 94 87 83 84 87 83 80 77 83 85 89 83 81 82 85 86 87 89 92 94 97 98 98
83 87 86 79 79 72 84 77 74 95 90 84 87 87 90 85 83 81 80 82 94 94 95 92 86 86 79 77 75 80 85 80 79 81 84 86 87 86 86 91 93 94 95 97
95 95 97 80 84 90 86 90 80 76 81 82 84 79 77 80 83 82 85 83 94 97 98 98 92 84 81 77 77 81 79 76 81 84 88 89 89 88 88 93 93 94 93 95
90 96 100 100 97 96 92 83 73 71 77 74 72 72 71 81 79 80 80 82 89 97 97 95 92 88 88 81 78 78 76 73 76 83 85 84 88 91 92 89 92 94 95 96
96 98 99 100 100 99 98 98 96 85 76 72 70 71 72 72 78 78 80 81 83 92 95 94 94 92 90 83 79 75 75 72 75 77 78 83 82 85 88 94 94 94 97 94
94 97 96 97 100 100 100 99 95 92 76 72 72 72 72 70 73 73 80 82 82 85 84 84 86 85 88 84 82 76 73 73 77 81 81 84 79 79 82 83 90 93 92 91

GFSCGP_sfc_rhum_108.txt.gz
RH
16 20 23 17 22 20 19 18 19 16 18 22 22 19 16 15 18 18 17 16 15 15 12 10 18 21 23 25 27 27 36 50 56 81 85 87 95 89 84 81 74 68 72 74
18 23 14 14 17 25 29 35 22 16 22 25 20 18 15 15 15 15 13 11 10 11 9 16 22 27 30 33 33 36 40 49 54 71 74 71 86 84 82 86 75 75 74 79
22 14 14 18 22 27 32 36 34 21 17 20 20 17 14 11 9 8 8 10 9 12 16 22 27 30 33 34 38 38 40 45 54 59 78 72 82 82 92 90 86 82 75 84
19 18 17 24 26 26 27 20 20 26 40 24 13 15 12 11 12 11 12 14 16 22 28 27 29 30 33 35 37 40 42 45 53 58 79 75 75 78 69 76 78 85 82 86
29 21 27 26 23 21 24 17 23 25 25 24 15 16 11 15 13 13 14 18 27 30 31 31 32 31 30 33 45 47 48 49 57 61 76 70 63 57 57 60 69 87 90 88
24 26 20 20 24 22 22 26 24 23 23 28 18 14 12 14 14 16 23 30 33 33 32 30 29 30 29 33 41 52 54 53 64 75 75 70 63 57 59 68 79 86 90 91
22 27 26 28 30 30 22 28 41 47 42 31 21 21 16 17 19 20 27 28 30 30 31 31 29 29 33 37 40 48 54 56 68 82 80 68 62 63 61 62 64 76 80 89
27 31 24 25 28 29 28 29 29 44 39 31 28 32 20 16 22 30 27 27 29 30 31 30 29 32 34 37 40 45 52 60 70 83 82 70 67 57 55 57 57 66 71 70
24 20 18 17 20 21 31 36 23 36 34 39 26 26 31 32 34 34 30 29 29 30 30 33 34 37 39 44 49 50 58 62 72 84 86 80 72 60 57 59 60 64 66 71
40 33 18 19 17 16 21 20 38 31 35 31 18 22 20 38 35 34 31 28 33 34 38 39 39 44 44 44 56 56 58 68 70 82 85 84 74 62 58 60 73 71 74 69
54 38 39 28 27 22 24 31 30 26 28 26 26 24 24 24 29 32 30 34 39 44 43 41 44 46 45 49 62 54 64 69 75 80 86 86 70 63 63 65 74 77 70 66
66 66 42 35 39 22 16 21 25 33 33 31 28 24 30 35 34 35 38 43 44 47 42 41 46 51 51 63 76 61 70 72 75 81 88 81 73 65 69 71 75 78 74 68
77 66 44 42 46 38 36 29 22 27 30 34 42 35 34 38 39 44 47 44 46 51 50 47 50 55 62 75 76 80 81 79 82 82 87 85 84 73 73 72 73 74 73 68
70 62 67 49 47 43 49 39 34 34 39 30 28 26 34 36 41 47 52 64 69 64 58 63 64 62 75 79 80 84 85 84 85 84 86 87 89 77 73 71 74 73 76 75
84 71 62 50 50 53 45 41 36 34 34 40 28 31 33 46 49 62 66 66 67 68 65 69 75 75 82 82 82 83 89 90 87 89 89 90 87 74 69 70 72 71 73 77
91 73 74 60 45 52 50 38 36 33 35 36 34 34 46 56 65 71 70 70 73 75 72 68 76 78 85 86 85 83 94 92 89 91 91 86 84 76 74 72 73 76 74 70
85 77 64 54 46 48 51 42 35 36 42 46 46 54 54 61 78 84 77 75 78 79 75 76 86 91 92 91 89 90 93 92 91 93 90 83 76 78 76 72 71 74 75 72
84 72 61 58 49 67 58 50 42 37 46 48 56 67 56 74 84 80 76 81 83 81 82 80 84 93 95 91 87 89 90 94 95 94 92 89 85 81 75 74 74 72 70 71
52 66 69 68 52 38 38 83 62 53 79 74 87 74 57 72 80 90 78 76 83 84 85 88 81 89 98 97 92 93 85 87 89 89 89 89 89 90 88 87 82 76 74 73
59 65 70 55 57 54 82 92 57 58 89 76 78 76 69 62 96 95 78 79 80 84 83 93 80 87 95 99 94 93 88 88 93 90 92 86 86 87 91 93 95 94 87 88
76 91 85 66 59 41 63 70 69 82 92 86 77 81 78 89 91 82 74 77 80 90 93 91 81 88 88 96 100 96 97 98 97 89 86 88 84 88 89 91 93 96 97 95
64 72 72 64 65 62 74 60 82 92 79 76 78 76 80 82 80 78 77 79 87 90 91 94 93 84 91 81 79 83 90 95 94 89 84 85 86 84 84 89 91 91 94 96
89 79 92 87 92 88 80 87 73 67 67 68 69 68 69 73 77 77 80 80 90 96 96 95 91 89 80 73 77 77 74 74 76 77 82 85 84 82 83 89 91 92 92 95
71 87 92 97 99 96 96 94 78 61 63 58 57 60 62 72 71 71 73 76 86 97 96 95 92 90 86 81 70 78 72 68 69 74 77 80 87 89 89 87 91 92 94 95
80 81 100 100 100 98 93 95 94 77 65 59 57 58 60 62 67 66 68 72 75 85 94 96 95 94 92 86 81 69 68 66 67 68 69 74 78 84 88 92 92 94 97 93
79 98 96 99 100 98 97 93 84 84 71 59 58 60 60 59 61 61 65 65 68 74 74 83 89 86 88 83 81 76 71 71 71 72 74 76 73 79 81 82 90 93 90 88

GFSCGP_sfc_rhum_111.txt.gz
RH
20 16 17 15 18 18 20 22 21 18 14 19 21 19 15 14 14 15 15 15 15 14 12 12 12 14 16 18 19 19 22 31 42 47 51 57 79 76 70 53 56 58 64 73
18 18 12 12 12 18 21 24 28 19 16 18 18 19 15 14 13 13 14 15 14 13 12 12 12 15 22 23 24 25 24 27 31 38 44 66 78 77 74 65 61 58 71 72
19 13 9 12 13 15 20 24 27 22 19 22 18 20 16 12 11 11 12 12 11 10 9 10 13 21 24 26 27 26 26 27 32 40 52 73 76 77 84 84 70 67 70 68
15 9 10 12 14 14 20 19 23 26 31 42 27 32 18 14 10 10 10 10 9 9 10 12 18 22 24 28 29 33 31 30 32 42 53 75 74 77 72 75 67 66 69 70
20 14 14 16 14 16 20 21 27 28 29 28 22 28 19 10 10 10 10 10 12 15 19 19 21 21 21 23 29 37 38 35 34 39 51 70 77 64 57 62 67 73 74 78
18 13 16 15 13 16 18 22 23 23 26 33 23 19 17 13 13 9 9 14 19 22 22 20 20 21 20 24 31 36 39 39 40 42 51 73 77 62 52 56 60 69 79 78
34 40 15 15 22 20 23 33 51 53 45 40 19 19 16 11 12 12 17 20 23 23 23 23 21 21 23 26 30 34 32 40 43 50 54 77 76 69 55 56 59 66 70 82
26 38 29 22 19 26 26 27 54 59 52 37 18 26 16 11 12 15 18 20 22 23 24 22 23 27 28 29 32 37 38 36 42 50 68 70 76 71 60 57 55 60 63 68
26 25 16 23 19 19 26 26 21 35 36 45 29 20 21 14 16 22 21 19 20 21 22 26 29 33 36 37 40 40 45 42 40 50 72 74 77 74 64 58 54 55 59 57
38 28 15 15 18 17 20 17 30 30 38 34 20 24 23 23 24 24 22 23 22 24 27 30 31 36 39 40 44 45 52 47 42 52 72 77 80 69 66 59 59 57 61 65
47 42 22 16 20 18 18 23 23 20 22 28 31 27 25 26 25 27 24 23 25 29 33 31 34 37 39 43 44 51 61 52 44 64 73 80 82 73 68 62 60 60 65 67
65 66 38 28 18 14 11 19 21 27 26 23 30 53 20 24 23 24 25 27 29 34 50 42 40 41 42 46 49 56 69 72 66 74 82 86 84 79 69 66 64 65 69 61
81 58 80 73 35 18 16 15 20 24 24 35 40 25 23 26 28 29 36 54 51 51 50 46 46 48 49 50 55 64 74 87 78 80 87 87 88 84 73 68 68 72 68 66
76 71 79 80 83 35 37 21 16 21 32 27 26 59 46 30 29 52 56 58 53 53 55 53 53 55 53 55 62 74 82 88 87 84 86 92 89 82 74 69 70 77 66 66
64 71 52 52 50 39 49 43 27 26 28 35 34 37 46 57 56 60 62 57 57 59 59 59 63 65 59 62 69 80 83 85 90 89 92 93 90 81 76 72 72 77 69 66
56 79 51 44 31 33 36 28 26 23 21 22 21 22 40 50 52 61 64 62 64 67 64 64 64 67 69 72 80 84 86 86 92 93 94 92 94 85 75 75 77 80 77 66
67 73 61 48 34 34 43 32 28 25 23 27 36 47 44 65 66 74 71 74 74 72 66 72 76 75 78 82 87 91 88 86 91 94 93 94 92 84 79 77 77 75 78 79
65 64 54 59 44 60 41 35 29 26 42 42 41 48 45 65 74 78 75 74 71 72 72 83 82 81 83 86 88 91 87 87 95 96 95 94 88 80 77 76 78 78 71 78
46 68 67 64 52 38 30 66 82 70 84 64 64 63 65 71 75 86 69 66 72 75 78 84 80 84 92 93 94 92 91 93 91 92 93 92 92 88 76 78 78 75 78 79
41 46 61 61 55 61 92 56 60 63 97 83 72 68 62 68 93 93 67 63 66 70 77 86 81 83 94 100 98 100 100 98 98 95 94 91 91 92 93 94 93 93 79 82
73 74 77 59 55 57 55 49 58 90 99 77 68 70 66 79 82 74 66 63 65 71 84 92 94 96 98 100 100 100 100 98 100 99 93 96 93 93 93 93 94 95 96 96
66 72 85 62 68 75 63 59 87 98 80 71 69 69 74 74 75 72 68 65 75 78 88 89 94 95 99 99 100 100 98 100 100 100 100 95 99 96 89 93 93 92 94 96
76 70 86 94 98 87 76 88 71 64 64 60 60 58 62 64 66 67 70 69 82 92 96 95 94 93 90 98 98 98 99 95 98 96 96 97 98 94 90 94 94 93 92 95
67 57 76 73 97 96 97 85 70 58 55 50 49 52 55 63 60 61 63 68 78 93 94 96 94 94 93 92 90 85 71 65 72 80 87 86 92 93 91 88 92 93 94 95
68 64 97 98 98 87 82 94 94 76 57 50 50 52 53 53 55 55 57 61 64 76 83 90 95 95 93 92 86 75 76 68 66 69 69 75 81 84 87 92 93 93 97 94
67 98 93 100 100 100 98 99 92 85 67 52 52 55 52 52 53 52 56 57 57 62 64 70 80 85 90 87 85 78 75 76 77 77 76 82 80 81 84 84 90 95 94 94

GFSCGP_sfc_rhum_114.txt.gz
RH
47 27 26 22 26 23 22 21 23 20 16 18 19 17 14 12 14 15 15 15 16 17 14 15 20 23 27 28 29 30 36 59 65 68 74 72 72 71 70 70 75 79 79 86
72 60 20 18 15 20 20 21 22 19 17 26 28 30 18 15 16 15 15 16 16 16 15 16 18 27 28 28 34 36 35 37 49 57 61 66 67 74 72 77 75 73 78 81
87 49 18 19 14 15 18 21 23 23 31 43 32 36 21 16 15 14 14 15 15 17 17 16 17 30 37 36 40 35 35 37 43 43 57 70 85 86 86 84 75 74 76 77
80 55 22 19 17 11 19 15 18 22 35 70 33 39 23 18 17 14 13 14 17 16 15 13 18 30 35 38 39 38 42 41 40 50 52 80 84 86 81 83 78 76 80 80
83 68 27 18 14 10 15 14 18 22 33 47 40 38 28 22 24 22 14 13 14 16 14 16 24 26 28 36 43 43 46 47 47 49 57 79 80 75 76 80 85 83 79 80
68 42 36 15 10 9 12 20 24 28 35 54 39 36 31 25 24 22 14 11 15 22 25 25 25 26 29 35 44 46 46 42 49 54 60 74 81 77 77 81 83 84 86 84
38 39 33 20 15 12 20 28 49 63 56 57 31 35 30 17 14 16 14 13 26 27 28 27 25 25 33 40 44 44 43 43 46 59 61 70 78 79 76 73 76 78 86 90
30 84 52 28 19 17 26 29 52 55 56 43 26 34 24 16 12 12 18 25 26 27 30 29 30 37 40 44 46 50 47 46 47 53 63 68 78 78 74 72 69 78 80 84
64 42 44 34 18 20 28 36 30 42 50 56 30 25 18 14 18 20 24 26 28 26 28 31 34 42 45 47 51 56 53 51 52 57 58 71 81 83 75 74 77 73 72 72
63 81 40 45 20 19 24 25 44 41 53 60 72 30 37 22 26 28 32 24 24 24 31 34 38 45 44 47 54 57 55 55 60 65 66 71 77 77 78 79 79 74 73 74
54 61 51 24 48 36 32 29 29 29 33 39 53 62 37 27 32 54 25 28 45 46 46 44 42 43 46 49 50 54 57 62 67 72 79 74 76 77 79 82 80 74 74 78
60 77 71 32 15 14 18 24 26 40 37 29 37 44 41 38 26 27 57 49 56 50 49 47 48 50 50 52 52 56 62 66 74 80 76 80 84 81 82 88 80 79 74 77
65 83 90 58 39 16 17 14 17 25 28 40 52 34 51 48 62 51 57 55 52 53 51 50 50 53 55 57 58 61 66 73 78 81 86 92 91 86 90 92 80 77 75 75
66 68 95 98 98 69 39 14 13 19 37 32 43 46 44 66 67 61 61 56 57 58 56 56 58 59 61 63 66 69 72 75 80 81 90 94 92 88 88 88 79 78 77 70
54 76 73 57 46 84 86 65 33 18 24 32 60 56 68 79 85 64 58 57 60 61 59 60 65 68 66 70 74 74 77 79 81 87 90 94 91 89 88 87 80 78 82 75
48 78 65 49 27 44 72 68 62 65 49 38 38 45 80 72 59 64 64 65 66 64 63 66 69 72 74 77 81 81 81 83 86 89 92 94 93 95 94 88 86 82 85 81
57 78 69 50 34 31 38 32 30 24 23 30 49 70 71 65 71 74 71 69 70 69 70 75 79 80 82 86 85 88 85 83 87 90 94 94 93 96 95 88 86 88 85 84
56 58 58 67 53 53 58 54 54 46 56 54 56 61 63 73 74 72 68 71 73 74 76 82 82 83 85 85 90 88 84 84 89 90 91 95 95 95 95 92 90 89 88 90
42 56 70 70 63 39 73 63 73 82 93 73 63 65 70 71 76 87 65 65 72 76 79 84 84 84 91 92 94 91 87 89 89 94 93 91 95 96 94 92 90 88 88 91
42 47 60 64 67 69 79 53 46 54 99 98 79 65 66 72 96 94 66 65 68 75 81 88 86 87 92 99 96 98 98 98 97 98 96 94 93 96 97 98 98 97 93 92
64 65 70 62 60 86 74 58 47 78 100 96 88 75 74 83 82 74 66 68 70 78 81 81 77 88 94 99 100 99 98 98 99 100 98 96 95 94 95 96 96 95 96 96
76 84 91 86 71 90 84 60 89 98 95 93 81 68 72 69 70 70 67 72 82 84 86 83 85 89 95 95 97 98 98 100 100 98 97 98 100 98 93 94 96 94 95 96
83 70 81 97 98 98 88 96 91 76 68 61 61 58 60 62 63 66 70 73 85 91 91 90 94 90 93 93 96 96 99 100 100 98 96 96 97 99 100 97 98 97 94 95
65 54 82 82 89 84 91 95 95 90 75 54 51 51 53 60 57 58 62 66 81 92 92 89 91 95 96 95 95 97 98 99 99 95 96 96 96 95 96 95 96 96 96 95
68 67 95 96 83 83 86 97 99 94 74 61 53 53 54 52 55 56 60 60 64 77 87 88 91 91 93 96 95 95 95 91 94 93 87 92 92 94 93 95 96 95 97 96
72 97 92 94 97 100 99 100 98 94 92 61 52 52 53 53 55 54 59 59 59 65 67 75 81 85 88 86 87 92 94 94 90 88 90 91 87 86 88 88 92 93 93 93

GFSCGP_sfc_rhum_117.txt.gz
RH
39 37 55 51 36 27 26 30 26 26 22 23 23 22 19 18 16 18 19 18 20 17 15 15 16 19 22 31 36 60 74 76 82 90 93 96 85 86 95 88 86 90 85 88
50 55 33 32 51 40 28 29 32 25 21 25 25 32 20 26 21 16 17 22 21 24 21 15 16 29 28 37 42 42 64 85 82 81 80 86 94 91 79 91 91 86 89 93
58 61 32 34 54 63 28 27 27 31 46 45 42 44 40 32 21 19 15 18 22 23 23 22 28 34 40 42 40 39 44 53 72 76 85 95 95 96 95 95 95 91 89 92
72 51 63 54 51 57 31 21 20 24 30 70 44 57 41 34 25 22 20 20 22 22 22 21 33 41 41 44 48 46 51 52 51 56 79 90 92 97 96 96 93 81 90 88
66 64 93 98 65 42 28 23 20 21 41 71 57 67 47 32 30 25 24 22 18 21 17 24 32 36 39 47 56 55 53 52 54 56 67 92 94 89 96 97 94 90 91 86
66 50 63 73 52 34 20 23 24 44 64 94 56 57 50 36 28 25 22 20 18 21 28 29 31 39 50 52 54 54 56 54 56 64 69 91 94 94 96 96 96 93 86 92
33 38 39 51 56 42 21 24 68 92 90 80 41 49 43 30 23 21 21 20 30 27 30 35 46 52 53 56 58 52 54 54 57 64 66 75 93 93 91 92 92 94 86 87
64 84 60 48 57 38 26 47 81 90 80 62 34 54 41 27 23 21 18 30 35 35 40 48 51 51 52 57 59 60 56 56 57 63 68 73 73 91 86 82 84 88 85 86
80 67 53 48 54 50 38 44 44 66 62 74 45 33 25 23 26 27 30 34 39 42 48 49 48 51 56 58 62 66 63 60 62 67 71 75 76 86 88 85 82 92 81 81
68 78 57 69 64 33 30 31 68 77 88 87 78 45 44 39 44 52 74 61 56 54 53 53 56 56 56 58 65 67 67 65 65 66 73 73 79 81 88 89 91 92 84 83
67 77 63 58 60 45 43 41 50 72 53 69 94 88 46 50 42 68 79 81 74 62 59 59 58 57 58 59 61 64 66 66 68 69 75 79 88 84 88 92 93 91 82 82
66 87 91 54 46 33 43 51 41 60 60 50 70 88 60 71 66 71 74 69 67 60 62 60 60 62 63 64 64 67 71 72 73 74 77 78 86 86 90 93 94 89 82 89
74 86 95 72 54 54 58 39 30 38 47 44 68 81 70 75 80 67 69 68 65 64 62 62 66 68 67 68 71 72 74 78 79 78 80 81 88 94 94 93 94 86 86 90
69 77 97 96 94 98 87 65 47 34 51 46 61 78 91 83 80 81 70 70 65 64 65 68 72 74 73 74 77 78 80 80 79 78 83 85 88 94 95 96 95 86 84 89
64 86 75 68 59 98 94 68 62 58 47 45 66 84 94 92 93 85 72 65 68 70 71 74 78 78 77 80 82 82 83 82 81 83 84 87 86 92 94 96 95 89 85 79
61 84 77 72 49 57 62 67 58 58 57 55 67 94 80 84 81 79 73 70 75 76 75 77 78 77 80 82 84 85 87 84 84 84 86 84 88 93 94 95 95 95 90 82
73 80 84 77 55 56 94 97 85 84 88 63 85 94 78 82 81 81 77 77 79 80 81 81 83 83 85 88 87 93 88 81 84 85 82 83 90 96 96 93 91 94 91 88
76 72 76 88 74 82 86 58 67 91 94 93 90 92 89 87 76 74 74 80 81 81 84 87 87 86 88 88 88 89 82 82 83 85 86 86 89 95 97 94 93 95 93 91
62 70 91 90 87 73 68 75 81 87 98 98 96 83 78 78 76 80 69 71 81 84 85 88 87 86 91 90 90 92 87 85 85 87 90 91 92 90 98 98 97 95 95 94
59 71 85 89 82 96 91 82 65 69 98 98 95 98 86 80 97 96 74 75 80 81 83 90 88 84 91 95 91 98 97 96 96 94 96 93 94 93 95 98 97 99 96 96
90 88 93 94 90 95 90 80 69 82 100 90 96 97 79 90 87 77 74 78 78 83 86 85 88 93 94 95 97 97 97 98 94 94 96 96 97 95 96 97 98 97 97 97
93 94 100 92 89 94 96 76 92 98 95 91 92 86 78 76 76 73 76 80 84 87 89 88 90 91 94 94 96 95 98 97 94 95 96 97 97 99 95 96 97 96 96 97
98 86 99 96 97 98 95 99 98 95 82 69 64 63 64 64 70 70 77 80 86 93 95 94 92 90 87 91 94 93 98 97 94 95 96 97 97 97 100 97 97 96 96 96
78 76 95 96 91 92 89 89 95 94 95 70 61 60 56 63 62 65 69 75 89 96 95 95 92 91 92 92 89 94 96 97 94 96 97 96 96 96 96 95 97 96 96 95
89 82 98 94 91 96 91 97 97 89 85 70 64 69 69 62 62 64 65 67 72 86 93 91 95 94 94 91 90 90 88 92 95 96 97 96 95 96 96 96 97 96 97 97
83 94 91 96 96 98 97 99 94 91 89 73 65 63 57 59 61 62 68 66 68 78 82 85 88 90 92 88 88 90 88 87 90 94 95 96 95 95 95 94 94 97 98 98

GFSCGP_sfc_rhum_120.txt.gz
RH
51 59 62 47 41 44 45 45 41 31 24 26 20 26 23 22 24 22 23 25 24 22 18 20 20 20 23 24 36 60 62 68 75 84 86 91 91 98 98 94 92 91 94 94
63 72 51 44 42 38 39 56 65 39 25 25 27 23 22 20 21 20 20 25 23 24 21 19 19 25 30 36 45 70 65 73 73 80 81 94 96 95 90 96 95 90 92 94
74 59 39 47 52 53 49 47 52 59 30 25 50 53 39 35 22 22 23 22 22 23 22 20 18 34 46 50 67 88 91 85 83 85 96 98 97 97 96 97 96 96 93 92
71 46 44 47 51 55 95 40 45 53 38 50 62 75 49 38 36 28 23 26 25 24 26 28 42 49 46 58 58 57 68 73 70 89 93 93 93 89 96 93 94 96 93 94
62 62 80 82 70 70 89 56 47 51 34 38 51 87 70 43 39 33 26 26 27 23 27 41 54 57 59 58 59 58 56 60 66 71 75 92 92 95 97 97 94 94 94 89
54 40 52 54 50 53 62 55 54 39 44 56 43 74 68 40 31 30 26 25 25 42 50 50 50 54 62 63 60 59 58 59 63 69 77 88 94 96 98 97 97 96 97 95
65 47 54 53 67 59 64 60 73 75 75 82 59 82 57 39 31 28 29 36 38 43 50 56 58 61 62 65 61 57 59 62 62 66 75 86 87 86 96 96 96 95 96 98
89 78 52 44 84 80 66 52 60 80 78 77 59 69 48 32 27 27 36 53 51 53 52 59 62 64 66 66 67 66 65 65 63 66 72 73 77 84 84 95 95 94 92 87
84 71 46 41 52 68 47 50 32 59 73 71 54 42 28 46 54 42 56 58 64 62 67 68 66 67 68 69 72 72 69 67 67 68 72 76 78 80 86 86 92 92 90 86
68 89 55 59 64 53 54 40 66 74 86 82 90 67 84 91 90 79 79 76 73 69 68 67 68 68 67 68 70 70 69 70 72 71 73 72 76 78 83 87 87 91 93 90
72 86 64 58 94 80 65 61 76 75 86 92 95 98 81 80 89 90 82 78 77 73 72 70 70 66 66 67 67 71 73 75 76 77 77 78 78 77 79 86 90 91 90 92
74 98 94 60 46 55 55 72 70 83 94 88 84 95 87 82 83 83 80 80 79 75 73 71 70 69 71 73 74 76 75 78 80 79 80 81 81 80 82 83 92 90 91 94
68 87 94 67 58 58 88 71 69 80 79 78 79 97 86 78 76 74 88 80 78 80 76 76 73 75 75 76 79 80 81 85 82 79 79 81 83 85 86 86 92 91 92 93
66 83 96 96 90 83 86 78 71 76 86 61 73 100 94 97 98 90 85 75 81 78 76 78 79 78 78 79 82 83 82 83 82 80 82 85 86 85 86 86 90 96 94 94
70 88 81 71 65 93 97 93 77 72 71 58 75 95 97 98 96 96 99 86 77 79 79 80 81 82 80 82 82 82 82 80 81 81 82 84 82 81 83 88 89 95 94 92
68 85 80 76 55 93 94 76 81 85 90 89 89 97 95 94 83 83 93 89 84 84 84 82 82 82 83 85 87 85 84 82 83 83 83 80 82 81 83 88 92 96 95 92
80 86 85 83 61 74 88 99 92 88 93 93 91 98 94 90 85 88 85 83 85 85 85 83 84 85 85 86 86 89 84 80 84 84 81 80 83 85 85 89 92 96 96 94
79 82 84 90 75 92 99 77 97 100 99 98 96 98 98 93 80 80 81 86 88 86 88 88 86 87 86 86 86 84 80 83 86 85 85 83 86 88 85 86 89 95 96 96
73 80 91 93 87 98 78 79 94 98 98 98 99 98 97 86 75 89 79 79 85 86 86 88 85 86 90 90 87 86 85 86 86 87 88 87 87 91 89 90 96 94 96 96
69 80 87 91 85 94 87 83 73 79 98 97 92 96 98 95 97 96 85 80 80 81 83 86 82 83 89 92 89 87 92 90 91 93 92 87 87 90 95 94 95 96 98 98
91 90 95 97 97 90 93 84 75 80 100 95 96 95 82 92 91 91 79 80 77 80 83 85 83 92 94 91 89 94 90 93 94 92 92 90 89 92 96 94 95 98 98 98
97 98 97 93 90 92 91 80 89 100 90 84 81 76 83 81 80 82 78 80 82 85 87 84 90 91 91 91 94 93 96 95 92 91 92 93 93 94 95 97 98 98 97 98
98 97 95 91 96 96 93 99 99 98 95 90 79 68 69 72 74 75 83 82 86 91 94 93 89 88 86 89 92 92 97 95 94 90 93 95 93 95 96 97 97 96 97 96
84 82 96 96 93 92 91 87 90 95 89 79 95 73 62 70 68 72 76 79 88 94 95 94 93 93 93 92 87 88 91 88 91 94 93 94 94 95 96 97 96 96 96 96
96 88 96 91 95 92 88 88 86 81 82 67 66 74 70 68 73 73 76 78 81 90 94 93 96 95 95 92 87 89 88 89 89 90 92 94 95 96 96 96 98 97 98 97
85 92 93 98 99 95 89 92 90 95 83 78 78 75 69 68 71 76 83 86 83 87 86 88 90 91 93 91 89 86 88 90 90 89 89 93 92 95 96 96 96 97 98 97

GFSCGP_sfc_rhum_126.txt.gz
RH
57 64 73 62 54 44 46 50 54 45 37 42 44 44 39 33 31 29 25 21 20 18 17 19 20 22 31 52 66 76 89 89 91 94 97 98 96 95 97 96 95 96 96 97
62 78 54 48 52 55 57 63 62 50 43 46 48 49 43 38 35 33 30 24 19 20 17 19 20 26 30 42 63 71 78 85 90 86 86 95 93 95 95 95 97 96 96 96
69 55 47 51 58 64 62 68 60 60 50 49 61 70 62 44 36 32 29 22 18 20 19 24 23 26 28 32 42 68 73 76 87 85 95 99 98 99 99 99 98 97 96 96
70 56 53 58 58 54 71 49 49 57 76 94 66 85 53 42 37 31 27 22 21 25 18 21 27 65 78 90 75 88 94 95 95 95 94 95 95 97 96 96 96 97 95 96
70 69 78 85 68 55 69 54 70 70 93 91 64 90 49 39 43 38 30 30 27 23 21 66 73 71 74 82 85 84 85 87 91 98 96 97 98 98 99 99 98 99 99 97
65 56 58 60 52 53 49 73 78 87 91 96 56 70 56 48 36 45 66 82 79 75 73 70 66 66 70 68 71 70 72 73 75 82 86 91 95 97 99 98 92 93 97 99
66 69 61 51 72 65 77 77 88 86 97 66 48 86 57 41 41 38 66 92 85 81 82 81 80 78 77 80 76 71 72 75 76 80 84 90 90 91 92 96 97 98 98 99
88 78 65 61 71 62 72 92 79 93 65 66 54 85 71 82 85 83 86 85 85 85 83 84 83 83 78 76 76 76 76 79 79 82 85 82 84 84 83 85 89 96 99 98
94 78 46 43 47 59 85 88 64 71 67 87 75 66 73 82 88 90 89 86 89 86 85 86 85 82 83 84 84 84 81 80 78 79 79 78 78 81 84 84 88 91 88 85
68 88 55 58 70 66 80 71 86 75 96 95 85 93 95 95 94 91 95 94 88 84 85 82 82 80 83 83 83 82 79 78 77 75 78 80 82 82 84 85 88 88 90 90
69 92 64 62 88 86 87 90 91 96 96 96 95 96 100 99 96 94 94 97 91 90 87 85 80 81 82 79 78 78 78 77 79 79 80 83 85 84 84 88 88 89 89 88
64 85 83 61 50 67 79 94 95 98 93 91 95 98 100 99 98 98 96 94 86 84 91 86 86 76 80 80 80 80 79 81 81 78 78 79 80 82 86 87 86 86 88 86
70 87 96 68 55 56 80 73 87 97 97 97 98 98 100 99 99 98 99 99 98 95 88 84 81 81 79 81 83 81 81 82 82 81 82 83 85 85 87 88 86 85 86 87
69 86 89 94 82 99 94 95 95 77 97 94 98 97 97 98 98 99 99 100 99 98 96 95 92 87 82 83 83 83 83 82 80 78 81 86 87 86 84 81 85 86 84 86
68 89 84 79 68 99 91 92 93 92 95 95 98 97 99 99 99 100 100 100 100 100 99 98 98 97 88 87 86 86 81 80 82 81 82 84 81 79 79 80 81 84 85 82
73 87 85 84 81 98 91 84 73 75 91 98 97 97 100 100 93 88 91 97 97 98 97 90 88 88 91 90 90 85 85 83 81 82 84 81 81 80 82 82 82 83 84 82
81 90 90 80 68 96 94 98 99 93 91 97 93 100 100 90 90 93 88 86 91 91 89 88 88 91 91 92 88 88 85 82 83 84 82 81 81 83 84 81 81 83 86 86
82 88 87 96 91 92 99 79 99 99 97 98 98 100 98 93 92 86 88 90 86 86 86 87 88 89 90 90 89 83 82 84 85 84 83 82 84 85 83 83 83 87 88 90
76 86 95 97 92 92 73 84 93 95 96 97 95 91 90 91 93 88 85 84 87 88 90 92 90 89 90 91 87 85 87 87 86 85 86 85 85 86 85 86 88 89 91 92
82 86 94 93 94 97 91 82 79 97 96 94 85 90 85 75 86 92 87 79 78 80 84 88 85 83 91 94 90 87 92 93 93 93 90 83 84 85 84 89 89 90 90 92
87 85 88 88 93 92 86 86 81 90 97 91 92 89 94 93 93 94 83 82 78 79 86 85 86 88 93 93 94 90 92 95 92 92 91 89 86 87 82 86 87 89 91 91
83 87 83 78 89 91 89 77 90 100 98 93 92 90 91 84 83 82 80 83 86 88 91 89 91 87 90 90 93 90 93 94 90 92 92 92 90 90 82 89 88 86 90 93
98 82 82 92 94 93 92 96 97 98 96 94 89 91 83 86 82 84 88 80 90 94 96 93 96 89 84 89 93 94 96 91 90 92 93 93 90 90 90 91 91 89 90 92
92 86 88 94 96 92 89 81 83 92 92 84 92 90 86 89 86 88 84 83 88 94 94 95 94 94 94 91 88 93 92 86 89 93 93 93 93 91 92 89 90 91 91 92
84 84 91 88 95 94 90 89 91 89 91 86 88 89 87 82 85 88 90 84 86 88 90 92 95 94 95 93 90 89 90 88 89 88 92 94 92 93 92 93 95 94 95 96
86 90 94 92 97 95 96 94 94 96 88 90 84 82 83 84 83 86 90 88 89 89 83 85 88 90 92 90 87 89 91 87 83 86 87 92 93 93 92 92 91 85 93 91